[[{"header":{"parameterUnit":"m.s-1","parameterCategory":1,"la1":30.6,"la2":28.766,"lo1":-90.7593,"lo2":-88.6598,"dy":0.0162,"dx":0.0183,"nx":116,"ny":114,"refTime":"2023-11-11T06:00:00:Z","depth":0,"parameterNumber":2,"parameterNumberName":"U-component_of_WINDS"},"data":[0.0,0.0,0.0,0.0,0.0,0.0,0.0,0.0,0.0,0.0,0.0,0.0,0.0,0.0,0.0,0.0,0.0,0.0,0.0,0.0,0.0,0.0,0.0,0.0,0.0,0.0,0.0,0.0,0.0,0.0,0.0,0.0,0.0,0.0,0.0,0.0,0.0,0.0,0.0,0.0,0.0,0.0,0.0,0.0,0.0,0.0,0.0,0.0,0.0,0.0,0.0,0.0,0.0,0.0,0.0,0.0,0.0,0.0,0.0,0.0,0.0,0.0,0.0,0.0,0.0,0.0,0.0,0.0,0.0,0.0,0.0,0.0,0.0,0.0,0.0,0.0,0.0,0.0,0.0,0.0,0.0,0.0,0.0,0.0,0.0,0.0,0.0,0.0,0.0,0.0,0.0,0.0,0.0,0.0,0.0,0.0,0.0,0.0,0.0,0.0,0.0,0.0,0.0,0.0,0.0,0.0,0.0,0.0,0.0,0.0,0.0,0.0,0.0,0.0,0.0,0.0,0.0,0.0,0.0,0.0,0.0,0.0,0.0,0.0,0.0,0.0,0.0,0.0,0.0,0.0,0.0,0.0,0.0,0.0,0.0,0.0,0.0,0.0,0.0,0.0,0.0,0.0,0.0,0.0,0.0,0.0,0.0,0.0,0.0,0.0,0.0,0.0,0.0,0.0,0.0,0.0,0.0,0.0,0.0,0.0,0.0,0.0,0.0,0.0,0.0,0.0,0.0,0.0,0.0,0.0,0.0,0.0,0.0,0.0,0.0,0.0,0.0,0.0,0.0,0.0,0.0,0.0,0.0,0.0,0.0,0.0,0.0,0.0,0.0,0.0,0.0,0.0,0.0,0.0,0.0,0.0,0.0,0.0,0.0,0.0,0.0,0.0,0.0,0.0,0.0,0.0,0.0,0.0,0.0,0.0,0.0,0.0,0.0,0.0,0.0,0.0,0.0,0.0,0.0,0.0,0.0,0.0,0.0,0.0,0.0,0.0,0.0,0.0,0.0,0.0,0.0,0.0,0.0,0.0,0.0,0.0,0.0,0.0,0.0,0.0,0.0,0.0,0.0,0.0,0.0,0.0,0.0,0.0,0.0,0.0,0.0,0.0,0.0,0.0,0.0,0.0,0.0,0.0,0.0,0.0,0.0,0.0,0.0,0.0,0.0,0.0,0.0,0.0,0.0,0.0,0.0,0.0,0.0,0.0,0.0,0.0,0.0,0.0,0.0,0.0,0.0,0.0,0.0,0.0,0.0,0.0,0.0,0.0,0.0,0.0,0.0,0.0,0.0,0.0,0.0,0.0,0.0,0.0,0.0,0.0,0.0,0.0,0.0,0.0,0.0,0.0,0.0,0.0,0.0,0.0,0.0,0.0,0.0,0.0,0.0,0.0,0.0,0.0,0.0,0.0,0.0,0.0,0.0,0.0,0.0,0.0,0.0,0.0,0.0,0.0,0.0,0.0,0.0,0.0,0.0,0.0,0.0,0.0,0.0,0.0,0.0,0.0,0.0,0.0,0.0,0.0,0.0,0.0,0.0,0.0,0.0,0.0,0.0,0.0,0.0,0.0,0.0,0.0,0.0,0.0,0.0,0.0,0.0,0.0,0.0,0.0,0.0,0.0,0.0,0.0,0.0,0.0,0.0,0.0,0.0,0.0,0.0,0.0,0.0,0.0,0.0,0.0,0.0,0.0,0.0,0.0,0.0,0.0,0.0,0.0,0.0,0.0,0.0,0.0,0.0,0.0,0.0,0.0,0.0,0.0,0.0,0.0,0.0,0.0,0.0,0.0,0.0,0.0,0.0,0.0,0.0,0.0,0.0,0.0,0.0,0.0,0.0,0.0,0.0,0.0,0.0,0.0,0.0,0.0,0.0,0.0,0.0,0.0,0.0,0.0,0.0,0.0,0.0,0.0,0.0,0.0,0.0,0.0,0.0,0.0,0.0,0.0,0.0,0.0,0.0,0.0,0.0,0.0,0.0,0.0,0.0,0.0,0.0,0.0,0.0,0.0,0.0,0.0,0.0,0.0,0.0,0.0,0.0,0.0,0.0,0.0,0.0,0.0,0.0,0.0,0.0,0.0,0.0,0.0,0.0,0.0,0.0,0.0,0.0,0.0,0.0,0.0,0.0,0.0,0.0,0.0,0.0,0.0,0.0,0.0,0.0,0.0,0.0,0.0,0.0,0.0,0.0,0.0,0.0,0.0,0.0,0.0,0.0,0.0,0.0,0.0,0.0,0.0,0.0,0.0,0.0,0.0,0.0,0.0,0.0,0.0,0.0,0.0,0.0,0.0,0.0,0.0,0.0,0.0,0.0,0.0,0.0,0.0,0.0,0.0,0.0,0.0,0.0,0.0,0.0,0.0,0.0,0.0,0.0,0.0,0.0,0.0,0.0,0.0,0.0,0.0,0.0,0.0,0.0,0.0,0.0,0.0,0.0,0.0,0.0,0.0,0.0,0.0,0.0,0.0,0.0,0.0,0.0,0.0,0.0,0.0,0.0,0.0,0.0,0.0,0.0,0.0,0.0,0.0,0.0,0.0,0.0,0.0,0.0,0.0,0.0,0.0,0.0,0.0,0.0,0.0,0.0,0.0,0.0,0.0,0.0,0.0,0.0,0.0,0.0,0.0,0.0,0.0,0.0,0.0,0.0,0.0,0.0,0.0,0.0,0.0,0.0,0.0,0.0,0.0,0.0,0.0,0.0,0.0,0.0,0.0,0.0,0.0,0.0,0.0,0.0,0.0,0.0,0.0,0.0,0.0,0.0,0.0,0.0,0.0,0.0,0.0,0.0,0.0,0.0,0.0,0.0,0.0,0.0,0.0,0.0,0.0,0.0,0.0,0.0,0.0,0.0,0.0,0.0,0.0,0.0,0.0,0.0,0.0,0.0,0.0,0.0,0.0,0.0,0.0,0.0,0.0,0.0,0.0,0.0,0.0,0.0,0.0,0.0,0.0,0.0,0.0,0.0,0.0,0.0,0.0,0.0,0.0,0.0,0.0,0.0,0.0,0.0,0.0,0.0,0.0,0.0,0.0,0.0,0.0,0.0,0.0,0.0,0.0,0.0,0.0,0.0,0.0,0.0,0.0,0.0,0.0,0.0,0.0,0.0,0.0,0.0,0.0,0.0,0.0,0.0,0.0,0.0,0.0,0.0,0.0,0.0,0.0,0.0,0.0,0.0,0.0,0.0,0.0,0.0,0.0,0.0,0.0,0.0,0.0,0.0,0.0,0.0,0.0,0.0,0.0,0.0,0.0,0.0,0.0,0.0,0.0,0.0,0.0,0.0,0.0,0.0,0.0,0.0,0.0,0.0,0.0,0.0,0.0,0.0,0.0,0.0,0.0,0.0,0.0,0.0,0.0,0.0,0.0,0.0,0.0,0.0,0.0,0.0,0.0,0.0,0.0,0.0,0.0,0.0,0.0,0.0,0.0,0.0,0.0,0.0,0.0,0.0,0.0,0.0,0.0,0.0,0.0,0.0,0.0,0.0,0.0,0.0,0.0,0.0,0.0,0.0,0.0,0.0,0.0,0.0,0.0,0.0,0.0,0.0,0.0,0.0,0.0,0.0,0.0,0.0,0.0,0.0,0.0,0.0,0.0,0.0,0.0,0.0,0.0,0.0,0.0,0.0,0.0,0.0,0.0,0.0,0.0,0.0,0.0,0.0,0.0,0.0,0.0,0.0,0.0,0.0,0.0,0.0,0.0,0.0,0.0,0.0,0.0,0.0,0.0,0.0,0.0,0.0,0.0,0.0,0.0,0.0,0.0,0.0,0.0,0.0,0.0,0.0,0.0,0.0,0.0,0.0,0.0,0.0,0.0,0.0,0.0,0.0,0.0,0.0,0.0,0.0,0.0,0.0,0.0,0.0,0.0,0.0,0.0,0.0,0.0,0.0,0.0,0.0,0.0,0.0,0.0,0.0,0.0,0.0,0.0,0.0,0.0,0.0,0.0,0.0,0.0,0.0,0.0,0.0,0.0,0.0,0.0,0.0,0.0,0.0,0.0,0.0,0.0,0.0,0.0,0.0,0.0,0.0,0.0,0.0,0.0,0.0,0.0,0.0,0.0,0.0,0.0,0.0,0.0,0.0,0.0,0.0,0.0,0.0,0.0,0.0,0.0,0.0,0.0,0.0,0.0,0.0,0.0,0.0,0.0,0.0,0.0,0.0,0.0,0.0,0.0,0.0,0.0,0.0,0.0,0.0,0.0,0.0,0.0,0.0,0.0,0.0,0.0,0.0,0.0,0.0,0.0,0.0,0.0,0.0,0.0,0.0,0.0,0.0,0.0,0.0,0.0,0.0,0.0,0.0,0.0,0.0,0.0,0.0,0.0,0.0,0.0,0.0,0.0,0.0,0.0,0.0,0.0,0.0,0.0,0.0,0.0,0.0,0.0,0.0,0.0,0.0,0.0,0.0,0.0,0.0,0.0,0.0,0.0,0.0,0.0,0.0,0.0,0.0,0.0,0.0,0.0,0.0,0.0,0.0,0.0,0.0,0.0,0.0,0.0,0.0,0.0,0.0,0.0,0.0,0.0,0.0,0.0,0.0,0.0,0.0,0.0,0.0,0.0,0.0,0.0,0.0,0.0,0.0,0.0,0.0,0.0,0.0,0.0,0.0,0.0,0.0,0.0,0.0,0.0,0.0,0.0,0.0,0.0,0.0,0.0,0.0,0.0,0.0,0.0,0.0,0.0,0.0,0.0,0.0,0.0,0.0,0.0,0.0,0.0,0.0,0.0,0.0,0.0,0.0,0.0,0.0,0.0,0.0,0.0,0.0,0.0,0.0,0.0,0.0,0.0,0.0,0.0,0.0,0.0,0.0,0.0,0.0,0.0,0.0,0.0,0.0,0.0,0.0,0.0,0.0,0.0,0.0,0.0,0.0,0.0,0.0,0.0,0.0,0.0,0.0,0.0,0.0,0.0,0.0,0.0,0.0,0.0,0.0,0.0,0.0,0.0,0.0,0.0,0.0,0.0,0.0,0.0,0.0,0.0,0.0,0.0,0.0,0.0,0.0,0.0,0.0,0.0,0.0,0.0,0.0,0.0,0.0,0.0,0.0,0.0,0.0,0.0,0.0,0.0,0.0,0.0,0.0,0.0,0.0,0.0,0.0,0.0,0.0,0.0,0.0,0.0,0.0,0.0,0.0,0.0,0.0,0.0,0.0,0.0,0.0,0.0,0.0,0.0,0.0,0.0,0.0,0.0,0.0,0.0,0.0,0.0,0.0,0.0,0.0,0.0,0.0,0.0,0.0,0.0,0.0,0.0,0.0,0.0,0.0,0.0,0.0,0.0,0.0,0.0,0.0,0.0,0.0,0.0,0.0,0.0,0.0,0.0,0.0,0.0,0.0,0.0,0.0,0.0,0.0,0.0,0.0,0.0,0.0,0.0,0.0,0.0,0.0,0.0,0.0,0.0,0.0,0.0,0.0,0.0,0.0,0.0,0.0,0.0,0.0,0.0,0.0,0.0,0.0,0.0,0.0,0.0,0.0,0.0,0.0,0.0,0.0,0.0,0.0,0.0,0.0,0.0,0.0,0.0,0.0,0.0,0.0,0.0,0.0,0.0,0.0,0.0,0.0,0.0,0.0,0.0,0.0,0.0,0.0,0.0,0.0,0.0,0.0,0.0,0.0,0.0,0.0,0.0,0.0,0.0,0.0,0.0,0.0,0.0,0.0,0.0,0.0,0.0,0.0,0.0,0.0,0.0,0.0,0.0,0.0,0.0,0.0,0.0,0.0,0.0,0.0,0.0,0.0,0.0,0.0,0.0,0.0,0.0,0.0,0.0,0.0,0.0,0.0,0.0,0.0,0.0,0.0,0.0,0.0,0.0,0.0,0.0,0.0,0.0,0.0,0.0,0.0,0.0,0.0,0.0,0.0,0.0,0.0,0.0,0.0,0.0,0.0,0.0,0.0,0.0,0.0,0.0,0.0,0.0,0.0,0.0,0.0,0.0,0.0,0.0,0.0,0.0,0.0,0.0,0.0,0.0,0.0,0.0,0.0,0.0,0.0,0.0,0.0,0.0,0.0,0.0,0.0,0.0,0.0,0.0,0.0,0.0,0.0,0.0,0.0,0.0,0.0,0.0,3.7233,0.0,0.0,0.0,0.0,0.0,0.0,0.0,0.0,0.0,0.0,0.0,0.0,0.0,0.0,0.0,0.0,0.0,0.0,0.0,0.0,0.0,0.0,0.0,0.0,0.0,0.0,0.0,0.0,0.0,0.0,0.0,0.0,0.0,0.0,0.0,0.0,0.0,0.0,4.0096,4.0096,4.0096,4.0096,4.0096,4.0096,4.0096,0.0,0.0,0.0,0.0,0.0,0.0,0.0,0.0,0.0,0.0,0.0,0.0,0.0,0.0,0.0,0.0,0.0,0.0,0.0,0.0,0.0,0.0,0.0,0.0,0.0,0.0,0.0,0.0,0.0,0.0,0.0,0.0,0.0,0.0,0.0,0.0,0.0,0.0,0.0,0.0,0.0,0.0,0.0,0.0,0.0,0.0,0.0,0.0,0.0,0.0,0.0,0.0,0.0,0.0,0.0,0.0,0.0,0.0,0.0,0.0,0.0,0.0,0.0,0.0,0.0,0.0,0.0,0.0,0.0,0.0,0.0,3.7566,0.0,0.0,0.0,0.0,0.0,0.0,0.0,0.0,0.0,0.0,0.0,0.0,0.0,0.0,0.0,0.0,0.0,0.0,0.0,0.0,0.0,0.0,0.0,3.56,3.56,3.56,3.7014,3.7899,0.0,0.0,0.0,0.0,0.0,0.0,4.0096,4.0096,4.0096,4.0096,4.0096,4.0096,4.0096,4.0096,4.0096,4.0096,4.0096,0.0,0.0,0.0,0.0,0.0,0.0,0.0,0.0,0.0,0.0,0.0,0.0,0.0,0.0,0.0,0.0,0.0,0.0,0.0,0.0,0.0,0.0,0.0,0.0,0.0,0.0,0.0,0.0,0.0,0.0,0.0,0.0,0.0,0.0,0.0,0.0,0.0,0.0,0.0,0.0,0.0,0.0,0.0,0.0,0.0,0.0,0.0,0.0,0.0,0.0,0.0,0.0,0.0,0.0,0.0,0.0,0.0,0.0,0.0,0.0,0.0,0.0,0.0,3.6635,3.7075,3.6358,3.7233,3.7157,3.6369,3.7254,3.7123,3.6446,0.0,0.0,0.0,0.0,0.0,0.0,0.0,0.0,0.0,0.0,0.0,0.0,0.0,0.0,0.0,0.0,0.0,0.0,0.0,0.0,0.0,0.0,3.56,3.56,3.56,3.7014,3.7899,3.7899,0.0,0.0,0.0,0.0,0.0,4.0096,4.0096,4.0096,4.0096,4.0096,4.0096,4.0096,4.0096,4.0096,4.0096,4.0096,4.0096,4.0096,0.0,0.0,0.0,0.0,0.0,0.0,0.0,0.0,0.0,0.0,0.0,0.0,0.0,0.0,0.0,0.0,0.0,0.0,0.0,0.0,0.0,0.0,0.0,0.0,0.0,0.0,0.0,0.0,0.0,0.0,0.0,0.0,0.0,0.0,0.0,0.0,0.0,0.0,0.0,0.0,0.0,3.5217,3.6103,0.0,0.0,0.0,0.0,0.0,0.0,0.0,0.0,0.0,0.0,0.0,0.0,0.0,0.0,3.459,3.4799,3.5076,3.5407,3.568,3.6012,3.6401,3.6528,3.6528,3.6401,3.654,0.0,3.6316,3.6606,0.0,0.0,0.0,0.0,0.0,0.0,0.0,0.0,0.0,0.0,0.0,0.0,0.0,0.0,0.0,0.0,0.0,0.0,0.0,0.0,0.0,3.56,3.578,3.6231,3.7274,3.8086,3.8481,3.9508,0.0,0.0,0.0,4.0096,4.0096,4.0096,4.0096,4.0096,4.0096,4.0096,4.0096,4.0096,4.0096,4.0096,4.0096,4.0096,4.0096,4.0096,0.0,0.0,0.0,0.0,0.0,0.0,0.0,0.0,0.0,0.0,0.0,0.0,0.0,0.0,0.0,0.0,0.0,0.0,0.0,0.0,0.0,0.0,0.0,0.0,0.0,0.0,0.0,0.0,0.0,0.0,0.0,0.0,0.0,0.0,0.0,0.0,0.0,0.0,0.0,3.489,3.4856,3.5298,3.455,3.4181,0.0,0.0,0.0,0.0,0.0,0.0,0.0,0.0,0.0,3.469,3.4993,3.5156,3.5156,3.5491,3.5768,3.6006,3.6006,3.6131,3.6393,3.6393,3.6393,3.6393,3.6393,3.6753,3.7311,3.7311,3.7883,3.8811,0.0,0.0,0.0,0.0,3.8517,3.8373,0.0,0.0,0.0,0.0,0.0,0.0,0.0,0.0,0.0,0.0,0.0,0.0,3.56,3.578,3.6146,3.6745,3.7641,3.8413,3.896,3.9694,4.0096,4.0096,4.0096,4.0096,4.0096,4.0096,4.0096,4.0096,4.0096,4.0096,4.0096,4.0096,4.0096,4.0096,4.0096,4.0096,4.0096,4.0096,4.0096,4.0096,0.0,0.0,0.0,0.0,0.0,0.0,0.0,0.0,0.0,0.0,0.0,0.0,0.0,0.0,0.0,0.0,0.0,0.0,0.0,0.0,0.0,0.0,0.0,0.0,0.0,0.0,0.0,0.0,0.0,0.0,0.0,0.0,0.0,0.0,0.0,0.0,0.0,3.3797,3.4296,3.4296,3.4403,3.4507,0.0,0.0,0.0,0.0,0.0,0.0,3.4879,3.4905,3.4979,3.5128,3.5518,3.5732,3.5732,3.618,3.6393,3.6393,3.6393,3.6393,3.6393,3.6393,3.6393,3.6393,3.6393,3.7058,3.8073,3.779,3.8018,3.8626,3.9205,3.9637,3.98,3.8994,3.8711,3.8537,0.0,0.0,0.0,0.0,0.0,0.0,0.0,0.0,0.0,0.0,0.0,3.56,3.56,3.6282,3.6756,3.679,3.812,3.896,3.8994,3.9694,4.0096,4.0096,4.0096,4.0096,4.0096,4.0096,4.0096,4.0096,4.0096,4.0096,4.0096,4.0096,4.0096,4.0096,4.0096,4.0096,4.0096,4.0096,4.0096,4.0096,4.0096,0.0,0.0,0.0,0.0,0.0,0.0,0.0,0.0,0.0,0.0,0.0,0.0,0.0,0.0,0.0,0.0,0.0,0.0,0.0,0.0,0.0,0.0,0.0,0.0,0.0,0.0,0.0,0.0,0.0,0.0,0.0,0.0,0.0,0.0,0.0,0.0,0.0,0.0,3.3176,3.3631,0.0,0.0,0.0,0.0,3.4653,3.4653,3.488,3.542,3.5458,3.5719,3.6305,3.6343,3.6355,3.6355,3.638,3.6393,3.6393,3.6393,3.6393,3.6393,3.6393,3.6393,3.6393,3.6393,3.7058,3.8017,3.693,3.7805,3.9703,3.8615,3.8894,3.9768,3.8575,3.8147,3.7977,0.0,0.0,0.0,0.0,0.0,0.0,0.0,0.0,3.56,3.56,3.56,3.56,3.56,3.6321,3.6993,3.7472,3.8419,3.9203,3.9683,3.9954,4.0096,4.0096,4.0096,4.0096,4.0096,4.0096,4.0096,4.0096,4.0096,4.0096,4.0096,4.0096,4.0096,4.0096,4.0096,4.0096,4.0096,4.0096,4.0096,4.0096,4.0096,4.0217,0.0,0.0,0.0,0.0,0.0,0.0,0.0,0.0,0.0,0.0,0.0,0.0,0.0,0.0,0.0,0.0,0.0,0.0,0.0,0.0,0.0,0.0,0.0,0.0,0.0,0.0,0.0,0.0,0.0,0.0,0.0,0.0,0.0,0.0,0.0,0.0,0.0,3.3619,3.4087,0.0,0.0,3.459,3.483,3.5193,3.5218,3.5468,3.6055,3.6081,3.618,3.6393,3.6393,3.6393,3.6393,3.6393,3.6393,3.6393,3.6393,3.6393,3.6393,3.6393,3.6393,3.644,3.7185,3.8166,3.9227,3.883,3.9152,3.9714,3.7758,3.7712,3.8604,3.7438,3.7012,3.6953,0.0,0.0,0.0,0.0,0.0,0.0,0.0,0.0,3.5515,3.5282,3.5259,3.5256,3.5255,3.6186,3.7088,3.7806,3.8791,3.9576,4.0079,4.0096,4.0096,4.0096,4.0096,4.0096,4.0096,4.0096,4.0096,4.0096,4.0096,4.0096,4.0096,4.0096,4.0096,4.0096,4.0096,4.0096,4.0096,4.0096,4.0096,4.0096,4.0096,4.0204,4.0392,0.0,0.0,0.0,0.0,0.0,0.0,0.0,0.0,0.0,0.0,0.0,0.0,0.0,0.0,0.0,0.0,0.0,0.0,0.0,0.0,0.0,0.0,0.0,0.0,0.0,0.0,0.0,0.0,0.0,0.0,0.0,0.0,0.0,0.0,0.0,3.3972,3.4149,3.464,3.4968,3.4968,3.5153,3.5417,3.5781,3.5806,3.5981,3.638,3.6393,3.6393,3.6393,3.6393,3.6393,3.6393,3.6393,3.6393,3.6393,3.6393,3.6393,3.6393,3.6393,3.6494,3.6705,3.7468,3.8587,3.9827,3.9432,3.9982,4.0847,3.8506,3.7792,3.8018,3.7254,3.6721,3.6393,0.0,0.0,0.0,0.0,0.0,0.0,0.0,3.56,3.5356,3.4694,3.4645,3.4652,3.4637,3.5977,3.7127,3.7775,3.9218,4.0096,4.0096,4.0096,4.0096,4.0096,4.0096,4.0096,4.0096,4.0096,4.0096,4.0096,4.0096,4.0096,4.0096,4.0096,4.0096,4.0096,4.0096,4.0096,4.0096,4.0096,4.0096,4.0096,4.0096,4.0417,4.0827,0.0,0.0,0.0,0.0,0.0,0.0,0.0,0.0,0.0,0.0,0.0,0.0,0.0,0.0,0.0,0.0,0.0,0.0,0.0,0.0,0.0,0.0,0.0,0.0,0.0,0.0,0.0,0.0,0.0,0.0,0.0,0.0,0.0,3.4118,3.3957,3.4137,3.4653,3.5206,3.552,3.552,3.6068,3.6393,3.6393,3.6393,3.6393,3.6393,3.6393,3.6393,3.6393,3.6393,3.6393,3.6393,3.6393,3.6406,3.6418,3.6418,3.6431,3.6443,3.6443,3.6733,3.7235,3.7259,3.8261,3.9769,3.8639,4.0258,4.3224,4.0823,3.9204,3.8206,3.8172,3.7432,3.6443,0.0,0.0,0.0,0.0,0.0,0.0,3.56,3.56,3.5356,3.4694,3.5535,3.5988,3.5453,3.7193,3.8465,3.8642,3.9554,4.0096,4.0096,4.0096,4.0096,4.0096,4.0096,4.0096,4.0096,4.0096,4.0096,4.0096,4.0096,4.0096,4.0096,4.0096,4.0096,4.0096,4.0096,4.0096,4.0096,4.0096,4.0096,4.0096,4.0096,4.0185,4.0354,0.0,0.0,0.0,0.0,0.0,0.0,0.0,0.0,0.0,0.0,0.0,0.0,0.0,0.0,0.0,0.0,0.0,0.0,0.0,0.0,0.0,0.0,0.0,0.0,0.0,0.0,0.0,0.0,0.0,0.0,0.0,0.0,3.5083,3.5574,3.5307,3.5118,3.5269,3.5805,3.6143,3.6143,3.6305,3.6393,3.6393,3.6393,3.6393,3.6393,3.6393,3.6393,3.6393,3.6393,3.6393,3.6393,3.6393,3.6594,3.6984,3.6984,3.7173,3.755,3.755,3.7638,3.7825,3.8711,3.9882,4.1228,4.1712,4.3041,4.4442,4.1181,4.0229,4.0595,3.9721,3.862,3.755,0.0,0.0,0.0,0.0,0.0,0.0,3.56,3.56,3.5474,3.5107,3.5801,3.6282,3.6176,3.7608,3.8679,3.8938,3.9665,4.0096,4.0096,4.0096,4.0096,4.0096,4.0096,4.0096,4.0096,4.0096,4.0096,4.0096,4.0096,4.0096,4.0096,4.0096,4.0096,4.0096,4.0096,4.0096,4.0096,4.0096,4.0096,4.0096,4.0096,4.0096,4.0133,4.0442,4.0368,4.014,4.0449,4.0362,4.0096,4.0096,0.0,0.0,0.0,0.0,0.0,0.0,0.0,0.0,0.0,0.0,0.0,0.0,0.0,0.0,0.0,0.0,0.0,0.0,0.0,0.0,0.0,0.0,0.0,0.0,3.5939,3.5332,3.6214,3.5855,3.5595,3.5856,3.6193,3.6393,3.6393,3.6393,3.6393,3.6393,3.6393,3.6393,3.6393,3.6393,3.6393,3.6393,3.6619,3.6745,3.6745,3.6959,3.7487,3.8333,3.8333,3.8487,3.8796,3.8796,3.8645,0.0,3.9121,4.0269,4.172,4.2368,4.3705,0.0,0.0,0.0,0.0,0.0,3.8639,3.799,0.0,0.0,0.0,0.0,0.0,0.0,3.56,3.5549,3.5544,3.5689,3.577,3.6108,3.686,3.7717,3.8451,3.8996,3.9682,4.0096,4.0096,4.0096,4.0096,4.0096,4.0096,4.0096,4.0096,4.0096,4.0096,4.0096,4.0096,4.0096,4.0096,4.0096,4.0096,4.0096,4.0096,4.0096,4.0096,4.0096,4.0096,4.0096,4.0096,4.0096,4.0096,4.0096,4.0096,4.0096,4.0096,4.0096,4.0096,4.0096,0.0,0.0,0.0,0.0,0.0,0.0,0.0,0.0,0.0,0.0,0.0,0.0,0.0,0.0,0.0,0.0,0.0,0.0,0.0,0.0,0.0,0.0,0.0,0.0,3.6265,3.5782,3.6318,3.5943,3.5806,3.6343,3.6393,3.6393,3.6393,3.6393,3.6393,3.6393,3.6393,3.6393,3.6393,0.0,0.0,0.0,0.0,3.7286,3.7286,3.7764,3.8604,3.9787,3.9787,3.9826,3.9879,4.0034,3.9771,3.9209,3.936,4.0416,4.2035,4.2035,4.3361,4.5288,4.4092,4.2914,4.1615,3.9281,3.8327,3.8191,0.0,0.0,0.0,0.0,0.0,0.0,3.56,3.5133,3.5012,3.5618,3.6217,3.6895,3.7682,3.8923,3.9737,3.9859,4.0014,4.0096,4.0096,4.0096,4.0096,4.0096,4.0096,4.0096,4.0096,4.0096,4.0096,4.0096,4.0096,4.0096,4.0096,4.0096,4.0096,4.0096,4.0096,4.0096,4.0096,4.0096,4.0096,4.0096,4.0096,4.0096,4.0096,4.0096,4.0096,4.0096,4.0096,4.0096,4.0096,4.0096,4.0096,4.0096,4.0096,4.0096,0.0,0.0,0.0,0.0,0.0,0.0,0.0,0.0,0.0,0.0,0.0,0.0,0.0,0.0,0.0,0.0,0.0,0.0,0.0,3.7126,3.6609,3.6268,3.638,3.6305,3.6268,3.6393,3.6393,3.6393,3.6393,3.6393,3.6393,3.6393,3.6393,3.6393,3.6393,3.6808,0.0,3.7047,3.7575,3.7852,3.7852,3.794,3.8365,3.9093,0.0,0.0,3.9766,4.0793,4.1204,4.1136,4.2152,4.3393,4.4676,4.4676,4.4967,4.5374,4.5104,4.425,4.2968,4.1456,4.0258,3.9371,0.0,0.0,0.0,0.0,0.0,0.0,3.56,3.5034,3.4983,3.6062,3.6551,3.722,3.8328,3.9442,4.0096,4.0096,4.0096,4.0096,4.0096,4.0096,4.0096,4.0096,4.0096,4.0096,4.0096,4.0096,4.0096,4.0096,4.0096,4.0096,4.0096,4.0096,4.0096,4.0096,4.0096,4.0096,4.0096,4.0096,4.0096,4.0096,4.0096,4.0096,4.0096,4.0096,4.0096,4.0096,4.0096,4.0096,4.0096,4.0096,4.0096,4.0096,4.0096,4.0354,4.0652,0.0,0.0,0.0,0.0,0.0,0.0,0.0,0.0,0.0,0.0,0.0,0.0,0.0,0.0,3.9387,0.0,0.0,3.7417,3.6841,3.6555,3.6393,3.6393,3.6393,3.6393,3.6393,3.6393,3.6393,3.6393,3.6393,3.6393,3.6393,3.6657,3.6796,3.6796,3.7911,3.854,3.854,3.9095,3.9707,4.0356,3.9993,4.0586,4.2148,4.2148,4.2285,4.2568,4.3218,4.3146,4.2581,4.3218,4.4221,4.5448,4.6084,4.6344,4.6344,4.6344,4.5184,4.3349,4.2058,4.1604,4.1418,0.0,0.0,0.0,0.0,0.0,0.0,0.0,3.5373,3.5543,3.6969,3.7073,3.7562,3.8977,3.9701,4.0096,4.0096,4.0096,4.0096,4.0096,4.0096,4.0096,4.0096,4.0096,4.0096,4.0096,4.0096,4.0096,4.0096,4.0096,4.0096,4.0096,4.0096,4.0096,4.0096,4.0096,4.0096,4.0096,4.0096,4.0096,4.0096,4.0096,4.0096,4.0096,4.0096,4.0096,4.0096,4.0096,4.0096,4.0096,4.0096,4.0096,4.0123,4.0276,4.072,4.1231,4.1373,4.1288,0.0,0.0,0.0,0.0,0.0,0.0,0.0,0.0,0.0,4.0416,4.0425,4.0347,4.003,3.924,3.8369,3.754,3.6849,3.6534,3.6393,3.6393,3.6393,3.6393,3.6393,3.6393,3.6393,3.6393,3.6494,3.665,3.6909,3.743,3.771,3.771,3.9455,4.0326,4.0079,4.0888,4.1818,4.2842,4.2266,4.3002,4.5035,4.5035,4.5035,4.5047,4.5286,4.4838,4.3882,4.4128,4.4815,4.5846,4.6873,4.7309,4.7309,4.7309,4.6051,4.4046,4.2533,4.2461,4.2834,0.0,0.0,0.0,0.0,0.0,0.0,0.0,0.0,3.7088,3.8539,3.8221,3.8399,3.9817,4.0045,4.0096,4.0096,4.0096,4.0096,4.0096,4.0096,4.0096,4.0096,4.0096,4.0096,4.0096,4.0096,4.0096,4.0096,4.0096,4.0096,4.0096,4.0096,4.0096,4.0096,4.0096,4.0096,4.0096,4.0096,4.0096,4.0096,4.0096,4.0096,4.0096,4.0096,4.0096,4.0096,4.0096,4.0096,4.0096,4.0096,4.0096,4.0208,4.0865,4.113,4.1333,4.1982,4.2119,4.1892,4.1114,4.0176,3.9406,3.9406,3.9406,3.9565,0.0,0.0,4.0425,4.0549,3.9774,3.9232,3.9703,3.8049,3.6872,3.7768,3.707,3.6393,3.6393,3.6393,3.6393,3.6393,3.6393,3.6393,3.6393,3.6833,3.7588,3.8712,3.9296,3.9601,3.9601,4.1375,4.1865,4.075,4.2319,4.3276,4.3405,4.3332,4.3432,4.3717,4.3717,4.3717,4.3752,4.4872,4.5309,4.5241,4.6381,4.6964,4.711,4.7229,4.7309,4.7309,4.7309,4.7131,4.6583,4.4163,4.2653,4.1764,0.0,0.0,0.0,0.0,0.0,0.0,0.0,0.0,0.0,3.8164,3.8132,3.8358,3.9301,3.9814,4.0096,4.0096,4.0096,4.0096,4.0096,4.0096,4.0096,4.0096,4.0096,4.0096,4.0096,4.0096,4.0096,4.0096,4.0096,4.0096,4.0096,4.0096,4.0096,4.0096,4.0096,4.0096,4.0096,4.0096,4.0096,4.0096,4.0096,4.0096,4.0096,4.0096,4.0096,4.0096,4.0096,4.0096,0.0,4.0096,4.0394,4.0787,4.1096,4.1789,4.2446,4.2289,4.2533,4.2543,4.1165,4.0109,3.9406,3.9406,3.9699,4.0068,4.0337,4.1005,4.1578,4.1637,4.1025,4.0558,4.0841,3.9558,3.8358,0.0,3.829,3.7952,3.6592,3.7589,3.8321,3.8006,3.8551,3.8701,3.8033,3.809,3.8878,4.0549,4.0529,4.0757,4.1486,4.3273,4.4027,4.348,4.4211,4.4967,4.57,4.4989,4.4989,4.5711,4.5711,4.5711,4.5734,4.6255,4.6502,4.6535,4.7062,4.7309,4.7309,4.7309,4.7309,4.7309,4.7309,4.7309,4.7073,4.5264,4.4745,4.4607,0.0,0.0,0.0,0.0,0.0,0.0,0.0,0.0,0.0,0.0,3.8528,3.8747,3.9176,3.9756,4.0096,4.0096,4.0096,4.0096,4.0096,4.0096,4.0096,4.0096,4.0096,4.0096,4.0096,4.0096,4.0096,4.0096,4.0096,4.0096,4.0096,4.0096,4.0096,4.0096,4.0096,4.0096,4.0096,4.0096,4.0096,4.0096,4.0096,4.0096,4.0096,4.0096,4.0096,4.0096,4.0096,4.0096,4.0096,4.0096,4.0591,4.1231,4.1441,4.2381,4.3337,4.297,4.2893,4.256,4.0809,3.9882,3.9442,3.964,4.0043,4.0502,4.087,4.1697,4.2455,4.2601,4.2089,4.1705,4.2019,4.0873,3.9711,3.9156,3.9522,3.9307,3.7599,3.8975,3.9999,3.9611,4.0751,4.1319,4.0686,4.022,4.067,4.2444,4.2263,4.2467,4.34,4.5019,4.5756,4.5414,4.5745,4.6381,4.7298,4.6381,4.6392,4.7309,4.7309,4.7309,4.7309,4.7309,4.7309,4.7309,4.7309,4.7309,4.7309,4.7309,4.7309,4.7309,4.7309,4.7309,4.7186,4.6255,4.6062,4.5917,0.0,0.0,0.0,0.0,0.0,0.0,0.0,0.0,0.0,0.0,0.0,0.0,0.0,4.0083,4.0096,4.0096,4.0096,4.0096,4.0096,4.0096,4.0096,4.0096,4.0096,4.0096,4.0096,4.0096,4.0096,4.0096,4.0096,4.0096,4.0096,4.0096,4.0096,4.0096,4.0096,4.0096,4.0096,4.0096,4.0096,4.0096,4.0096,4.0096,4.0096,4.0096,4.0096,4.0096,4.0096,4.0096,4.0096,4.0096,4.0591,4.1316,4.2039,4.2794,4.3558,4.4302,4.3348,4.1658,3.9908,3.9409,3.9565,4.0208,4.0382,4.0735,4.2041,4.2366,4.258,4.3145,4.2377,4.1932,4.3046,4.1403,4.0242,4.1326,4.0597,3.9877,3.9801,4.0358,4.0772,4.0755,4.2386,4.3754,0.0,4.331,4.3115,4.4413,4.498,4.5283,4.5329,4.6546,4.6682,4.5437,4.6605,4.7251,4.7309,4.7251,4.7251,4.7309,4.7309,4.7309,4.7309,4.7309,4.7309,4.7309,4.7309,4.7309,4.7309,4.7309,4.7309,4.7309,4.7309,4.7309,4.7309,4.7251,4.57,4.3787,0.0,0.0,0.0,0.0,0.0,0.0,0.0,0.0,0.0,0.0,0.0,0.0,0.0,0.0,0.0,0.0,4.0096,4.0096,4.0096,4.0096,4.0096,4.0096,4.0096,4.0096,4.0096,4.0096,4.0096,4.0096,4.0096,4.0096,4.0096,4.0096,4.0096,4.0096,4.0096,4.0096,4.0096,4.0096,4.0096,4.0096,4.0096,4.0096,4.0096,4.0096,4.0096,4.0096,0.0,4.0096,4.0174,4.0652,4.1322,4.2066,4.2804,4.3572,4.4141,4.3835,4.2496,4.1004,4.0414,4.0171,4.0127,4.0337,4.1064,4.1847,4.2306,4.2711,4.305,4.3255,4.2981,4.286,4.323,4.2664,4.2019,4.1649,4.1906,4.177,4.0652,4.201,4.3178,4.3305,4.4548,0.0,0.0,0.0,0.0,4.6262,4.5775,4.5768,4.6627,4.7062,4.711,4.6671,4.7073,4.7309,4.7309,4.7309,4.7309,4.7309,4.7309,4.7309,4.7309,4.7309,4.7309,4.7309,4.7309,4.7309,4.7309,4.7309,4.7309,4.7309,4.7309,4.7309,4.7309,4.7309,4.6222,4.4815,0.0,0.0,0.0,0.0,0.0,0.0,0.0,0.0,0.0,0.0,0.0,0.0,0.0,0.0,0.0,0.0,0.0,4.0096,4.0096,4.0096,4.0096,4.0096,4.0096,4.0096,4.0096,4.0096,4.0096,4.0096,4.0096,4.0096,4.0096,4.0096,4.0096,4.0096,4.0096,4.0096,4.0096,4.0096,4.0096,4.0096,4.0096,4.0096,4.0096,4.0096,4.0096,0.0,4.0405,4.0489,4.0574,4.1035,4.188,4.2777,4.3254,4.3944,4.4376,4.3184,4.2046,4.103,4.0397,4.0313,4.0457,4.0705,4.1583,4.2461,4.2676,4.302,4.33,4.33,4.33,4.33,4.33,4.33,4.3066,4.233,4.3023,4.3273,4.221,4.3755,4.5063,4.5189,4.6073,4.6835,0.0,0.0,0.0,4.7214,4.6535,4.6436,4.7251,4.7309,4.7309,4.7309,4.7309,4.7309,4.7309,4.7309,4.7309,4.7309,4.7309,4.7309,4.7309,4.7309,4.7309,4.7309,4.7309,4.7309,4.7309,4.7309,4.7309,4.7309,4.7309,4.7309,4.7309,4.7309,4.6785,4.6073,0.0,0.0,0.0,0.0,0.0,0.0,0.0,0.0,0.0,0.0,0.0,0.0,0.0,0.0,0.0,0.0,0.0,0.0,4.0096,4.0096,4.0096,4.0096,4.0096,4.0096,4.0096,4.0096,4.0096,4.0096,4.0096,4.0096,4.0096,4.0096,4.0096,4.0096,4.0096,4.0096,4.0096,4.0096,4.0096,4.0096,4.0096,4.0096,4.0096,4.0096,4.013,4.0242,4.095,4.1248,4.1316,4.1316,4.2236,4.3402,4.3443,4.3922,4.4143,4.2497,4.1973,4.1576,3.9901,3.9939,4.0606,4.1274,4.1952,4.2601,4.3175,4.33,4.33,4.33,4.33,4.33,0.0,0.0,4.33,4.33,4.3863,4.4322,4.4352,4.5478,4.6315,0.0,0.0,0.0,0.0,0.0,0.0,4.7309,0.0,4.7309,4.7309,4.7309,4.7309,4.7309,4.7309,4.7309,4.7309,4.7309,4.7309,4.7309,4.7309,4.7309,4.7309,4.7309,4.7309,4.7309,4.7309,4.7309,4.7309,4.7309,4.7309,4.7309,4.7309,4.7309,4.7309,4.7309,4.7309,4.7309,0.0,0.0,0.0,0.0,0.0,0.0,0.0,0.0,0.0,0.0,0.0,0.0,0.0,0.0,0.0,0.0,0.0,0.0,4.0096,4.0096,4.0096,4.0096,4.0096,4.0096,4.0096,4.0096,4.0096,4.0096,4.0096,4.0096,4.0096,4.0096,4.0096,4.0096,4.0096,4.0096,4.0096,4.0096,4.0096,4.0096,4.0096,4.0096,4.0096,4.0096,4.0438,4.0933,4.113,4.1901,4.2848,4.2848,4.3065,4.3434,4.409,4.3536,4.2583,4.2133,4.1543,4.0901,4.0305,4.0621,4.1313,4.1982,4.2606,4.3115,4.3255,4.33,4.33,4.33,4.33,4.33,0.0,0.0,0.0,4.33,4.3863,0.0,4.4975,4.5773,0.0,4.6984,0.0,4.7309,4.7309,4.7309,0.0,0.0,4.7309,4.7309,4.7309,4.7309,4.7309,4.7309,4.7309,4.7309,4.7309,4.7309,4.7309,4.7309,4.7309,4.7309,4.7309,4.7309,4.7309,4.7309,4.7309,4.7309,4.7309,4.7309,4.7309,4.7309,4.7309,4.7309,4.7309,4.7309,4.7309,4.7309,0.0,0.0,0.0,0.0,0.0,0.0,0.0,0.0,0.0,0.0,0.0,0.0,0.0,0.0,0.0,0.0,0.0,0.0,0.0,4.0096,4.0096,4.0096,4.0096,4.0096,4.0096,4.0096,4.0096,4.0096,4.0096,4.0096,4.0119,4.0331,4.0449,4.0461,4.0726,4.085,4.085,4.085,4.0684,0.0,0.0,4.0311,4.0146,4.0455,4.0838,4.1282,4.1924,4.2922,4.3927,4.3927,4.39,4.3962,4.4457,4.3673,4.2567,4.2567,4.169,4.0742,4.0919,4.1186,4.1553,4.2221,4.2851,4.33,4.33,4.33,4.33,4.33,4.33,4.33,4.33,4.33,0.0,0.0,0.0,0.0,4.5244,4.6132,4.6879,0.0,4.7309,0.0,4.7309,4.7309,4.7309,0.0,4.7309,4.7309,4.7309,4.7309,4.7309,4.7309,4.7309,4.7309,4.7309,4.7309,4.7309,4.7309,4.7309,4.7309,4.7309,4.7309,4.7309,4.7309,0.0,4.7309,4.7309,4.7309,4.7309,4.7309,4.7309,4.7309,4.7309,4.7309,4.7309,4.7309,0.0,0.0,0.0,0.0,0.0,0.0,0.0,0.0,0.0,0.0,0.0,0.0,0.0,0.0,0.0,0.0,0.0,0.0,0.0,0.0,4.0096,4.0096,4.0096,4.0096,4.0096,4.0096,4.0096,4.0096,4.0096,4.0096,4.0108,4.0649,4.0897,4.0926,4.1529,4.1805,4.1805,4.1805,4.1452,4.0897,4.0897,4.0583,4.0174,0.0,4.1265,4.1542,4.3034,4.4019,4.4608,4.4608,4.4521,4.4457,4.4563,4.3916,4.3146,4.3268,4.2126,4.0985,4.1647,4.1696,4.1688,4.2356,4.291,4.33,4.33,4.33,4.33,4.33,4.33,4.33,4.33,4.33,4.3329,4.3419,0.0,4.5334,4.5424,4.6516,4.7309,4.7309,4.7309,4.7309,4.7309,4.7309,4.7309,4.7309,4.7309,4.7309,4.7309,4.7309,4.7309,4.7309,4.7309,4.7309,4.7309,4.7309,4.7309,4.7309,4.7309,4.7309,4.7309,4.7309,4.7309,4.7309,0.0,0.0,4.7309,4.7309,4.7309,4.7309,4.7309,4.7309,4.7309,4.7309,4.7309,4.7309,0.0,0.0,0.0,0.0,0.0,0.0,0.0,0.0,0.0,0.0,4.0096,0.0,0.0,0.0,0.0,0.0,0.0,0.0,0.0,0.0,0.0,4.0096,4.0096,4.0096,4.0096,4.0096,4.0096,4.0096,4.0096,4.0096,4.0108,4.0649,4.0897,4.0926,4.1529,4.1805,4.1805,4.1805,4.1452,4.0897,4.0897,4.0583,4.0174,4.0916,0.0,0.0,4.3839,4.4489,4.4608,4.4608,4.4114,4.3643,4.4376,4.3515,4.2379,4.3093,4.2462,4.1669,4.2333,4.2382,4.2371,4.299,4.321,4.33,4.33,4.33,0.0,4.33,4.33,4.33,4.33,4.33,4.3479,4.4042,4.4796,4.5484,4.6057,4.6805,4.7309,0.0,4.7309,4.7309,0.0,0.0,0.0,0.0,0.0,4.7309,4.7309,4.7309,4.7309,4.7309,4.7309,4.7309,4.7309,4.7309,4.7309,4.7309,4.7309,4.7309,4.7309,4.7309,4.7309,4.7309,4.7309,0.0,4.7309,4.7309,4.7309,4.7309,4.7309,4.7309,4.7309,4.7309,4.7309,4.7309,0.0,0.0,0.0,0.0,0.0,0.0,0.0,0.0,0.0,4.0096,4.0096,4.0096,0.0,0.0,0.0,0.0,0.0,0.0,0.0,0.0,0.0,4.0096,4.0096,4.0096,4.0096,4.0096,4.0096,4.0096,0.0,4.0248,4.0539,4.1093,4.1534,4.1869,4.2421,4.2678,4.2678,4.2678,4.2172,4.1374,4.1374,4.0862,4.0225,4.1352,0.0,0.0,4.4337,4.4608,4.4608,4.4608,4.4327,4.4049,4.4478,4.3717,4.2847,4.3717,4.2904,4.2049,4.3673,4.3274,4.2662,4.3799,4.3698,4.33,4.33,4.33,4.33,4.33,4.33,4.33,4.33,4.33,4.3524,4.4202,4.487,4.5529,4.6211,4.6879,4.7309,4.7309,4.7309,4.7309,0.0,0.0,0.0,0.0,0.0,4.7309,4.7309,4.7309,4.7309,4.7309,4.7309,4.7309,4.7309,4.7309,4.7309,4.7309,4.7309,4.7309,4.7309,4.7309,4.7309,4.7309,4.7309,0.0,4.7309,4.7309,4.7309,4.7309,4.7309,4.7309,4.7309,4.7309,4.7309,4.7309,0.0,0.0,0.0,0.0,0.0,0.0,0.0,4.0096,4.0096,4.0096,4.0096,4.0096,4.0096,4.0096,4.0096,0.0,0.0,0.0,0.0,0.0,0.0,0.0,0.0,0.0,4.0096,0.0,0.0,4.0096,4.0217,0.0,0.0,0.0,0.0,0.0,4.3254,4.3506,4.3506,4.3506,4.2917,0.0,0.0,4.1297,0.0,0.0,0.0,0.0,0.0,4.4608,4.4608,4.4608,4.4608,4.4608,4.4608,4.4138,4.3702,4.4398,4.3607,4.2919,4.4877,4.4182,4.3222,4.4475,4.4037,4.33,4.33,4.33,4.33,4.33,4.33,4.33,4.33,4.33,4.3579,4.4381,4.496,4.5589,4.639,4.6969,4.7309,0.0,4.7309,0.0,4.7309,0.0,0.0,0.0,0.0,0.0,4.7309,4.7309,4.7309,4.7309,4.7309,4.7309,4.7309,4.7309,4.7309,4.7309,4.7309,4.7309,4.7309,4.7309,4.7309,4.7309,4.7309,0.0,0.0,4.7309,4.7309,4.7309,4.7309,4.7309,4.7309,4.7309,4.7309,4.7309,0.0,0.0,0.0,0.0,0.0,0.0,0.0,4.0096,4.0096,4.0096,4.0096,4.0096,4.0096,4.0096,4.0096,0.0,0.0,0.0,0.0,0.0,0.0,0.0,0.0,0.0,0.0,0.0,0.0,4.0096,4.0595,0.0,0.0,0.0,0.0,0.0,0.0,4.3506,4.3506,4.3506,0.0,0.0,0.0,0.0,0.0,0.0,0.0,0.0,0.0,4.4608,4.4608,4.4608,4.4608,4.4608,4.4608,4.4542,4.4499,4.4577,4.4827,4.5102,4.5343,4.4999,4.4613,4.4759,4.4037,4.33,4.33,4.33,4.33,4.33,4.33,4.33,4.33,4.33,4.3718,4.5005,4.5259,4.5738,4.704,4.7253,4.7309,4.7309,0.0,0.0,4.7309,0.0,0.0,0.0,0.0,0.0,4.7309,4.7309,4.7309,4.7309,4.7309,4.7309,4.7309,4.7309,4.7309,4.7309,4.7309,4.7309,4.7309,4.7309,4.7309,4.7309,4.7309,0.0,0.0,4.7309,4.7309,4.7309,4.7309,4.7309,4.7309,4.7309,4.7309,4.7309,0.0,0.0,0.0,0.0,0.0,0.0,0.0,4.0096,4.0096,4.0096,4.0096,4.0096,4.0096,4.0096,4.0096,0.0,0.0,0.0,0.0,0.0,0.0,0.0,0.0,0.0,0.0,0.0,0.0,4.0096,0.0,0.0,0.0,0.0,0.0,0.0,0.0,4.3506,4.347,4.316,0.0,0.0,0.0,0.0,0.0,0.0,0.0,0.0,0.0,0.0,4.4608,4.4608,4.4608,4.4608,4.4608,4.4905,4.5169,4.4726,4.5291,4.6087,4.6212,4.5945,4.5643,4.5643,4.4921,4.4037,4.3438,4.33,4.33,4.33,4.33,4.33,4.33,4.33,4.3743,4.508,4.53,4.5768,4.7115,4.7309,4.7309,4.7309,4.7309,0.0,0.0,0.0,0.0,0.0,0.0,0.0,4.7309,4.7309,4.7309,4.7309,4.7309,4.7309,4.7309,4.7309,4.7309,4.7309,4.7309,4.7309,4.7309,4.7309,4.7309,4.7309,4.7309,0.0,0.0,4.7309,4.7309,4.7309,4.7309,4.7309,4.7309,4.7309,4.7309,4.7309,0.0,0.0,0.0,0.0,0.0,0.0,4.0096,4.0096,4.0096,4.0096,4.0096,4.0096,4.0096,4.0096,4.0096,4.0096,0.0,0.0,0.0,0.0,0.0,0.0,0.0,0.0,0.0,0.0,0.0,0.0,0.0,0.0,0.0,0.0,0.0,0.0,0.0,0.0,0.0,0.0,0.0,0.0,0.0,0.0,0.0,0.0,0.0,0.0,0.0,0.0,0.0,0.0,0.0,4.4608,4.4608,4.5101,4.5594,4.5074,4.5865,4.693,4.7085,4.6868,4.6601,4.6601,4.5697,4.4605,4.3907,4.3502,4.33,4.33,4.33,4.33,4.33,4.33,4.3743,4.508,4.53,4.5768,4.7115,4.7309,4.7309,4.7309,0.0,0.0,0.0,0.0,0.0,0.0,0.0,0.0,0.0,4.7309,4.7309,4.7309,4.7309,4.7309,4.7309,4.7309,4.7309,4.7309,4.7309,4.7309,4.7309,4.7309,4.7309,4.7309,0.0,0.0,0.0,4.7309,4.7309,4.7309,4.7309,4.7309,4.7309,4.7309,4.7309,4.7309,0.0,0.0,0.0,0.0,0.0,0.0,0.0,4.0096,4.0096,4.0096,4.0096,4.0096,4.0096,4.0096,4.0096,4.0096,0.0,0.0,0.0,0.0,0.0,0.0,0.0,0.0,0.0,0.0,0.0,0.0,0.0,0.0,0.0,0.0,0.0,0.0,0.0,0.0,0.0,0.0,0.0,0.0,0.0,0.0,4.1011,0.0,0.0,0.0,0.0,0.0,0.0,0.0,0.0,0.0,0.0,4.5101,4.5696,4.5696,4.6737,4.7889,4.7896,4.773,4.7589,4.7589,4.6188,4.4803,4.4784,4.4008,4.33,4.33,4.33,4.33,4.33,4.33,4.3743,4.508,4.53,4.5768,4.7115,4.7309,4.7309,0.0,0.0,0.0,0.0,0.0,0.0,0.0,0.0,0.0,0.0,4.7309,4.7309,4.7309,4.7309,4.7309,4.7309,4.7309,4.7309,4.7309,4.7309,4.7309,4.7309,4.7309,4.7309,0.0,0.0,0.0,0.0,4.7309,4.7309,4.7309,4.7309,4.7309,4.7309,4.7309,4.7309,4.7309,0.0,0.0,0.0,0.0,0.0,0.0,0.0,4.0096,4.0096,4.0096,4.0096,4.0096,4.0096,4.0096,4.0096,4.0096,0.0,0.0,0.0,0.0,0.0,0.0,0.0,0.0,0.0,0.0,0.0,0.0,0.0,0.0,0.0,0.0,0.0,0.0,0.0,0.0,0.0,0.0,0.0,0.0,0.0,4.1218,4.0495,0.0,0.0,0.0,0.0,0.0,0.0,0.0,0.0,0.0,0.0,0.0,0.0,4.6295,4.7133,4.7896,4.7896,4.8227,4.8401,4.777,4.7155,4.639,4.5079,4.4548,4.4124,4.3433,4.33,4.33,4.33,4.33,4.3743,4.508,4.53,4.5768,4.7115,4.7309,0.0,4.7309,4.7309,0.0,0.0,0.0,0.0,0.0,0.0,0.0,0.0,4.7309,4.7309,4.7309,4.7309,4.7309,4.7309,4.7309,4.7309,4.7309,4.7309,4.7309,4.7309,4.7309,0.0,0.0,0.0,0.0,0.0,4.7309,4.7309,4.7309,4.7309,4.7309,4.7309,4.7309,4.7309,4.7309,0.0,0.0,0.0,0.0,0.0,0.0,0.0,4.0096,4.0096,4.0096,4.0096,4.0096,4.0096,4.0096,4.0173,4.0386,0.0,0.0,0.0,0.0,0.0,0.0,0.0,0.0,0.0,0.0,0.0,0.0,0.0,0.0,0.0,0.0,0.0,0.0,0.0,0.0,0.0,0.0,0.0,0.0,4.1402,4.0914,4.0225,0.0,0.0,0.0,0.0,0.0,0.0,0.0,0.0,0.0,0.0,0.0,0.0,0.0,4.7124,4.7607,4.8157,4.8655,4.8861,4.8265,4.786,4.7205,4.5679,4.5042,4.451,4.3502,4.33,4.33,4.33,4.33,4.3743,4.508,4.53,4.5768,4.7115,4.7309,0.0,4.7309,0.0,0.0,0.0,0.0,0.0,0.0,0.0,0.0,0.0,4.7309,4.7309,4.7309,4.7309,4.7309,4.7309,4.7309,4.7309,4.7309,4.7309,4.7309,4.7309,4.7309,0.0,0.0,0.0,0.0,0.0,4.7309,4.7309,4.7309,4.7309,4.7309,4.7309,4.7309,4.7309,4.7309,0.0,0.0,0.0,0.0,0.0,0.0,0.0,0.0,0.0,0.0,4.0096,4.0096,4.0096,4.0133,4.0356,0.0,0.0,0.0,0.0,0.0,0.0,0.0,0.0,0.0,0.0,4.3009,0.0,4.3506,4.3506,4.3506,4.3506,0.0,0.0,0.0,0.0,0.0,0.0,0.0,0.0,0.0,4.1133,4.0583,0.0,0.0,0.0,0.0,0.0,0.0,0.0,0.0,0.0,0.0,0.0,0.0,0.0,0.0,0.0,0.0,0.0,4.896,4.8994,4.8994,4.8346,4.7431,4.6427,4.5525,0.0,4.3522,4.33,4.33,4.33,4.3344,4.3793,4.5095,4.5334,4.5828,4.7119,4.7309,0.0,0.0,0.0,0.0,0.0,0.0,0.0,0.0,0.0,0.0,0.0,4.7309,4.7309,4.7309,4.7309,4.7309,4.7309,4.7309,4.7309,4.7309,4.7309,4.7309,4.7309,4.7309,0.0,0.0,0.0,0.0,0.0,4.7309,4.7309,4.7309,4.7309,4.7309,4.7309,4.7309,4.7309,4.7309,0.0,0.0,0.0,0.0,0.0,0.0,0.0,0.0,0.0,0.0,4.0096,4.0096,4.0096,4.0467,4.0756,0.0,0.0,0.0,0.0,0.0,0.0,0.0,0.0,0.0,0.0,4.3383,4.3379,4.3506,4.3506,4.3506,4.3506,4.3506,0.0,4.3506,4.3506,0.0,0.0,0.0,0.0,0.0,4.0955,4.0583,0.0,0.0,0.0,0.0,4.3142,4.3927,0.0,0.0,0.0,0.0,0.0,0.0,0.0,0.0,4.6363,4.6996,4.7904,0.0,4.8994,4.8994,4.8829,4.8233,0.0,4.603,4.5372,4.3664,4.33,4.33,4.33,4.3718,4.4337,4.518,4.5728,4.6345,4.7179,4.7309,0.0,0.0,0.0,0.0,0.0,0.0,0.0,0.0,0.0,0.0,0.0,4.7309,4.7309,4.7309,4.7309,4.7309,4.7309,4.7309,4.7309,4.7309,4.7309,4.7309,4.7309,4.7309,0.0,0.0,0.0,0.0,4.7309,4.7309,4.7309,4.7309,4.7309,4.7309,4.7309,4.7309,4.7309,4.7309,0.0,0.0,0.0,0.0,0.0,0.0,0.0,0.0,0.0,0.0,0.0,0.0,0.0,0.0,0.0,0.0,0.0,0.0,0.0,0.0,0.0,0.0,0.0,0.0,0.0,4.3506,4.3506,4.3506,4.3506,4.3506,4.3506,4.3506,4.3506,4.3506,4.3506,0.0,0.0,0.0,0.0,4.1268,4.0744,0.0,0.0,0.0,0.0,0.0,4.2753,4.3629,0.0,4.4608,4.4608,4.4608,0.0,0.0,0.0,0.0,4.621,4.6962,4.7701,4.8436,4.8994,4.8994,4.8994,4.8513,4.6635,4.62,4.5647,4.3698,4.33,4.3379,4.3688,4.4067,4.4621,4.5593,4.6061,4.6525,4.7219,0.0,0.0,0.0,0.0,0.0,0.0,0.0,0.0,0.0,0.0,0.0,0.0,4.7309,4.7309,4.7309,4.7309,4.7309,4.7309,4.7309,4.7309,4.7309,4.7309,4.7309,4.7309,4.7309,4.7309,0.0,0.0,0.0,4.7309,4.7309,4.7309,4.7309,4.7309,4.7309,4.7309,4.7309,4.7309,4.7309,0.0,0.0,0.0,0.0,0.0,0.0,0.0,0.0,0.0,0.0,0.0,0.0,0.0,0.0,0.0,0.0,0.0,0.0,0.0,0.0,0.0,0.0,0.0,0.0,4.3506,4.3506,4.3506,4.3506,4.3506,4.3506,4.3506,4.3506,4.3506,4.3506,4.3506,0.0,0.0,0.0,0.0,4.1578,4.0612,0.0,0.0,0.0,0.0,0.0,0.0,0.0,0.0,4.4608,4.4608,4.4608,4.4608,0.0,0.0,0.0,0.0,0.0,4.7566,4.8351,4.8994,4.8994,4.8994,4.8513,4.6635,4.62,4.5647,4.3698,4.33,4.3494,4.4187,4.4381,4.486,4.6106,4.639,0.0,4.7223,0.0,0.0,0.0,0.0,0.0,0.0,0.0,0.0,0.0,0.0,0.0,0.0,4.7309,4.7309,4.7309,4.7309,4.7309,4.7309,4.7309,4.7309,4.7309,4.7309,4.7309,4.7309,4.7309,4.7309,0.0,0.0,0.0,4.7309,4.7309,4.7309,4.7309,4.7309,4.7309,4.7309,4.7309,4.7309,4.7309,0.0,0.0,0.0,0.0,0.0,0.0,0.0,0.0,0.0,0.0,0.0,0.0,0.0,0.0,0.0,0.0,0.0,0.0,0.0,0.0,0.0,0.0,4.3506,4.3506,4.3506,4.3506,4.3506,4.3506,4.3506,4.3506,4.3506,4.3506,4.3506,4.3506,4.3506,0.0,0.0,0.0,0.0,4.1024,4.085,0.0,0.0,0.0,0.0,0.0,0.0,0.0,0.0,4.4608,4.4608,4.4608,4.4608,0.0,0.0,0.0,0.0,0.0,4.6945,4.7953,4.8994,4.8994,4.8994,4.8513,4.6635,4.62,4.5647,4.3698,4.33,4.3494,4.4187,4.4755,4.5409,0.0,0.0,0.0,0.0,0.0,0.0,0.0,0.0,0.0,0.0,0.0,0.0,0.0,0.0,0.0,0.0,4.7309,4.7309,4.7309,4.7309,4.7309,4.7309,4.7309,4.7309,4.7309,4.7309,4.7309,4.7309,4.7309,4.7309,0.0,0.0,4.7309,4.7309,4.7309,4.7309,4.7309,4.7309,4.7309,4.7309,4.7309,4.7309,4.7309,0.0,0.0,0.0,0.0,0.0,0.0,0.0,0.0,0.0,0.0,0.0,0.0,0.0,0.0,0.0,0.0,0.0,0.0,0.0,0.0,0.0,0.0,4.3506,4.3506,4.3506,4.3506,4.3506,4.3506,4.3506,4.3506,4.3506,4.3506,4.3506,4.3506,4.3506,4.3201,4.2706,0.0,0.0,4.1363,0.0,0.0,0.0,0.0,0.0,0.0,0.0,0.0,0.0,0.0,4.4608,4.4608,4.4608,0.0,0.0,0.0,0.0,0.0,4.6793,4.7885,4.8994,4.8994,4.8616,4.7885,4.6506,4.5807,4.5036,4.361,4.3584,4.4042,4.4721,0.0,4.6057,4.673,0.0,0.0,0.0,0.0,0.0,0.0,0.0,0.0,0.0,0.0,0.0,0.0,0.0,0.0,0.0,0.0,4.7309,4.7309,4.7309,4.7309,4.7309,4.7309,4.7309,4.7309,4.7309,4.7309,4.7309,4.7309,4.7309,4.7309,0.0,4.7309,4.7309,4.7309,4.7309,4.7309,4.7309,4.7309,4.7309,4.7309,4.7309,4.7354,0.0,0.0,0.0,0.0,0.0,0.0,0.0,0.0,0.0,0.0,0.0,0.0,0.0,0.0,0.0,0.0,0.0,0.0,0.0,0.0,4.3506,4.3506,4.3506,4.3506,4.3506,4.3506,4.3506,4.3506,4.3506,4.3506,4.3506,4.3506,4.3506,4.3506,4.3506,4.3268,4.2888,4.2888,4.2467,4.175,0.0,0.0,0.0,0.0,0.0,0.0,0.0,0.0,0.0,0.0,0.0,0.0,0.0,0.0,0.0,4.4811,4.5785,4.6844,4.7013,4.8003,4.8994,4.8994,4.8457,4.7622,4.6462,4.5652,4.4818,4.3747,4.3938,4.4561,4.5369,4.6087,0.0,0.0,0.0,0.0,0.0,0.0,0.0,0.0,0.0,0.0,0.0,0.0,0.0,0.0,0.0,0.0,0.0,0.0,4.7309,4.7309,4.7309,4.7309,4.7309,4.7309,4.7309,4.7309,4.7309,4.7309,4.7309,4.7309,4.7309,4.7309,4.7309,4.7309,4.7309,4.7309,4.7309,4.7309,4.7309,4.7309,4.7309,4.7309,4.7399,4.7608,0.0,0.0,0.0,0.0,0.0,0.0,0.0,0.0,0.0,0.0,0.0,0.0,0.0,0.0,0.0,0.0,0.0,0.0,0.0,0.0,4.3506,4.3506,4.3506,4.3506,4.3506,4.3506,4.3506,4.3506,4.3506,4.3506,4.3506,4.3506,4.3506,4.3506,4.3506,4.347,4.3436,0.0,4.28,4.1805,4.1745,0.0,0.0,0.0,0.0,0.0,0.0,0.0,0.0,0.0,0.0,0.0,0.0,0.0,4.4736,4.5415,4.6177,4.6955,4.7633,4.8402,4.8994,4.8994,4.8955,4.8425,4.6601,4.6147,4.5737,4.4488,0.0,0.0,0.0,4.679,0.0,0.0,0.0,0.0,0.0,0.0,0.0,0.0,0.0,0.0,0.0,0.0,0.0,0.0,0.0,0.0,0.0,0.0,0.0,4.7309,4.7309,4.7309,4.7309,4.7309,4.7309,4.7309,4.7309,4.7309,4.7309,4.7309,4.7309,4.7309,4.7309,4.7309,4.7309,4.7309,4.7309,4.7309,4.7309,4.7309,4.7309,4.7309,4.7698,4.8233,0.0,0.0,0.0,0.0,0.0,0.0,0.0,0.0,0.0,0.0,0.0,0.0,0.0,0.0,0.0,0.0,0.0,0.0,0.0,0.0,4.3506,4.3506,4.3506,4.3506,4.3506,4.3506,4.3506,4.3506,4.3506,4.3506,4.3506,4.3506,4.3506,4.3506,4.3506,4.3506,4.347,0.0,4.2536,4.1773,4.1397,4.1061,0.0,0.0,0.0,0.0,0.0,0.0,0.0,0.0,4.4608,4.4608,4.4608,4.4608,4.4736,4.5483,4.621,4.6962,4.7701,4.8436,4.8994,4.8994,4.8994,4.8513,4.6635,4.6034,4.559,4.4519,4.4954,0.0,0.0,0.0,0.0,0.0,0.0,0.0,0.0,0.0,0.0,0.0,0.0,0.0,0.0,0.0,0.0,0.0,0.0,0.0,0.0,0.0,0.0,4.7309,4.7309,4.7309,4.7309,4.7309,4.7309,4.7309,4.7309,4.7309,4.7309,4.7309,4.7309,4.7309,4.7309,4.7309,4.7309,4.7309,4.7309,4.7309,4.7309,4.7309,4.7354,4.7769,4.8083,4.8412,0.0,0.0,0.0,0.0,0.0,0.0,0.0,0.0,0.0,0.0,0.0,0.0,0.0,0.0,0.0,0.0,0.0,0.0,0.0,4.3506,4.3506,4.3506,4.3506,4.3506,4.3506,4.3506,4.3506,4.3506,4.3506,4.341,4.325,4.3418,4.3506,4.3506,4.3506,4.3506,4.3484,0.0,0.0,4.2138,4.1924,4.1728,0.0,0.0,0.0,0.0,0.0,0.0,0.0,0.0,4.4608,4.4608,4.4608,4.4608,4.4787,4.5761,4.6404,4.7013,4.7971,4.8622,4.8994,4.8994,4.8994,4.8556,4.6899,4.634,4.5873,4.483,4.5683,4.676,0.0,0.0,0.0,0.0,0.0,0.0,0.0,0.0,0.0,0.0,0.0,0.0,0.0,0.0,0.0,0.0,0.0,0.0,0.0,0.0,0.0,0.0,4.8282,4.8282,4.8282,4.8282,4.8282,4.8282,4.8282,4.7945,4.7309,4.7309,4.7309,4.7309,4.7309,4.7309,4.7309,4.7309,4.7309,4.7309,4.7309,4.7429,4.7668,4.8128,4.8551,4.9019,0.0,0.0,0.0,0.0,0.0,0.0,0.0,0.0,0.0,0.0,0.0,0.0,0.0,0.0,0.0,0.0,0.0,0.0,0.0,4.3506,4.3506,4.3506,4.3506,4.3506,4.351,4.3524,4.3524,4.351,4.3524,4.3246,4.2744,4.3268,4.3524,4.3524,4.3524,4.3524,4.3524,0.0,0.0,0.0,4.3642,4.3278,0.0,0.0,0.0,0.0,0.0,0.0,0.0,0.0,4.4608,4.4608,4.4608,4.4608,4.4895,4.6377,4.6793,4.7114,4.8595,4.8994,4.8994,4.8994,4.8994,0.0,4.7485,4.7223,4.6854,4.5591,4.6377,4.7309,4.7309,0.0,0.0,0.0,0.0,0.0,0.0,0.0,0.0,0.0,0.0,0.0,0.0,0.0,0.0,0.0,0.0,0.0,0.0,0.0,0.0,0.0,5.0397,5.0397,5.0397,5.0397,5.0397,5.0397,5.0397,4.9327,4.7331,4.7331,4.7305,4.7305,4.7294,4.7309,4.7309,4.7309,4.7309,4.7309,4.7298,4.7724,4.8293,4.8308,4.9108,5.0207,0.0,0.0,0.0,0.0,0.0,0.0,0.0,0.0,0.0,0.0,0.0,0.0,0.0,0.0,0.0,0.0,0.0,0.0,0.0,4.3506,4.3506,4.3506,4.3506,4.3759,4.4337,4.4892,4.4911,4.4337,4.4911,4.5118,4.4944,4.5104,4.519,4.519,4.519,0.0,4.5168,0.0,0.0,4.4422,4.4201,4.3985,0.0,0.0,0.0,0.0,0.0,0.0,0.0,0.0,0.0,0.0,4.4608,4.4608,4.4895,4.6377,4.6793,4.7114,4.8595,4.8994,4.8994,4.8994,0.0,0.0,0.0,4.8616,0.0,0.0,4.7519,4.7309,4.7309,0.0,0.0,0.0,0.0,0.0,0.0,0.0,0.0,0.0,0.0,0.0,0.0,0.0,0.0,0.0,0.0,0.0,0.0,0.0,0.0,0.0,5.0397,5.0397,5.0397,5.0397,5.0397,5.0397,5.0397,5.0083,4.9452,4.8702,4.8366,4.8325,4.7609,4.7309,4.7309,4.7309,4.7309,4.7354,4.7818,4.8128,4.8412,4.9318,4.989,5.0267,0.0,0.0,0.0,0.0,0.0,0.0,0.0,0.0,0.0,0.0,0.0,0.0,0.0,0.0,0.0,0.0,0.0,0.0,0.0,0.0,4.3506,4.3506,4.3814,4.4342,4.5163,4.5971,4.6131,4.5649,4.5824,4.5792,4.5582,4.5801,4.5902,4.5902,4.5902,4.5902,4.5883,4.5553,4.5469,4.5529,4.5395,4.5147,4.4883,0.0,0.0,0.0,0.0,0.0,0.0,0.0,0.0,0.0,4.4608,4.4804,4.5277,4.6455,4.7013,4.7488,4.868,4.8994,4.8994,4.8994,4.8994,4.9115,4.9592,0.0,0.0,0.0,0.0,4.7775,0.0,0.0,0.0,0.0,0.0,0.0,0.0,0.0,0.0,0.0,0.0,0.0,0.0,0.0,0.0,0.0,0.0,0.0,0.0,0.0,0.0,0.0,5.1638,5.1638,5.1638,5.1638,5.1638,5.1638,5.1638,5.1638,5.1576,5.0116,4.9195,4.8733,4.7732,4.7309,4.7309,4.7309,4.7459,4.7743,4.8143,4.8611,4.9153,4.9923,5.0372,5.0667,0.0,0.0,0.0,0.0,0.0,0.0,0.0,0.0,0.0,0.0,0.0,0.0,0.0,0.0,0.0,0.0,0.0,0.0,0.0,0.0,4.3506,4.3506,4.4342,4.5181,4.5993,4.6805,4.7204,4.7204,4.6484,4.5876,4.5402,4.589,4.6122,4.6122,4.6122,4.6122,4.6122,4.6122,4.6216,4.6437,4.6982,4.6579,4.5795,4.6949,0.0,0.0,0.0,0.0,0.0,0.0,0.0,0.0,4.4608,4.5101,4.5831,4.659,4.7319,4.8056,4.8791,4.8994,4.8994,4.8994,4.9095,0.0,5.0897,5.0461,4.9625,4.907,0.0,0.0,0.0,0.0,0.0,0.0,0.0,0.0,0.0,0.0,0.0,0.0,0.0,0.0,0.0,0.0,0.0,0.0,0.0,0.0,0.0,0.0,0.0,5.3492,5.3492,5.3492,5.3492,5.3492,5.3492,0.0,5.3492,5.3492,5.3433,5.1438,4.9901,4.8743,4.7823,4.7381,4.7309,4.7369,4.7743,4.8308,4.8427,4.9183,5.0207,5.0267,5.0682,5.1191,0.0,0.0,0.0,0.0,0.0,0.0,0.0,0.0,0.0,0.0,0.0,0.0,0.0,0.0,0.0,0.0,0.0,0.0,0.0,0.0,4.3506,4.3506,4.4878,4.6026,4.6824,4.7636,4.8039,4.8039,4.7879,4.7717,4.7607,4.7721,4.7787,4.7787,4.7787,4.7787,4.7787,4.7787,4.7817,4.7867,4.7996,4.7626,4.7028,4.7299,4.6525,0.0,0.0,0.0,0.0,0.0,0.0,0.0,4.4608,4.5101,4.5831,4.659,4.7319,4.8056,4.8791,4.8994,4.8994,4.8994,4.9873,5.0812,5.1133,5.1942,5.2137,5.0413,0.0,0.0,0.0,0.0,0.0,0.0,0.0,0.0,0.0,0.0,0.0,0.0,0.0,0.0,0.0,0.0,0.0,0.0,0.0,0.0,0.0,0.0,0.0,5.3492,5.3492,5.3492,5.3492,5.3492,5.3492,0.0,5.3492,5.3492,5.3458,5.217,5.0563,4.8784,4.8563,4.803,4.7339,4.7874,4.8173,4.8397,4.9407,4.9953,5.0267,5.0787,5.1071,5.1191,0.0,0.0,0.0,0.0,0.0,0.0,0.0,0.0,0.0,0.0,0.0,0.0,0.0,0.0,0.0,0.0,0.0,0.0,0.0,0.0,0.0,4.4621,4.5824,4.6847,4.7654,4.8095,4.8301,4.8301,4.8301,0.0,0.0,0.0,0.0,4.8301,4.8301,4.8301,4.8301,4.8301,4.8301,4.8301,4.8301,4.7937,4.7428,4.7726,4.7038,4.5971,4.6293,0.0,0.0,0.0,0.0,0.0,0.0,0.0,4.6295,4.6691,4.7581,4.852,4.89,4.8994,4.9078,4.9441,0.0,5.1286,5.1649,5.2647,5.305,5.1449,0.0,0.0,0.0,0.0,0.0,0.0,0.0,0.0,0.0,0.0,0.0,0.0,0.0,0.0,0.0,0.0,0.0,0.0,0.0,0.0,0.0,5.3492,5.3492,5.3492,5.3492,5.3492,5.3492,5.3492,5.3492,5.3492,5.3492,5.3492,5.3467,5.2391,5.1313,5.022,4.9235,4.8507,4.8023,4.8212,4.8498,4.8873,4.983,5.0401,5.0715,5.1071,5.1191,5.1191,0.0,0.0,0.0,0.0,0.0,0.0,0.0,0.0,0.0,0.0,0.0,0.0,0.0,0.0,0.0,0.0,0.0,0.0,0.0,0.0,0.0,0.0,4.6732,4.7484,4.8283,4.8301,4.8301,4.8301,0.0,0.0,0.0,0.0,0.0,4.8147,0.0,4.8196,4.8301,4.8301,4.8301,4.8301,4.8301,4.7992,4.7609,4.8104,4.7575,4.6647,4.7199,4.6971,4.6312,4.5694,0.0,0.0,0.0,0.0,4.6954,4.6982,4.7936,4.8994,4.8994,4.8994,4.9154,4.9753,5.0557,0.0,5.197,5.2841,5.3247,5.2356,0.0,0.0,0.0,0.0,0.0,0.0,0.0,0.0,0.0,0.0,0.0,0.0,0.0,0.0,0.0,0.0,0.0,0.0,0.0,0.0,5.3492,5.3492,5.3492,5.3492,5.3492,5.3492,5.3492,5.3492,5.3492,5.3492,5.3492,5.3492,5.3467,5.2583,5.2082,5.1787,4.9905,4.904,4.8944,4.8613,4.8858,4.9516,5.0129,5.0701,5.1191,5.1191,5.1191,5.1191,0.0,0.0,0.0,0.0,0.0,0.0,0.0,0.0,0.0,0.0,0.0,0.0,0.0,0.0,0.0,0.0,0.0,0.0,0.0,0.0,0.0,0.0,4.7039,4.7484,4.8283,4.8301,4.8301,4.8301,0.0,0.0,0.0,0.0,0.0,4.7525,0.0,0.0,4.8301,4.8301,4.8301,4.8301,4.8301,4.8258,4.8186,4.8272,4.7877,4.7288,4.7369,4.6971,4.6312,4.5694,4.5858,0.0,0.0,0.0,4.7606,4.7718,4.8351,4.8994,4.8994,4.8994,4.9018,4.9112,5.017,5.1235,0.0,0.0,5.3458,0.0,0.0,0.0,0.0,0.0,0.0,0.0,0.0,0.0,0.0,0.0,0.0,0.0,0.0,0.0,0.0,0.0,0.0,0.0,0.0,0.0,5.3492,5.3492,5.3492,5.3492,5.3492,5.3492,5.3492,5.3492,5.3492,5.3492,5.3492,5.3492,5.3509,5.3357,5.2775,5.1849,5.0684,5.0002,4.9645,4.9293,4.9535,5.0144,5.0802,5.1116,5.1191,5.1191,5.1191,5.1191,0.0,0.0,0.0,0.0,0.0,0.0,0.0,0.0,0.0,0.0,0.0,0.0,0.0,0.0,0.0,4.3506,4.3506,4.369,4.414,4.5342,0.0,0.0,4.7521,4.7948,4.8296,4.8301,4.8301,4.8301,0.0,0.0,0.0,4.7512,4.7583,0.0,0.0,0.0,0.0,4.8301,4.8301,4.8301,4.8301,4.8301,4.8301,4.8301,4.8142,4.7907,0.0,0.0,0.0,4.6774,4.703,4.7463,4.6518,0.0,0.0,0.0,4.8419,4.8994,4.8994,4.8994,4.9103,4.9509,5.0414,5.1302,5.1716,5.2697,5.3492,0.0,0.0,0.0,0.0,0.0,0.0,0.0,0.0,0.0,0.0,0.0,0.0,0.0,0.0,0.0,0.0,0.0,0.0,0.0,0.0,5.3492,5.3492,5.3492,5.3492,5.3492,5.3492,5.3492,5.3492,5.3492,5.3492,5.3492,5.3492,5.3492,5.3492,5.3492,5.3247,5.2722,5.149,5.086,5.0652,5.0051,4.9949,5.0267,5.0936,5.1191,5.1191,5.1191,5.1191,5.1191,0.0,0.0,0.0,0.0,0.0,0.0,0.0,0.0,0.0,0.0,0.0,0.0,0.0,0.0,0.0,0.0,4.3795,4.4232,4.525,4.6434,0.0,0.0,0.0,4.8301,4.8301,4.8301,4.8301,0.0,0.0,0.0,4.7625,4.7465,4.7731,0.0,4.8147,0.0,0.0,0.0,0.0,0.0,0.0,4.8301,4.8301,4.8301,0.0,4.8338,4.854,0.0,0.0,0.0,0.0,0.0,4.7597,4.8083,0.0,0.0,0.0,4.8994,4.8994,4.8994,4.9137,4.9686,5.0516,5.1336,0.0,0.0,5.3492,0.0,0.0,0.0,0.0,0.0,0.0,0.0,0.0,0.0,0.0,0.0,0.0,0.0,0.0,0.0,0.0,0.0,0.0,0.0,0.0,5.3492,5.3492,5.3492,5.3492,5.3492,5.3492,5.3492,5.3492,5.3492,5.3492,5.3492,5.3492,5.3492,5.3492,5.3492,5.3492,5.3441,5.23,5.1894,5.1992,5.1023,5.0721,5.091,5.1125,5.1191,5.1191,5.1191,5.1191,5.1191,0.0,0.0,0.0,0.0,0.0,0.0,0.0,0.0,0.0,0.0,0.0,0.0,0.0,4.3506,4.3814,4.4571,4.4645,4.5305,4.6874,4.7058,4.7448,4.8205,0.0,0.0,4.8301,4.8301,0.0,0.0,0.0,0.0,4.823,4.7679,4.7731,4.8277,4.771,4.7767,4.8301,0.0,0.0,0.0,0.0,0.0,0.0,0.0,0.0,0.0,0.0,0.0,0.0,0.0,0.0,0.0,0.0,0.0,4.9725,0.0,0.0,0.0,4.8994,4.8994,4.9011,4.9044,5.0144,5.1218,0.0,0.0,0.0,0.0,0.0,0.0,0.0,0.0,0.0,0.0,0.0,0.0,0.0,0.0,0.0,0.0,0.0,0.0,0.0,0.0,0.0,0.0,5.3492,5.3492,5.3492,5.3492,5.3492,5.3492,5.3492,5.3492,5.3492,5.3492,5.3492,5.3492,5.3492,5.3492,5.3492,5.3492,5.3492,5.3475,5.3093,5.328,5.3772,5.2382,5.2193,5.2659,5.1608,5.1191,5.1191,5.1191,5.1191,5.1191,0.0,0.0,0.0,0.0,0.0,0.0,0.0,0.0,0.0,0.0,0.0,0.0,0.0,4.3961,4.4392,4.4663,4.5631,4.6493,4.7058,4.7576,4.8003,4.8296,0.0,0.0,0.0,0.0,0.0,0.0,0.0,4.7897,4.7731,4.7902,4.809,4.8292,4.807,4.8094,4.8301,4.8301,0.0,0.0,0.0,0.0,0.0,0.0,0.0,0.0,0.0,0.0,0.0,0.0,0.0,0.0,0.0,0.0,0.0,0.0,4.8994,4.8994,4.8994,4.8994,4.8994,4.8994,5.0102,5.1201,5.1201,5.2393,5.3492,0.0,0.0,0.0,0.0,0.0,0.0,0.0,0.0,0.0,0.0,0.0,0.0,0.0,0.0,0.0,0.0,0.0,0.0,0.0,0.0,5.3492,5.3492,5.3492,5.3492,5.3492,5.3492,5.3492,5.3492,5.3492,5.3492,5.3492,5.3492,5.3492,5.3492,5.3492,5.3754,5.4228,5.4572,5.4454,5.3977,5.3719,5.3339,5.2856,5.2452,5.1838,5.1191,5.1191,5.1191,5.1191,0.0,0.0,0.0,0.0,0.0,0.0,0.0,0.0,0.0,0.0,0.0,0.0,0.0,0.0,4.5214,4.5484,4.6732,4.7503,4.7503,4.8003,4.8301,4.8301,4.8118,0.0,0.0,0.0,0.0,0.0,0.0,0.0,0.0,4.7907,4.8118,4.8301,4.8301,4.8301,0.0,0.0,0.0,4.8301,0.0,0.0,4.8733,0.0,0.0,0.0,0.0,0.0,0.0,0.0,0.0,0.0,0.0,0.0,0.0,0.0,0.0,0.0,4.9071,4.8994,4.8994,4.8994,4.9924,5.0905,5.1133,0.0,5.3171,0.0,0.0,0.0,0.0,0.0,0.0,0.0,0.0,0.0,0.0,0.0,0.0,0.0,0.0,0.0,0.0,0.0,0.0,0.0,0.0,0.0,5.3492,5.3492,5.3492,5.3492,5.3492,5.3492,5.3492,5.3492,5.3492,5.3492,5.3492,5.3492,5.3492,5.3492,5.3907,5.4642,5.5386,5.5403,5.4944,5.5076,5.4681,5.394,5.3193,5.244,5.1727,5.1339,5.1191,5.1191,0.0,0.0,0.0,0.0,0.0,0.0,0.0,0.0,0.0,0.0,0.0,0.0,0.0,0.0,0.0,4.7062,4.7856,4.8301,4.8301,4.8282,4.8277,4.8277,4.7715,4.739,0.0,0.0,0.0,0.0,0.0,0.0,0.0,0.0,4.7741,4.8301,4.8301,4.8301,4.8301,0.0,4.8301,4.8301,0.0,4.8843,4.9605,0.0,0.0,0.0,5.1725,5.2018,0.0,0.0,0.0,0.0,0.0,0.0,0.0,0.0,0.0,0.0,0.0,0.0,0.0,4.8994,4.9543,5.0295,5.104,0.0,5.2536,0.0,0.0,0.0,0.0,0.0,0.0,0.0,0.0,0.0,0.0,0.0,0.0,0.0,0.0,0.0,0.0,0.0,0.0,0.0,5.3492,5.3492,5.3492,5.3492,5.3492,5.3492,5.3492,5.3492,5.3492,5.3492,5.3492,5.3492,5.3492,5.3492,5.3492,5.3492,5.3907,5.4676,5.5386,5.613,5.6803,5.6409,5.6233,5.5991,5.3844,5.2978,5.2801,5.1669,5.1249,5.1249,0.0,0.0,0.0,0.0,0.0,0.0,0.0,0.0,0.0,0.0,0.0,0.0,0.0,0.0,4.7081,4.7893,4.8168,4.8301,4.8301,4.7897,4.764,4.764,4.7499,4.7172,4.6687,4.7399,4.7409,4.6675,4.7409,4.7723,4.7651,4.7927,4.8147,0.0,4.8301,4.8301,4.8301,4.8301,0.0,0.0,4.899,4.9385,0.0,0.0,0.0,0.0,0.0,5.2362,0.0,0.0,5.3196,5.3076,0.0,0.0,0.0,0.0,0.0,0.0,4.9182,0.0,0.0,0.0,0.0,0.0,5.104,5.1767,5.2536,0.0,0.0,0.0,0.0,0.0,0.0,0.0,0.0,0.0,0.0,0.0,0.0,0.0,0.0,0.0,0.0,0.0,0.0,0.0,5.3492,5.3492,5.3492,5.3492,5.3492,5.3492,5.3492,5.3492,5.3492,5.3492,5.3492,5.3492,5.3492,5.3492,5.3492,5.3492,5.4186,5.5403,5.5614,5.6418,5.7602,5.7479,5.6937,5.6145,5.5528,5.4806,5.3988,5.2845,5.2429,5.232,0.0,0.0,0.0,0.0,0.0,0.0,0.0,0.0,0.0,0.0,0.0,0.0,0.0,0.0,0.0,4.826,4.8301,4.8191,4.7937,4.7823,4.7656,4.7406,4.7396,4.7216,4.6836,4.7021,4.688,4.6407,4.7143,4.7475,4.7406,4.8025,4.8301,4.8301,4.8301,4.8508,0.0,0.0,0.0,0.0,4.9403,0.0,0.0,5.1119,5.1793,0.0,0.0,0.0,5.3196,5.3196,5.3196,0.0,0.0,0.0,0.0,0.0,0.0,0.0,0.0,0.0,0.0,0.0,0.0,0.0,5.0964,5.1522,5.2156,0.0,0.0,0.0,0.0,0.0,0.0,0.0,0.0,0.0,0.0,0.0,0.0,0.0,0.0,0.0,0.0,5.3492,5.3492,5.3492,5.3492,5.3492,5.3492,5.3492,5.3492,5.3492,5.3492,5.3492,5.3492,5.3492,5.3492,5.3492,5.3492,5.3492,5.3492,5.3492,5.4135,5.5251,5.5572,5.6367,5.7468,5.7772,5.75,5.6861,5.6396,5.5814,5.5078,5.3483,5.29,5.2738,0.0,0.0,0.0,0.0,0.0,0.0,0.0,0.0,0.0,0.0,0.0,0.0,0.0,0.0,0.0,0.0,4.8301,4.807,4.7541,4.7937,4.7957,4.7417,4.7331,4.7299,4.7299,4.6179,4.589,4.6513,4.6513,4.6841,4.752,4.805,4.8301,4.8301,4.8393,4.8875,4.961,0.0,0.0,4.9862,4.9862,5.0725,0.0,0.0,5.2582,0.0,5.3196,5.3196,5.3196,5.3196,5.3196,0.0,0.0,0.0,0.0,0.0,5.1157,0.0,0.0,0.0,0.0,0.0,0.0,0.0,5.0761,5.1083,5.1505,5.3052,0.0,0.0,0.0,0.0,0.0,0.0,0.0,0.0,0.0,0.0,0.0,0.0,0.0,0.0,5.3492,5.3492,5.3492,5.3492,5.3492,5.3492,5.3492,5.3492,5.3492,5.3492,5.3492,5.3492,5.3492,5.3492,5.3492,5.3492,5.3492,5.3492,5.3492,5.3492,5.3907,5.4642,5.5386,5.613,5.6867,5.7603,5.7891,5.7808,5.6778,5.6379,5.6126,5.3897,5.3099,5.29,0.0,0.0,0.0,0.0,0.0,0.0,0.0,0.0,0.0,0.0,0.0,0.0,0.0,0.0,0.0,0.0,4.8301,4.8258,4.8124,4.7777,4.7525,4.7401,4.6887,4.66,4.66,4.6353,4.6542,4.7205,4.7205,4.7512,4.8137,4.8235,4.8301,4.8338,4.9027,4.944,4.9642,0.0,0.0,5.1528,5.1528,0.0,5.2074,5.2724,5.3067,5.3196,5.3196,5.3196,5.3196,0.0,5.3196,5.3175,0.0,0.0,0.0,0.0,0.0,0.0,0.0,0.0,0.0,0.0,0.0,0.0,5.0109,5.0304,5.0735,0.0,0.0,0.0,0.0,0.0,0.0,0.0,0.0,0.0,0.0,0.0,0.0,0.0,0.0,0.0,5.3492,5.3492,5.3492,5.3492,5.3492,5.3492,5.3492,5.3492,5.3492,5.3492,5.3492,5.3492,5.3492,5.3492,5.3492,5.3492,5.3492,5.3492,5.3492,5.3492,5.3907,5.4642,5.5386,5.613,5.6867,5.7603,5.7891,5.7872,5.7663,5.7572,5.7297,5.5078,5.4274,5.3977,0.0,0.0,0.0,0.0,0.0,0.0,0.0,0.0,0.0,0.0,0.0,0.0,0.0,0.0,0.0,0.0,0.0,0.0,0.0,4.7861,4.7578,4.6932,4.6904,4.6739,4.6413,4.6407,4.6565,4.6904,4.7232,4.7557,4.7866,4.8593,4.8953,4.8972,4.9816,5.0427,5.0812,0.0,5.1867,5.2564,5.2165,0.0,5.2632,5.3049,5.3196,5.3196,5.3196,5.3196,5.3196,5.3196,5.3196,0.0,0.0,5.2942,5.2651,0.0,5.2148,5.1519,0.0,0.0,0.0,4.9585,0.0,0.0,0.0,5.0092,5.0413,5.1514,5.2038,0.0,0.0,0.0,0.0,0.0,0.0,0.0,0.0,0.0,0.0,0.0,0.0,0.0,5.3492,5.3492,5.3492,5.3492,5.3492,5.3492,5.3492,5.3492,5.3492,5.3492,5.3492,5.3492,5.3492,5.3492,5.3492,5.3492,5.3492,5.3492,5.3492,5.3492,5.3704,5.411,5.5217,5.5911,5.6333,5.7451,5.7891,5.7891,5.7891,5.7891,5.77,5.6008,5.5403,5.5072,4.3722,0.0,0.0,0.0,0.0,0.0,0.0,0.0,0.0,0.0,0.0,0.0,0.0,0.0,0.0,0.0,0.0,0.0,0.0,0.0,0.0,4.7074,4.743,4.7482,4.7062,4.6938,4.6932,4.705,4.7599,4.7929,4.8082,4.9278,4.9821,4.9862,5.0679,0.0,0.0,0.0,0.0,5.3141,0.0,5.2619,5.3196,5.3196,5.3196,5.3196,5.3196,5.3196,5.3196,5.3196,0.0,5.3196,5.3196,5.3103,0.0,0.0,0.0,0.0,0.0,0.0,0.0,0.0,0.0,4.9171,0.0,0.0,0.0,5.0837,0.0,0.0,0.0,0.0,0.0,0.0,0.0,0.0,0.0,0.0,0.0,0.0,0.0,0.0,0.0,5.3492,5.3492,5.3492,5.3492,5.3492,5.3492,5.3492,5.3492,5.3492,5.3492,5.3492,5.3492,5.3492,5.3492,5.3492,5.3492,5.3492,5.3492,5.3492,5.3492,5.3577,5.5056,5.5699,5.58,5.7289,5.7891,5.7891,5.7891,5.7891,5.7755,5.6624,5.6204,5.5913,4.4553,4.4645,0.0,0.0,0.0,0.0,0.0,0.0,0.0,0.0,0.0,0.0,0.0,0.0,0.0,0.0,0.0,0.0,4.7571,0.0,0.0,4.9302,4.8895,4.8871,4.9405,4.8895,4.8883,4.9416,4.9484,4.9829,5.0423,5.0588,5.0655,5.071,5.1505,0.0,0.0,0.0,5.3122,0.0,5.3104,5.3122,0.0,5.3196,5.3196,5.3196,5.3196,5.3196,5.3196,0.0,5.3196,5.3196,0.0,5.2752,0.0,0.0,0.0,0.0,0.0,0.0,0.0,0.0,4.9499,0.0,0.0,0.0,4.9323,5.0067,0.0,0.0,0.0,0.0,0.0,0.0,0.0,0.0,0.0,0.0,0.0,0.0,0.0,0.0,0.0,5.3492,5.3492,5.3492,5.3492,5.3492,5.3492,5.3492,5.3492,5.3492,5.3492,5.3492,5.3492,5.3492,5.3492,5.3492,5.3492,5.3492,5.3492,5.3492,5.3492,5.3577,5.5056,5.5699,5.58,5.7289,5.7891,5.7891,5.7891,5.7891,5.7755,5.6624,5.6204,5.6037,4.47,4.5448,0.0,0.0,4.7484,4.7911,4.8246,4.8301,0.0,0.0,0.0,0.0,0.0,0.0,0.0,0.0,0.0,0.0,0.0,0.0,0.0,4.9174,4.9311,4.9145,4.8655,4.9145,4.9555,4.9793,5.019,5.0514,5.082,5.1279,5.1505,5.1536,5.2344,0.0,5.2724,0.0,0.0,0.0,0.0,0.0,0.0,5.3196,5.3196,5.3196,5.3196,5.3196,5.3196,0.0,5.3196,0.0,0.0,0.0,0.0,0.0,0.0,0.0,0.0,0.0,0.0,0.0,0.0,0.0,0.0,0.0,4.9555,0.0,0.0,0.0,0.0,0.0,0.0,0.0,5.2579,0.0,0.0,0.0,0.0,0.0,0.0,0.0,0.0,0.0,0.0,0.0,5.3492,5.3492,5.3492,5.3492,5.3492,5.3492,5.3492,5.3492,5.3492,5.3492,5.3492,5.3492,5.3492,5.3492,5.3492,5.3492,5.3492,5.3577,5.5056,5.5699,5.58,5.7289,5.7891,5.7891,5.7891,5.7891,5.7845,5.7353,5.7187,5.702,4.5356,0.0,0.0,0.0,0.0,4.8301,4.8301,4.8508,4.8655,0.0,0.0,0.0,4.9647,4.9857,0.0,0.0,0.0,4.921,0.0,0.0,4.938,0.0,4.9603,0.0,0.0,4.9659,5.0255,5.0432,5.0922,5.1253,5.1476,5.2068,5.2325,5.2344,0.0,5.3196,5.3196,0.0,0.0,5.3196,5.3196,5.3196,5.3196,5.3196,5.3196,5.3196,5.3196,5.3196,5.3196,5.3196,5.3196,0.0,5.3196,0.0,0.0,0.0,0.0,0.0,5.3196,0.0,0.0,0.0,0.0,0.0,0.0,0.0,0.0,0.0,0.0,0.0,0.0,0.0,0.0,5.1606,0.0,5.219,0.0,0.0,0.0,0.0,0.0,0.0,0.0,0.0,0.0,5.3492,5.3492,5.3492,5.3492,5.3492,5.3492,5.3492,5.3492,5.3492,5.3492,5.3492,5.3492,5.3492,5.3492,5.3492,5.3492,5.3492,5.3492,5.356,5.4845,5.5513,5.58,5.707,5.7721,5.7891,5.7891,5.7891,5.7891,5.7891,5.7891,5.7773,4.7021,4.7058,0.0,0.0,0.0,4.8301,4.8301,4.9027,4.955,0.0,0.0,0.0,0.0,0.0,0.0,0.0,0.0,4.7958,4.7958,0.0,4.9306,0.0,0.0,0.0,0.0,0.0,5.1379,5.2034,5.2052,5.2424,5.3122,5.3159,5.3159,5.3159,5.3196,5.3196,5.3196,5.3196,5.3196,5.3196,5.3196,5.3196,5.3196,0.0,5.3196,5.3196,5.3196,0.0,0.0,5.3196,5.3196,0.0,0.0,0.0,0.0,0.0,0.0,0.0,0.0,0.0,0.0,0.0,0.0,0.0,0.0,0.0,4.9997,0.0,0.0,0.0,0.0,0.0,5.0143,5.0159,5.0777,0.0,0.0,0.0,0.0,0.0,0.0,0.0,0.0,0.0,0.0,5.3492,5.3492,5.3492,5.3492,5.3492,5.3492,5.3492,5.3492,5.3492,5.3492,5.3492,5.3492,5.3492,5.3492,5.3492,5.3492,5.3492,5.3492,5.3551,5.4304,5.504,5.5767,5.6519,5.7256,5.7891,5.7891,5.7891,5.7891,5.7891,5.7891,5.7891,0.0,0.0,0.0,0.0,0.0,0.0,4.9063,4.9403,0.0,0.0,0.0,0.0,0.0,0.0,4.9783,0.0,0.0,4.9295,4.9295,4.9979,0.0,0.0,0.0,5.1568,0.0,0.0,0.0,0.0,0.0,5.2953,5.3196,5.3196,5.3196,5.3196,0.0,5.3196,0.0,0.0,0.0,0.0,0.0,5.3196,5.3196,0.0,0.0,5.3196,5.3196,5.3196,0.0,5.3196,5.3196,5.3196,5.3196,5.3196,5.3196,5.3196,5.3196,0.0,0.0,0.0,5.2224,5.2719,0.0,0.0,0.0,0.0,0.0,0.0,0.0,0.0,0.0,0.0,4.9526,5.0024,5.0312,5.0811,0.0,0.0,0.0,0.0,0.0,0.0,0.0,0.0,0.0,5.3492,5.3492,5.3492,5.3492,5.3492,5.3492,5.3492,5.3492,5.3492,5.3492,5.3492,5.3492,5.3492,5.3492,5.3492,5.3492,5.3492,5.3492,5.3551,5.4279,5.5023,5.5767,5.6511,5.7222,5.7891,5.7891,5.7891,5.7891,5.7891,5.7891,5.7891,4.8205,0.0,0.0,0.0,0.0,0.0,0.0,0.0,0.0,0.0,5.0474,0.0,5.0362,0.0,5.0513,0.0,4.9777,4.9751,4.999,5.0213,0.0,5.0012,5.1104,0.0,0.0,0.0,0.0,0.0,0.0,5.2942,5.3196,5.3196,5.3196,5.3196,0.0,5.3196,5.3196,0.0,5.3196,0.0,0.0,5.3196,0.0,0.0,5.3196,5.3196,0.0,5.3196,5.3196,5.3196,5.3196,5.3196,5.3196,5.3196,5.3196,5.3196,5.3196,5.3196,5.3196,5.2853,0.0,0.0,5.3067,0.0,5.2563,0.0,0.0,0.0,0.0,0.0,0.0,0.0,4.9517,5.002,5.0092,5.0616,0.0,5.2993,0.0,0.0,0.0,0.0,0.0,0.0,5.3492,5.3492,5.3492,5.3492,0.0,0.0,5.3492,5.3492,5.3492,5.3492,5.3492,5.3492,5.3492,5.3492,5.3492,5.3492,5.3492,5.3492,5.3492,5.3534,5.3991,5.4786,5.5733,5.6215,5.7002,5.7891,5.7891,5.7891,5.7891,5.7891,5.7891,5.7891,0.0,0.0,0.0,0.0,4.9005,0.0,0.0,0.0,5.0647,0.0,5.0598,5.1027,5.1001,5.0373,4.9947,4.9947,4.9367,0.0,4.9904,4.9389,0.0,0.0,4.9412,4.9061,4.8994,0.0,0.0,0.0,0.0,0.0,5.3196,5.3196,5.3196,5.3196,5.3196,0.0,5.3196,5.3196,5.3196,5.3196,5.3196,5.3196,5.3196,5.3196,0.0,5.3251,5.3214,5.3196,5.3214,5.3251,5.3269,5.3269,5.3306,5.3324,5.3324,5.3324,5.3324,5.3324,5.3324,5.3324,5.3324,5.3324,0.0,0.0,0.0,0.0,5.2438,0.0,0.0,0.0,0.0,0.0,0.0,5.0195,5.0208,5.0701,5.2097,0.0,0.0,0.0,0.0,0.0,0.0,5.3492,5.3492,5.3492,5.3492,5.3492,0.0,0.0,5.3492,5.3492,5.3492,5.3492,5.3492,5.3492,5.3492,5.3492,5.3492,5.3492,5.3492,5.3492,5.3492,5.3492,5.3492,5.4338,5.5699,5.5699,5.6579,5.7891,5.7891,5.7891,5.7891,5.7891,5.7891,5.7891,4.7625,4.7707,4.7948,0.0,4.8706,4.9117,0.0,0.0,0.0,0.0,5.0486,5.009,4.9595,4.9359,4.9265,4.9265,4.91,0.0,0.0,0.0,0.0,4.9271,5.0082,5.0079,4.9024,5.0683,0.0,5.1099,0.0,0.0,5.3196,5.3196,5.3196,5.3196,0.0,0.0,5.3196,5.3196,5.3196,5.3196,5.3196,5.3196,0.0,0.0,5.3568,5.4008,5.3416,5.3196,5.3287,5.3898,5.4082,5.4197,5.4808,5.4974,5.4974,5.4974,5.4974,5.4974,5.4974,5.4974,5.4974,5.4974,5.5139,5.5236,0.0,0.0,0.0,0.0,0.0,0.0,0.0,0.0,0.0,5.1817,5.1774,5.186,0.0,0.0,0.0,0.0,0.0,0.0,5.3492,5.3492,5.3492,5.3492,5.3492,5.3492,5.3492,0.0,0.0,5.3492,5.3492,5.3492,5.3492,5.3492,5.3492,5.3492,5.3492,5.3492,5.3492,5.3492,5.3492,5.3492,5.3492,5.4338,5.5699,5.5699,5.6579,5.7891,5.7891,5.7891,5.7891,5.7891,5.7891,5.7891,4.7414,0.0,0.0,4.8666,0.0,0.0,4.9839,0.0,0.0,5.0556,4.9997,0.0,4.9457,4.9174,4.8994,4.8994,4.8994,0.0,0.0,0.0,0.0,4.9432,4.9925,4.9809,4.9017,5.075,0.0,5.1099,0.0,0.0,5.3196,5.3196,5.3196,5.3196,5.3196,5.3196,0.0,5.3196,5.3196,5.3196,5.3196,0.0,0.0,5.3581,5.4008,5.4399,5.4289,5.4252,5.4326,5.4772,5.4919,5.4992,5.5456,5.5603,5.5603,5.5603,5.5603,5.5603,5.5603,5.5603,5.5603,5.5603,5.5855,5.6038,5.5677,5.5651,5.5563,0.0,0.0,0.0,0.0,0.0,0.0,0.0,0.0,0.0,0.0,0.0,0.0,0.0,5.3492,0.0,5.3492,5.3492,5.3492,5.3492,5.3492,5.3492,0.0,0.0,0.0,5.3492,5.3492,5.3492,5.3492,5.3492,5.3492,5.3492,5.3492,5.3492,5.3492,5.3492,5.3492,5.3492,5.3492,5.4338,5.5699,5.5699,5.6579,5.7891,5.7891,5.7891,5.7891,5.7891,5.7891,5.7891,0.0,0.0,0.0,0.0,0.0,0.0,0.0,4.9418,0.0,4.999,0.0,4.9228,4.9799,4.9344,4.8994,0.0,0.0,4.9258,4.9828,4.9314,4.9256,4.9843,4.9397,4.9138,4.9138,5.051,0.0,0.0,0.0,0.0,5.3196,5.3196,5.3196,5.3196,5.3196,0.0,0.0,5.3196,5.3196,0.0,5.3306,5.3361,5.3453,5.4252,5.462,5.4803,5.5506,5.5695,5.5622,5.5713,5.5763,5.5787,5.5879,5.5915,5.5915,5.5915,5.5915,5.5915,5.5915,5.5915,5.5915,5.5915,5.6436,5.6761,5.6081,5.6003,5.6065,5.6004,5.5491,0.0,0.0,0.0,0.0,0.0,0.0,0.0,0.0,0.0,0.0,0.0,0.0,0.0,5.3492,5.3492,5.3492,5.3492,5.3492,5.3492,0.0,0.0,0.0,5.3492,5.3492,5.3492,5.3492,0.0,5.3492,5.3492,5.3492,5.3492,5.3492,5.3492,5.3492,5.3492,5.3492,5.4338,5.5699,5.5699,5.6579,5.7891,5.7891,5.7891,5.7891,5.7891,5.7891,5.7891,0.0,0.0,0.0,0.0,0.0,4.8955,4.8955,4.9082,4.9374,4.9926,4.9427,0.0,4.9159,4.9061,4.8994,4.8994,4.8994,0.0,0.0,0.0,0.0,4.9167,4.9593,4.9821,4.9821,5.1197,5.1922,0.0,0.0,0.0,5.3196,5.3196,5.3196,5.3196,5.3196,0.0,5.3196,5.3196,0.0,5.3269,5.3917,5.4197,5.4289,5.5084,5.58,5.6394,5.6541,5.6167,5.5695,5.6363,5.6596,5.6706,5.7378,5.758,5.758,5.758,5.758,5.758,5.758,5.758,5.758,5.758,5.7685,5.7745,5.7611,5.7591,5.7613,5.7602,5.7498,5.7444,5.7564,0.0,0.0,0.0,0.0,0.0,0.0,0.0,0.0,0.0,0.0,0.0,0.0,0.0,0.0,0.0,5.3492,5.3492,0.0,0.0,0.0,0.0,5.3492,0.0,0.0,0.0,5.3492,5.3492,5.3492,5.3492,5.3492,5.3492,5.3492,5.3492,5.3492,5.4338,5.5699,5.5699,5.6579,5.7891,5.7891,5.7891,5.7891,5.7891,5.7891,5.7891,0.0,0.0,0.0,0.0,0.0,0.0,0.0,4.8994,0.0,4.9904,4.9427,4.9138,4.9484,4.9212,4.8994,4.8994,4.8994,4.9153,4.9499,4.9521,4.9695,5.0079,5.04,0.0,5.0568,0.0,5.2107,5.2107,0.0,0.0,5.3196,5.3196,5.3196,5.3196,0.0,5.3196,0.0,0.0,0.0,5.3862,5.4234,5.4643,5.5102,5.5928,5.6449,5.6847,5.7275,5.7171,5.6901,5.7281,5.7422,5.7483,5.7886,5.8002,5.8002,5.8002,5.8002,5.8002,5.8002,5.8002,5.8002,5.8002,5.8002,5.8002,5.8002,5.8002,5.8002,5.8002,5.8002,5.8002,5.8002,5.7085,0.0,0.0,0.0,0.0,0.0,0.0,0.0,0.0,0.0,0.0,0.0,0.0,0.0,0.0,0.0,0.0,0.0,0.0,0.0,0.0,0.0,0.0,0.0,0.0,0.0,5.3492,5.3492,5.3492,5.3492,5.3492,5.3492,5.3492,5.3492,5.4338,5.5767,5.6519,5.7256,5.7891,5.7891,5.7891,5.7891,5.7891,5.7891,5.7891,0.0,4.8702,0.0,0.0,4.8994,0.0,0.0,4.8994,4.919,4.9722,4.9339,4.9205,4.9737,4.9324,4.9071,4.9205,4.922,4.9506,5.0185,5.0234,5.0486,5.1073,5.1234,5.1311,5.1311,5.1982,5.2323,0.0,0.0,0.0,0.0,5.3122,5.3196,0.0,0.0,0.0,0.0,0.0,5.3825,5.4436,5.4766,5.528,5.5946,5.6748,5.7055,5.7147,5.7776,5.8002,5.8002,5.8002,5.8002,5.8002,5.8002,5.8002,5.8002,5.8002,5.8002,5.8002,5.8002,5.8002,5.8002,5.8002,5.8002,5.8002,5.8002,5.8002,5.8002,5.8002,5.8002,5.8002,5.8002,5.7401,0.0,0.0,0.0,0.0,0.0,0.0,0.0,0.0,0.0,0.0,0.0,0.0,0.0,0.0,0.0,0.0,0.0,0.0,0.0,0.0,0.0,5.3492,5.3492,0.0,5.3492,0.0,5.3492,5.3492,5.3492,5.3492,5.3492,5.3518,5.367,5.4678,5.6293,5.7611,5.8263,5.8432,5.8432,5.8432,5.8432,5.8432,5.8432,5.8432,0.0,0.0,0.0,0.0,0.0,0.0,0.0,4.8994,4.9024,4.9084,4.9048,4.9024,4.9084,4.904,4.9241,4.9857,4.9914,5.0213,5.0949,5.0995,5.1027,5.1092,5.1674,5.2018,5.2018,5.273,5.3098,0.0,0.0,0.0,0.0,0.0,0.0,0.0,0.0,0.0,0.0,5.3972,5.4326,5.4528,5.599,5.6614,5.678,5.7574,5.7892,5.7905,5.7966,5.8002,5.8002,5.8002,5.8002,5.8002,5.8002,5.8002,5.8002,5.8002,5.8002,5.8002,5.8002,5.8002,5.8002,5.8002,5.8002,5.8002,5.8002,5.8002,5.8002,5.8002,5.8002,5.8002,5.8002,5.7401,5.688,0.0,0.0,0.0,0.0,0.0,0.0,0.0,0.0,0.0,0.0,5.3492,0.0,0.0,0.0,0.0,0.0,0.0,0.0,5.3492,0.0,5.3492,5.3492,5.3492,5.3492,5.3492,5.3492,5.3492,5.3492,5.3492,5.3492,5.3551,5.4211,5.5749,5.7843,5.8665,5.9451,6.0166,6.0166,6.0166,6.0166,6.0166,6.0166,6.0166,0.0,0.0,0.0,0.0,0.0,0.0,0.0,4.8994,4.8994,4.8994,4.8994,4.8994,4.8994,4.9359,4.9707,4.9976,5.0397,5.0962,5.1649,5.1692,5.1904,5.2336,5.2617,5.2758,5.2758,5.3042,5.3196,0.0,0.0,0.0,0.0,0.0,0.0,0.0,0.0,5.3917,5.3972,5.4785,5.539,5.5899,5.6541,5.7092,5.7556,5.7886,5.8002,5.8002,5.8002,5.8002,5.8002,5.8002,5.8002,5.8002,5.8002,5.8002,5.8002,5.8002,5.8002,5.8002,5.8002,5.8002,5.8002,5.8002,5.8002,5.8002,5.8002,5.8002,5.8002,5.8002,5.8002,5.8002,5.8002,5.7756,5.7413,0.0,0.0,0.0,0.0,0.0,0.0,0.0,0.0,0.0,0.0,0.0,0.0,0.0,0.0,0.0,0.0,0.0,0.0,5.3492,0.0,5.3492,5.3492,5.3492,5.3492,5.3492,5.3492,5.3492,5.3492,5.3492,5.3997,5.4915,5.5654,5.7048,5.8839,5.958,6.0086,6.0399,6.0399,6.0399,6.0399,6.0399,6.0399,6.0399,4.9048,0.0,4.8994,0.0,4.8994,4.8994,4.8994,4.8994,4.8994,4.8994,4.8994,4.8994,4.8994,4.96,5.0097,5.0293,5.0988,5.1691,5.2375,5.2415,5.2656,5.3175,5.3196,0.0,5.3196,5.3196,5.3196,5.3196,5.3196,0.0,0.0,0.0,0.0,0.0,5.4155,5.4528,5.4808,5.5616,5.6271,5.6811,5.7055,5.7483,5.8002,5.8002,5.8002,5.8002,5.8002,5.8002,5.8002,5.8002,5.8002,5.8002,5.8002,5.8002,5.8002,5.8002,5.8002,5.8002,5.8002,5.8002,5.8002,5.8002,5.8002,5.8002,5.8002,5.8002,5.8002,5.8002,5.8002,5.8002,5.8002,5.8002,5.7833,5.7321,0.0,0.0,0.0,0.0,0.0,0.0,0.0,5.4697,5.4891,0.0,0.0,0.0,0.0,0.0,0.0,0.0,0.0,0.0,0.0,0.0,0.0,5.3492,5.3492,5.3492,5.3492,5.3492,5.3509,5.3717,5.4662,5.6168,5.6918,5.8297,6.0013,6.0547,6.0886,6.1109,6.1109,6.1109,6.1109,6.1109,6.1109,6.1109,4.9138,4.8994,4.8994,4.8994,4.8994,4.8994,4.8994,4.8994,4.8994,4.8994,4.8994,4.8994,4.8994,4.96,5.0297,5.1021,5.1692,5.2393,5.3148,5.3185,5.3185,0.0,0.0,5.3196,5.3196,5.3196,5.3196,5.3196,0.0,0.0,5.2,0.0,5.2863,5.4399,5.4399,5.4845,5.564,5.6436,5.6792,5.6871,5.7666,5.7997,5.8002,5.8002,5.8002,5.8002,5.8002,5.8002,5.8002,5.8002,5.8002,5.8002,5.8002,5.8002,5.8002,5.8002,5.8002,5.8002,5.8002,5.8002,5.8002,5.8002,5.8002,5.8002,5.8002,5.8002,5.8002,5.8002,5.8002,5.8002,5.8002,5.8002,5.7997,5.7991,0.0,0.0,0.0,0.0,0.0,0.0,5.5527,5.4894,5.5613,0.0,0.0,0.0,0.0,0.0,0.0,0.0,0.0,5.3492,5.3492,0.0,5.3492,5.3492,5.3492,5.3492,5.3492,5.3492,5.3526,5.4248,5.5436,5.6938,5.7751,5.9405,6.1561,6.1579,6.2049,6.2768,6.2768,6.2768,6.2768,6.2768,6.2768,6.2768,4.9048,4.8994,4.8994,4.8994,4.8994,4.8994,4.8994,4.8994,4.8994,4.8994,4.8994,4.8994,4.8994,4.96,5.0303,0.0,5.1704,5.2404,0.0,5.3196,5.3196,5.3196,5.3196,5.3196,5.3196,5.3196,5.3196,5.3196,0.0,0.0,0.0,5.3634,5.4203,5.5236,5.5794,5.6174,5.6473,5.7281,5.7611,5.7648,5.7905,5.8002,5.8002,5.8002,5.8002,5.8002,5.8002,5.8002,5.8002,5.8002,5.8002,5.8002,5.8002,5.8002,5.8002,5.8002,5.8002,5.8002,5.8002,5.8002,5.8002,5.8002,5.8002,5.8002,5.8002,5.8002,5.8002,5.8002,5.8002,5.8002,5.8002,5.8002,5.8002,5.8002,0.0,0.0,0.0,0.0,0.0,0.0,5.6773,5.6263,0.0,5.5801,0.0,0.0,0.0,0.0,0.0,0.0,0.0,0.0,5.3492,0.0,5.3492,5.3492,5.3492,5.3492,5.3492,5.3767,5.4272,5.5012,5.6523,5.8552,5.882,6.0255,6.242,6.242,6.2567,6.2793,6.2793,6.2793,6.2793,6.2793,6.2793,6.2793,4.9055,4.8994,4.8994,4.8994,4.8994,4.8994,4.8994,4.8994,4.8994,4.8994,4.9245,4.9399,4.9374,5.0007,0.0,5.106,5.1964,5.2701,5.3169,5.3196,5.3196,5.3196,5.3196,5.3196,5.3196,0.0,0.0,5.3196,5.3489,5.4064,5.4845,5.4845,5.5286,5.6069,5.6578,5.6963,5.7275,5.7795,5.8002,5.8002,5.8002,5.8002,5.8002,5.8002,5.8002,5.8002,5.8002,5.8002,5.8002,5.8002,5.8002,5.8002,5.8002,5.8002,5.8002,5.8002,5.8002,5.8002,5.8002,5.8002,5.8002,5.8002,5.8002,5.8002,5.8002,5.8002,5.8002,5.8002,5.8002,5.8002,5.8002,5.8002,5.8002,5.8002,5.8002,5.8002,0.0,0.0,0.0,0.0,0.0,0.0,0.0,5.6611,0.0,0.0,0.0,0.0,0.0,0.0,0.0,5.3492,5.3492,0.0,5.3492,5.3492,5.3634,5.3922,5.4186,5.4568,5.5042,5.5794,5.7307,5.9313,5.9599,6.0878,6.2793,6.2793,6.2793,6.2793,6.2793,6.2793,6.2793,6.2793,6.2793,6.2793,4.9123,4.8994,0.0,0.0,4.8994,0.0,4.8994,4.8994,4.9017,4.9054,4.9664,5.0092,5.0082,5.073,5.1164,5.1164,0.0,0.0,0.0,5.3196,5.3196,5.3196,5.3196,5.3196,5.3196,5.3251,5.3306,5.3379,5.4119,5.49,5.5677,5.5677,5.6112,5.6884,5.6884,5.7293,5.8002,5.8002,5.8002,5.8002,5.8002,5.8002,5.8002,5.8002,5.8002,5.8002,5.8002,5.8002,5.8002,5.8002,5.8002,5.8002,5.8002,5.8002,5.8002,5.8002,5.8002,5.8002,5.8002,5.8002,5.8002,5.8002,5.8002,5.8002,5.8002,5.8002,5.8002,5.8002,5.8002,5.8002,5.8002,5.8002,5.8002,5.8002,5.8002,5.8002,5.8002,0.0,0.0,0.0,0.0,0.0,0.0,5.7382,5.6649,0.0,0.0,0.0,0.0,0.0,5.3492,5.3492,5.3492,5.3492,5.3492,5.3543,5.3954,5.4697,5.543,5.5777,5.5815,5.6604,5.7845,5.9417,6.009,6.1312,6.2793,6.2793,6.2793,6.2793,6.2793,6.2793,6.2793,6.2793,6.2793,6.2793,0.0,0.0,4.8994,4.8994,4.8994,4.8994,4.8994,4.8994,4.9182,4.9693,4.9914,5.0237,5.0776,5.1456,5.1868,5.1868,5.2177,5.2593,5.3169,5.3196,5.3196,5.3196,5.3196,5.3196,5.3196,5.3807,5.4418,5.5029,5.5218,5.5726,5.6528,5.6528,5.695,5.7721,5.7721,5.7813,5.8002,5.8002,5.8002,5.8002,5.8002,5.8002,5.8002,5.8002,5.8002,5.8002,5.8002,5.8002,5.8002,5.8002,5.8002,5.8002,5.8002,5.8002,5.8002,5.8002,5.8002,5.8002,5.8002,5.8002,5.8002,5.8002,5.8002,5.8002,5.8002,5.8002,5.8002,5.8002,5.8002,5.8002,5.8002,5.8002,5.8002,5.8002,5.8002,5.8002,5.8002,5.8002,0.0,0.0,5.7851,5.7815,5.7985,5.7845,5.7431,0.0,0.0,0.0,0.0,5.3808,5.3492,5.3492,5.3492,5.3492,5.3492,5.405,5.4713,5.5459,5.6238,5.6622,5.6642,5.7407,5.8622,6.0152,6.031,6.1312,6.2793,6.2793,6.2793,6.2793,6.2793,6.2793,6.2793,6.2793,6.2793,6.2793,4.8994,4.8994,4.8994,4.8994,4.8994,4.8994,4.8994,4.9256,4.9585,4.9954,5.0568,5.1114,5.1513,5.2177,5.2599,5.2599,5.2599,5.2769,5.3175,5.3196,5.3196,5.3196,5.3196,5.3379,5.3733,5.4174,5.4968,5.6143,5.6143,5.6565,5.7354,5.7354,5.7574,5.8002,5.8002,5.8002,5.8002,5.8002,5.8002,5.8002,5.8002,5.8002,5.8002,5.8002,5.8002,5.8002,5.8002,5.8002,5.8002,5.8002,5.8002,5.8002,5.8002,5.8002,5.8002,5.8002,5.8002,5.8002,5.8002,5.8002,5.8002,5.8002,5.8002,5.8002,5.8002,5.8002,5.8002,5.8002,5.8002,5.8002,5.8002,5.8002,5.8002,5.8002,5.8002,5.8002,5.8002,5.8002,0.0,5.8002,5.8002,5.8002,5.8002,5.8002,5.7697,5.6957,0.0,0.0,5.4666,5.4226,5.3849,5.3509,5.3824,5.4002,5.4002,5.5107,5.5847,5.6266,5.7028,5.7401,5.7413,5.7827,5.8877,6.0395,6.0395,6.1312,6.2793,6.2793,6.2793,6.2793,6.2793,6.2793,6.2793,6.2793,6.2793,6.2793,4.9144,4.9144,4.9123,4.9017,4.8994,4.9023,4.9146,4.9627,5.0082,5.0279,5.1357,5.2142,5.2253,5.2813,5.3196,5.3196,5.3196,5.3196,5.3196,5.3196,5.3251,5.3379,5.3379,5.377,5.4564,5.4693,5.5495,5.6981,5.6981,5.733,5.8002,5.8002,5.8002,5.8002,5.8002,5.8002,5.8002,5.8002,5.8002,5.8002,5.8002,5.8002,5.8002,5.8002,5.8002,5.8002,5.8002,5.8002,5.8002,5.8002,5.8002,5.8002,5.8002,5.8002,5.8002,5.8002,5.8002,5.8002,5.8002,5.8002,5.8002,5.8002,5.8002,5.8002,5.8002,5.8002,5.8002,5.8002,5.8002,5.8002,5.8002,5.8002,5.8002,5.8002,5.8002,5.8002,5.8002,0.0,5.8002,5.8002,5.8002,5.8002,5.8002,5.8002,5.7738,5.7115,5.6957,5.6331,0.0,5.4825,5.4429,5.3693,5.4272,5.4713,5.4947,5.6249,5.6957,5.7065,5.7703,5.8002,5.8002,5.8002,5.8877,6.0395,6.0395,6.1312,6.2793,6.2793,6.2793,6.2793,6.2793,6.2793,6.2793,6.2793,6.2793,6.2793,4.9843,4.9843,4.9664,4.91,4.8994,4.919,4.9766,4.9926,5.0424,5.1624,5.1964,5.2341,5.2953,5.3124,5.3196,5.3196,5.3196,5.3196,5.3196,5.3196,5.3489,5.4174,5.421,5.4588,5.5401,5.6088,5.6871,5.7813,5.7813,5.7886,5.8002,5.8002,5.8002,5.8002,5.8002,5.8002,5.8002,5.8002,5.8002,5.8002,5.8002,5.8002,5.8002,5.8002,5.8002,5.8002,5.8002,5.8002,5.8002,5.8002,5.8002,5.8002,5.8002,5.8002,5.8002,5.8002,5.8002,5.8002,5.8002,5.8002,5.8002,5.8002,5.8002,5.8002,5.8002,5.8002,5.8002,5.8002,5.8002,5.8002,5.8002,5.8002,5.8002,5.8002,5.8002,5.8002,5.8002,0.0,5.8002,5.8002,5.8002,5.8002,5.8002,5.8002,5.7956,5.7845,5.7247,5.6809,5.6556,5.591,5.5188,5.4443,5.4544,5.5238,5.653,5.6778,5.7209,5.7839,5.7956,5.8002,5.8002,5.8002,5.8877,6.0395,6.0395,6.1312,6.2793,6.2793,6.2793,6.2793,6.2793,6.2793,6.2793,6.2793,6.2793,6.2793,5.0082,5.0004,4.9795,4.9123,4.9301,4.9652,4.9954,5.0638,5.1357,5.2012,5.2451,5.2826,5.3169,5.3196,5.3379,5.3807,5.3843,5.4027,5.4454,5.4082,5.421,5.501,5.5047,5.5414,5.6235,5.7024,5.7629,5.8002,5.8002,5.8002,5.8002,5.8002,5.8002,5.8002,5.8002,5.8002,5.8002,5.8002,5.8002,5.8002,5.8002,5.8002,5.8002,5.8002,5.8002,5.8002,5.8002,5.8002,5.8002,5.8002,5.8002,5.8002,5.8002,5.8002,5.8002,5.8002,5.8002,5.8002,5.8002,5.8002,5.8002,5.8002,5.8002,5.8002,5.8002,5.8002,5.8002,5.8002,5.8002,5.8002,5.8002,5.8002,5.8002,5.8002,5.8002,0.0,0.0,5.8002,5.8002,5.8002,5.8002,5.8002,5.8002,5.8002,5.8002,5.8002,5.7672,5.7327,5.6919,5.6545,5.5994,5.521,5.5188,5.5927,5.7486,5.7486,5.7654,5.8002,5.8002,5.8002,5.8002,5.8002,5.8877,6.0395,6.0395,6.1312,6.2793,6.2793,6.2793,6.2793,6.2793,6.2793,6.2793,6.2793,6.2793,6.2793,5.0373,5.0132,4.986,4.9331,4.9649,5.0108,5.0438,5.1401,5.2159,5.2323,5.2848,5.3269,5.3453,5.3471,5.3807,5.4601,5.468,5.5029,5.5836,5.5299,5.5225,5.5855,5.6057,5.6442,5.7073,5.7685,5.8002,5.8002,5.8002,5.8002,5.8002,5.8002,5.8002,5.8002,5.8002,5.8002,5.8002,5.8002,5.8002,5.8002,5.8002,5.8002,5.8002,5.8002,5.8002,5.8002,5.8002,5.8002,5.8002,5.8002,5.8002,5.8002,5.8002,5.8002,5.8002,5.8002,5.8002,5.8002,5.8002,5.8002,5.8002,5.8002,5.8002,5.8002,5.8002,5.8002,5.8002,5.8002,5.8002,5.8002,5.8002,5.8002,5.8002,5.8002,0.0,0.0,0.0,5.8002,5.8002,5.8002,5.8002,5.8002,5.8002,5.8002,5.8002,5.8002,5.8002,5.775,5.719,5.7159,5.687,5.625,5.6066,5.6632,5.7991,5.8002,5.8002,5.8002,5.8002,5.8002,5.8002,5.8002,5.8877,6.0395,6.0395,6.1312,6.2793,6.2793,6.2793,6.2793,6.2793,6.2793,6.2793,6.2793,6.2793,6.2793,5.1027,5.0525,5.0056,4.995,4.9969,5.0438,5.1741,5.2029,5.2347,5.3026,5.3169,5.3471,5.4234,5.4308,5.4638,5.5438,5.5511,5.5855,5.6651,5.6651,5.6651,5.6706,5.7428,5.785,5.7905,5.7966,5.8002,5.8002,5.8002,5.8002,5.8002,5.8002,5.8002,5.8002,5.8002,5.8002,5.8002,5.8002,5.8002,5.8002,5.8002,5.8002,5.8002,5.8002,5.8002,5.8002,5.8002,5.8002,5.8002,5.8002,5.8002,5.8002,5.8002,5.8002,5.8002,5.8002,5.8002,5.8002,5.8002,5.8002,5.8002,5.8002,5.8002,5.8002,5.8002,5.8002,5.8002,5.8002,5.8002,5.8002,5.8002,5.8002,5.8002,5.8002,0.0,0.0,5.8002,5.8002,5.8002,5.8002,5.8002,5.8002,5.8002,5.8002,5.8002,5.8002,5.8002,5.7979,5.7915,5.7915,5.7891,5.7826,5.7178,5.7197,5.7991,5.8002,5.8002,5.8002,5.8002,5.8002,5.8002,5.8002,5.8877,6.0395,6.0395,6.1312,6.2793,6.2793,6.2793,6.2793,6.2793,6.2793,6.2793,6.2793,6.2793,6.2793,5.1808,5.1524,5.1207,5.0756,5.104,5.1476,5.2012,5.2485,5.3063,5.3835,5.3935,5.4252,5.5065,5.5139,5.5469,5.6271,5.6345,5.6693,5.7483,5.7538,5.7538,5.7538,5.7831,5.8002,5.8002,5.8002,5.8002,5.8002,5.8002,5.8002,5.8002,5.8002,5.8002,5.8002,5.8002,5.8002,5.8002,5.8002,5.8002,5.8002,5.8002,5.8002,5.8002,5.8002,5.8002,5.8002,5.8002,5.8002,5.8002,5.8002,5.8002,5.8002,5.8002,5.8002,5.8002,5.8002,5.8002,5.8002,5.8002,5.8002,5.8002,5.8002,5.8002,5.8002,5.8002,5.8002,5.8002,5.8002,5.8002,5.8002,5.8002,5.8002,5.8002,5.8002,0.0,5.8002,5.8002,5.8002,5.8002,5.8002,5.8002,5.8002,5.8002,5.8002,5.8002,5.8002,5.8002,5.8002,5.8002,5.8002,5.8002,5.8002,5.7726,5.772,5.7997,5.8002,5.8002,5.8002,5.8002,5.8002,5.8002,5.8002,5.8877,6.0395,6.0395,6.1312,6.2793,6.2793,6.2793,6.2793,6.2793,6.2793,6.2793,6.2793,6.2793,6.2793,5.2207,5.1928,5.1716,5.1456,5.1783,5.2171,5.2404,5.3094,5.377,5.4326,5.4625,5.5078,5.5891,5.5983,5.6295,5.711,5.7183,5.7409,5.796,5.8002,5.8002,5.8002,5.8002,5.8002,5.8002,5.8002,5.8002,5.8002,5.8002,5.8002,5.8002,5.8002,5.8002,5.8002,5.8002,5.8002,5.8002,5.8002,5.8002,5.8002,5.8002,5.8002,5.8002,5.8002,5.8002,5.8002,5.8002,5.8002,5.8002,5.8002,5.8002,5.8002,5.8002,5.8002,5.8002,5.8002,5.8002,5.8002,5.8002,5.8002,5.8002,5.8002,5.8002,5.8002,5.8002,5.8002,5.8002,5.8002,5.8002,5.8002,5.8002,5.8002,5.8002,5.8002,5.8002,5.8002,5.8002,5.8002,5.8002,5.8002,5.8002,5.8002,5.8002,5.8002,5.8002,5.8002,5.8002,5.8002,5.8002,5.8002,5.8002,5.8002,5.8002,5.8002,5.8002,5.8002,5.8002,5.8002,5.8002,5.8002,5.8002,5.8002,5.8877,6.0395,6.0395,6.1312,6.2793,6.2793,6.2793,6.2793,6.2793,6.2793,6.2793,6.2793,6.2793,6.2793,5.2112,5.1569,5.1324,5.1988,5.2112,5.2358,5.3111,5.3898,5.4399,5.4418,5.5102,5.591,5.6725,5.6816,5.7128,5.7923,5.8002,5.8002,5.8002,5.8002,5.8002,5.8002,5.8002,5.8002,5.8002,5.8002,5.8002,5.8002,5.8002,5.8002,5.8002,5.8002,5.8002,5.8002,5.8002,5.8002,5.8002,5.8002,5.8002,5.8002,5.8002,5.8002,5.8002,5.8002,5.8002,5.8002,5.8002,5.8002,5.8002,5.8002,5.8002,5.8002,5.8002,5.8002,5.8002,5.8002,5.8002,5.8002,5.8002,5.8002,5.8002,5.8002,5.8002,5.8002,5.8002,5.8002,5.8002,5.8002,5.8002,5.8002,5.8002,5.8002,5.8002,5.8002,5.8002,5.8002,5.8002,5.8002,5.8002,5.8002,5.8002,5.8002,5.8002,5.8002,5.8002,5.8002,5.8002,5.8002,5.8002,5.8002,5.8002,5.8002,5.8002,5.8002,5.8002,5.8002,5.8002,5.8002,5.8002,5.8002,5.8002,5.8002,5.8877,6.0395,6.0395,6.1312,6.2793,6.2793,6.2793,6.2793,6.2793,6.2793,6.2793,6.2793,6.2793,6.2793,5.2864,5.2708,5.2647,5.2837,5.2864,5.3149,5.3927,5.4252,5.4803,5.5935,5.6284,5.6748,5.7556,5.7648,5.774,5.7984,5.8002,5.8002,5.8002,5.8002,5.8002,5.8002,5.8002,5.8002,5.8002,5.8002,5.8002,5.8002,5.8002,5.8002,5.8002,5.8002,5.8002,5.8002,5.8002,5.8002,5.8002,5.8002,5.8002,5.8002,5.8002,5.8002,5.8002,5.8002,5.8002,5.8002,5.8002,5.8002,5.8002,5.8002,5.8002,5.8002,5.8002,5.8002,5.8002,5.8002,5.8002,5.8002,5.8002,5.8002,5.8002,5.8002,5.8002,5.8002,5.8002,5.8002,5.8002,5.8002,5.8002,5.8002,5.8002,5.8002,5.8002,5.8002,5.8002,5.8002,5.8002,5.8002,5.8002,5.8002,5.8002,5.8002,5.8002,5.8002,5.8002,5.8002,5.8002,5.8002,5.8002,5.8002,5.8002,5.8002,5.8002,5.8002,5.8002,5.8002,5.8002,5.8002,5.8002,5.8002,5.8002,5.8002,5.8877,6.0395,6.0395,6.1312,6.2793,6.2793,6.2793,6.2793,6.2793,6.2793,6.2793,6.2793,6.2793,6.2793,5.3196,5.3196,5.3306,5.3623,5.3673,5.3953,5.4748,5.5133,5.5697,5.6669,5.7073,5.7464,5.7947,5.8002,5.8002,5.8002,5.8002,5.8002,5.8002,5.8002,5.8002,5.8002,5.8002,5.8002,5.8002,5.8002,5.8002,5.8002,5.8002,5.8002,5.8002,5.8002,5.8002,5.8002,5.8002,5.8002,5.8002,5.8002,5.8002,5.8002,5.8002,5.8002,5.8002,5.8002,5.8002,5.8002,5.8002,5.8002,5.8002,5.8002,5.8002,5.8002,5.8002,5.8002,5.8002,5.8002,5.8002,5.8002,5.8002,5.8002,5.8002,5.8002,5.8002,5.8002,5.8002,5.8002,5.8002,5.8002,5.8002,5.8002,5.8002,5.8002,5.8002,5.8002,5.8002,5.8002,5.8002,5.8002,5.8002,5.8002,5.8002,5.8002,5.8002,5.8002,5.8002,5.8002,5.8002,5.8002,5.8002,5.8002,5.8002,5.8002,5.8002,5.8002,5.8002,5.8002,5.8002,5.8002,5.8002,5.8002,5.8002,5.8002,5.8694,5.993,6.0266,6.1129,6.234,6.2664,6.2793,6.2793,6.2793,6.2793,6.2793,6.2793,6.2793,6.2793,5.3196,5.3269,5.355,5.4271,5.4454,5.4785,5.5585,5.6326,5.6835,5.6908,5.7556,5.8002,5.8002,5.8002,5.8002,5.8002,5.8002,5.8002,5.8002,5.8002,5.8002,5.8002,5.8002,5.8002,5.8002,5.8002,5.8002,5.8002,5.8002,5.8002,5.8002,5.8002,5.8002,5.8002,5.8002,5.8002,5.8002,5.8002,5.8002,5.8002,5.8002,5.8002,5.8002,5.8002,5.8002,5.8002,5.8002,5.8002,5.8002,5.8002,5.8002,5.8002,5.8002,5.8002,5.8002,5.8002,5.8002,5.8002,5.8002,5.8002,5.8002,5.8002,5.8002,5.8002,5.8002,5.8002,5.8002,5.8002,5.8002,5.8002,5.8002,5.8002,5.8002,5.8002,5.8002,5.8002,5.8002,5.8002,5.8002,5.8002,5.8002,5.8002,5.8002,5.8002,5.8002,5.8002,5.8002,5.8002,5.8002,5.8002,5.8002,5.8002,5.8002,5.8002,5.8002,5.8002,5.8002,5.8002,5.8002,5.8002,5.8002,5.8002,5.8431,5.9245,6.0046,6.086,6.1655,6.2469,6.2793,6.2793,6.2793,6.2793,6.2793,6.2793,6.2793,6.2793,5.3196,5.3715,5.4197,5.4363,5.4919,5.5616,5.6418,5.6688,5.7036,5.7666,5.7892,5.8002,5.8002,5.8002,5.8002,5.8002,5.8002,5.8002,5.8002,5.8002,5.8002,5.8002,5.8002,5.8002,5.8002,5.8002,5.8002,5.8002,5.8002,5.8002,5.8002,5.8002,5.8002,5.8002,5.8002,5.8002,5.8002,5.8002,5.8002,5.8002,5.8002,5.8002,5.8002,5.8002,5.8002,5.8002,5.8002,5.8002,5.8002,5.8002,5.8002,5.8002,5.8002,5.8002,5.8002,5.8002,5.8002,5.8002,5.8002,5.8002,5.8002,5.8002,5.8002,5.8002,5.8002,5.8002,5.8002,5.8002,5.8002,5.8002,5.8002,5.8002,5.8002,5.8002,5.8002,5.8002,5.8002,5.8002,5.8002,5.8002,5.8002,5.8002,5.8002,5.8002,5.8002,5.8002,5.8002,5.8002,5.8002,5.8002,5.8002,5.8002,5.8002,5.8002,5.8002,5.8002,5.8002,5.8002,5.8002,5.8002,5.8002,5.8002,5.8431,5.9245,6.0046,6.086,6.1655,6.2469,6.2793,6.2793,6.2793,6.2793,6.2793,6.2793,6.2793,6.2793,5.377,5.4418,5.5084,5.5482,5.5886,5.6436,5.7244,5.7367,5.7519,5.7941,5.8002,5.8002,5.8002,5.8002,5.8002,5.8002,5.8002,5.8002,5.8002,5.8002,5.8002,5.8002,5.8002,5.8002,5.8002,5.8002,5.8002,5.8002,5.8002,5.8002,5.8002,5.8002,5.8002,5.8002,5.8002,5.8002,5.8002,5.8002,5.8002,5.8002,5.8002,5.8002,5.8002,5.8002,5.8002,5.8002,5.8002,5.8002,5.8002,5.8002,5.8002,5.8002,5.8002,5.8002,5.8002,5.8002,5.8002,5.8002,5.8002,5.8002,5.8002,5.8002,5.8002,5.8002,5.8002,5.8002,5.8002,5.8002,5.8002,5.8002,5.8002,5.8002,5.8002,5.8002,5.8002,5.8002,5.8002,5.8002,5.8002,5.8002,5.8002,5.8002,5.8002,5.8002,5.8002,5.8002,5.8002,5.8002,5.8002,5.8002,5.8002,5.8002,5.8002,5.8002,5.8002,5.8002,5.8002,5.8002,5.8002,5.8002,5.8002,5.8002,5.8235,5.8682,5.9881,6.0639,6.1117,6.2316,6.2793,6.2793,6.2793,6.2793,6.2793,6.2793,6.2793,6.2793,5.4601,5.5249,5.602,5.6688,5.6902,5.722,5.7905,5.8002,5.8002,5.8002,5.8002,5.8002,5.8002,5.8002,5.8002,5.8002,5.8002,5.8002,5.8002,5.8002,5.8002,5.8002,5.8002,5.8002,5.8002,5.8002,5.8002,5.8002,5.8002,5.8002,5.8002,5.8002,5.8002,5.8002,5.8002,5.8002,5.8002,5.8002,5.8002,5.8002,5.8002,5.8002,5.8002,5.8002,5.8002,5.8002,5.8002,5.8002,5.8002,5.8002,5.8002,5.8002,5.8002,5.8002,5.8002,5.8002,5.8002,5.8002,5.8002,5.8002,5.8002,5.8002,5.8002,5.8002,5.8002,5.8002,5.8002,5.8002,5.8002,5.8002,5.8002,5.8002,5.8002,5.8002,5.8002,5.8002,5.8002,5.8002,5.8002,5.8002,5.8002,5.8002,5.8002,5.8002,5.8002,5.8002,5.8002,5.8002,5.8002,5.8002,5.8002,5.8002,5.8002,5.8002,5.8002,5.8002,5.8002,5.8002,5.8002,5.8002,5.8002,5.8002,5.8002,5.8076,5.9551,6.0266,6.0505,6.1991,6.2683,6.2793,6.2793,6.2793,6.2793,6.2793,6.2793,6.2793,5.5438,5.6088,5.6669,5.678,5.7373,5.7868,5.7984,5.8002,5.8002,5.8002,5.8002,5.8002,5.8002,5.8002,5.8002,5.8002,5.8002,5.8002,5.8002,5.8002,5.8002,5.8002,5.8002,5.8002,5.8002,5.8002,5.8002,5.8002,5.8002,5.8002,5.8002,5.8002,5.8002,5.8002,5.8002,5.8002,5.8002,5.8002,5.8002,5.8002,5.8002,5.8002,5.8002,5.8002,5.8002,5.8002,5.8002,5.8002,5.8002,5.8002,5.8002,5.8002,5.8002,5.8002,5.8002,5.8002,5.8002,5.8002,5.8002,5.8002,5.8002,5.8002,5.8002,5.8002,5.8002,5.8002,5.8002,5.8002,5.8002,5.8002,5.8002,5.8002,5.8002,5.8002,5.8002,5.8002,5.8002,5.8002,5.8002,5.8002,5.8002,5.8002,5.8002,5.8002,5.8002,5.8002,5.8002,5.8002,5.8002,5.8002,5.8002,5.8002,5.8002,5.8002,5.8002,5.8002,5.8002,5.8002,5.8002,5.8002,5.8002,5.8002,5.8002,5.8052,5.8982,5.9765,6.0468,6.1392,6.2175,6.2793,6.2793,6.2793,6.2793,6.2793,6.2793,6.2793,5.6271,5.6914,5.7464,5.7464,5.7758,5.8002,5.8002,5.8002,5.8002,5.8002,5.8002,5.8002,5.8002,5.8002,5.8002,5.8002,5.8002,5.8002,5.8002,5.8002,5.8002,5.8002,5.8002,5.8002,5.8002,5.8002,5.8002,5.8002,5.8002,5.8002,5.8002,5.8002,5.8002,5.8002,5.8002,5.8002,5.8002,5.8002,5.8002,5.8002,5.8002,5.8002,5.8002,5.8002,5.8002,5.8002,5.8002,5.8002,5.8002,5.8002,5.8002,5.8002,5.8002,5.8002,5.8002,5.8002,5.8002,5.8002,5.8002,5.8002,5.8002,5.8002,5.8002,5.8002,5.8002,5.8002,5.8002,5.8002,5.8002,5.8002,5.8002,5.8002,5.8002,5.8002,5.8002,5.8002,5.8002,5.8002,5.8002,5.8002,5.8002,5.8002,5.8002,5.8002,5.8002,5.8002,5.8002,5.8002,5.8002,5.8002,5.8002,5.8002,5.8002,5.8002,5.8002,5.8002,5.8002,5.8002,5.8002,5.8002,5.8002,5.8002,5.8002,5.8033,5.8847,5.9392,5.9783,6.0597,6.1392,6.2126,6.2126,6.2395,6.2793,6.2793,6.2793,6.2793]},{"header":{"parameterUnit":"m.s-1","parameterCategory":1,"la1":30.6,"la2":28.766,"lo1":-90.7593,"lo2":-88.6598,"dy":0.0162,"dx":0.0183,"nx":116,"ny":114,"refTime":"2023-11-11T06:00:00:Z","depth":0,"parameterNumber":3,"parameterNumberName":"V-component_of_WINDS"},"data":[0.0,0.0,0.0,0.0,0.0,0.0,0.0,0.0,0.0,0.0,0.0,0.0,0.0,0.0,0.0,0.0,0.0,0.0,0.0,0.0,0.0,0.0,0.0,0.0,0.0,0.0,0.0,0.0,0.0,0.0,0.0,0.0,0.0,0.0,0.0,0.0,0.0,0.0,0.0,0.0,0.0,0.0,0.0,0.0,0.0,0.0,0.0,0.0,0.0,0.0,0.0,0.0,0.0,0.0,0.0,0.0,0.0,0.0,0.0,0.0,0.0,0.0,0.0,0.0,0.0,0.0,0.0,0.0,0.0,0.0,0.0,0.0,0.0,0.0,0.0,0.0,0.0,0.0,0.0,0.0,0.0,0.0,0.0,0.0,0.0,0.0,0.0,0.0,0.0,0.0,0.0,0.0,0.0,0.0,0.0,0.0,0.0,0.0,0.0,0.0,0.0,0.0,0.0,0.0,0.0,0.0,0.0,0.0,0.0,0.0,0.0,0.0,0.0,0.0,0.0,0.0,0.0,0.0,0.0,0.0,0.0,0.0,0.0,0.0,0.0,0.0,0.0,0.0,0.0,0.0,0.0,0.0,0.0,0.0,0.0,0.0,0.0,0.0,0.0,0.0,0.0,0.0,0.0,0.0,0.0,0.0,0.0,0.0,0.0,0.0,0.0,0.0,0.0,0.0,0.0,0.0,0.0,0.0,0.0,0.0,0.0,0.0,0.0,0.0,0.0,0.0,0.0,0.0,0.0,0.0,0.0,0.0,0.0,0.0,0.0,0.0,0.0,0.0,0.0,0.0,0.0,0.0,0.0,0.0,0.0,0.0,0.0,0.0,0.0,0.0,0.0,0.0,0.0,0.0,0.0,0.0,0.0,0.0,0.0,0.0,0.0,0.0,0.0,0.0,0.0,0.0,0.0,0.0,0.0,0.0,0.0,0.0,0.0,0.0,0.0,0.0,0.0,0.0,0.0,0.0,0.0,0.0,0.0,0.0,0.0,0.0,0.0,0.0,0.0,0.0,0.0,0.0,0.0,0.0,0.0,0.0,0.0,0.0,0.0,0.0,0.0,0.0,0.0,0.0,0.0,0.0,0.0,0.0,0.0,0.0,0.0,0.0,0.0,0.0,0.0,0.0,0.0,0.0,0.0,0.0,0.0,0.0,0.0,0.0,0.0,0.0,0.0,0.0,0.0,0.0,0.0,0.0,0.0,0.0,0.0,0.0,0.0,0.0,0.0,0.0,0.0,0.0,0.0,0.0,0.0,0.0,0.0,0.0,0.0,0.0,0.0,0.0,0.0,0.0,0.0,0.0,0.0,0.0,0.0,0.0,0.0,0.0,0.0,0.0,0.0,0.0,0.0,0.0,0.0,0.0,0.0,0.0,0.0,0.0,0.0,0.0,0.0,0.0,0.0,0.0,0.0,0.0,0.0,0.0,0.0,0.0,0.0,0.0,0.0,0.0,0.0,0.0,0.0,0.0,0.0,0.0,0.0,0.0,0.0,0.0,0.0,0.0,0.0,0.0,0.0,0.0,0.0,0.0,0.0,0.0,0.0,0.0,0.0,0.0,0.0,0.0,0.0,0.0,0.0,0.0,0.0,0.0,0.0,0.0,0.0,0.0,0.0,0.0,0.0,0.0,0.0,0.0,0.0,0.0,0.0,0.0,0.0,0.0,0.0,0.0,0.0,0.0,0.0,0.0,0.0,0.0,0.0,0.0,0.0,0.0,0.0,0.0,0.0,0.0,0.0,0.0,0.0,0.0,0.0,0.0,0.0,0.0,0.0,0.0,0.0,0.0,0.0,0.0,0.0,0.0,0.0,0.0,0.0,0.0,0.0,0.0,0.0,0.0,0.0,0.0,0.0,0.0,0.0,0.0,0.0,0.0,0.0,0.0,0.0,0.0,0.0,0.0,0.0,0.0,0.0,0.0,0.0,0.0,0.0,0.0,0.0,0.0,0.0,0.0,0.0,0.0,0.0,0.0,0.0,0.0,0.0,0.0,0.0,0.0,0.0,0.0,0.0,0.0,0.0,0.0,0.0,0.0,0.0,0.0,0.0,0.0,0.0,0.0,0.0,0.0,0.0,0.0,0.0,0.0,0.0,0.0,0.0,0.0,0.0,0.0,0.0,0.0,0.0,0.0,0.0,0.0,0.0,0.0,0.0,0.0,0.0,0.0,0.0,0.0,0.0,0.0,0.0,0.0,0.0,0.0,0.0,0.0,0.0,0.0,0.0,0.0,0.0,0.0,0.0,0.0,0.0,0.0,0.0,0.0,0.0,0.0,0.0,0.0,0.0,0.0,0.0,0.0,0.0,0.0,0.0,0.0,0.0,0.0,0.0,0.0,0.0,0.0,0.0,0.0,0.0,0.0,0.0,0.0,0.0,0.0,0.0,0.0,0.0,0.0,0.0,0.0,0.0,0.0,0.0,0.0,0.0,0.0,0.0,0.0,0.0,0.0,0.0,0.0,0.0,0.0,0.0,0.0,0.0,0.0,0.0,0.0,0.0,0.0,0.0,0.0,0.0,0.0,0.0,0.0,0.0,0.0,0.0,0.0,0.0,0.0,0.0,0.0,0.0,0.0,0.0,0.0,0.0,0.0,0.0,0.0,0.0,0.0,0.0,0.0,0.0,0.0,0.0,0.0,0.0,0.0,0.0,0.0,0.0,0.0,0.0,0.0,0.0,0.0,0.0,0.0,0.0,0.0,0.0,0.0,0.0,0.0,0.0,0.0,0.0,0.0,0.0,0.0,0.0,0.0,0.0,0.0,0.0,0.0,0.0,0.0,0.0,0.0,0.0,0.0,0.0,0.0,0.0,0.0,0.0,0.0,0.0,0.0,0.0,0.0,0.0,0.0,0.0,0.0,0.0,0.0,0.0,0.0,0.0,0.0,0.0,0.0,0.0,0.0,0.0,0.0,0.0,0.0,0.0,0.0,0.0,0.0,0.0,0.0,0.0,0.0,0.0,0.0,0.0,0.0,0.0,0.0,0.0,0.0,0.0,0.0,0.0,0.0,0.0,0.0,0.0,0.0,0.0,0.0,0.0,0.0,0.0,0.0,0.0,0.0,0.0,0.0,0.0,0.0,0.0,0.0,0.0,0.0,0.0,0.0,0.0,0.0,0.0,0.0,0.0,0.0,0.0,0.0,0.0,0.0,0.0,0.0,0.0,0.0,0.0,0.0,0.0,0.0,0.0,0.0,0.0,0.0,0.0,0.0,0.0,0.0,0.0,0.0,0.0,0.0,0.0,0.0,0.0,0.0,0.0,0.0,0.0,0.0,0.0,0.0,0.0,0.0,0.0,0.0,0.0,0.0,0.0,0.0,0.0,0.0,0.0,0.0,0.0,0.0,0.0,0.0,0.0,0.0,0.0,0.0,0.0,0.0,0.0,0.0,0.0,0.0,0.0,0.0,0.0,0.0,0.0,0.0,0.0,0.0,0.0,0.0,0.0,0.0,0.0,0.0,0.0,0.0,0.0,0.0,0.0,0.0,0.0,0.0,0.0,0.0,0.0,0.0,0.0,0.0,0.0,0.0,0.0,0.0,0.0,0.0,0.0,0.0,0.0,0.0,0.0,0.0,0.0,0.0,0.0,0.0,0.0,0.0,0.0,0.0,0.0,0.0,0.0,0.0,0.0,0.0,0.0,0.0,0.0,0.0,0.0,0.0,0.0,0.0,0.0,0.0,0.0,0.0,0.0,0.0,0.0,0.0,0.0,0.0,0.0,0.0,0.0,0.0,0.0,0.0,0.0,0.0,0.0,0.0,0.0,0.0,0.0,0.0,0.0,0.0,0.0,0.0,0.0,0.0,0.0,0.0,0.0,0.0,0.0,0.0,0.0,0.0,0.0,0.0,0.0,0.0,0.0,0.0,0.0,0.0,0.0,0.0,0.0,0.0,0.0,0.0,0.0,0.0,0.0,0.0,0.0,0.0,0.0,0.0,0.0,0.0,0.0,0.0,0.0,0.0,0.0,0.0,0.0,0.0,0.0,0.0,0.0,0.0,0.0,0.0,0.0,0.0,0.0,0.0,0.0,0.0,0.0,0.0,0.0,0.0,0.0,0.0,0.0,0.0,0.0,0.0,0.0,0.0,0.0,0.0,0.0,0.0,0.0,0.0,0.0,0.0,0.0,0.0,0.0,0.0,0.0,0.0,0.0,0.0,0.0,0.0,0.0,0.0,0.0,0.0,0.0,0.0,0.0,0.0,0.0,0.0,0.0,0.0,0.0,0.0,0.0,0.0,0.0,0.0,0.0,0.0,0.0,0.0,0.0,0.0,0.0,0.0,0.0,0.0,0.0,0.0,0.0,0.0,0.0,0.0,0.0,0.0,0.0,0.0,0.0,0.0,0.0,0.0,0.0,0.0,0.0,0.0,0.0,0.0,0.0,0.0,0.0,0.0,0.0,0.0,0.0,0.0,0.0,0.0,0.0,0.0,0.0,0.0,0.0,0.0,0.0,0.0,0.0,0.0,0.0,0.0,0.0,0.0,0.0,0.0,0.0,0.0,0.0,0.0,0.0,0.0,0.0,0.0,0.0,0.0,0.0,0.0,0.0,0.0,0.0,0.0,0.0,0.0,0.0,0.0,0.0,0.0,0.0,0.0,0.0,0.0,0.0,0.0,0.0,0.0,0.0,0.0,0.0,0.0,0.0,0.0,0.0,0.0,0.0,0.0,0.0,0.0,0.0,0.0,0.0,0.0,0.0,0.0,0.0,0.0,0.0,0.0,0.0,0.0,0.0,0.0,0.0,0.0,0.0,0.0,0.0,0.0,0.0,0.0,0.0,0.0,0.0,0.0,0.0,0.0,0.0,0.0,0.0,0.0,0.0,0.0,0.0,0.0,0.0,0.0,0.0,0.0,0.0,0.0,0.0,0.0,0.0,0.0,0.0,0.0,0.0,0.0,0.0,0.0,0.0,0.0,0.0,0.0,0.0,0.0,0.0,0.0,0.0,0.0,0.0,0.0,0.0,0.0,0.0,0.0,0.0,0.0,0.0,0.0,0.0,0.0,0.0,0.0,0.0,0.0,0.0,0.0,0.0,0.0,0.0,0.0,0.0,0.0,0.0,0.0,0.0,0.0,0.0,0.0,0.0,0.0,0.0,0.0,0.0,0.0,0.0,0.0,0.0,0.0,0.0,0.0,0.0,0.0,0.0,0.0,0.0,0.0,0.0,0.0,0.0,0.0,0.0,0.0,0.0,0.0,0.0,0.0,0.0,0.0,0.0,0.0,0.0,0.0,0.0,0.0,0.0,0.0,0.0,0.0,0.0,0.0,0.0,0.0,0.0,0.0,0.0,0.0,0.0,0.0,0.0,0.0,0.0,0.0,0.0,0.0,0.0,0.0,0.0,0.0,0.0,0.0,0.0,0.0,0.0,0.0,0.0,0.0,0.0,0.0,0.0,0.0,0.0,0.0,0.0,0.0,0.0,0.0,0.0,0.0,0.0,0.0,0.0,0.0,0.0,0.0,0.0,0.0,0.0,0.0,0.0,0.0,0.0,0.0,0.0,0.0,0.0,0.0,0.0,0.0,0.0,0.0,0.0,0.0,0.0,0.0,0.0,0.0,0.0,0.0,0.0,0.0,0.0,0.0,0.0,0.0,0.0,0.0,0.0,0.0,0.0,0.0,0.0,0.0,0.0,0.0,0.0,0.0,0.0,0.0,0.0,0.0,0.0,0.0,0.0,0.0,0.0,0.0,0.0,0.0,0.0,0.0,0.0,0.0,0.0,0.0,0.0,0.0,0.0,0.0,0.0,0.0,0.0,0.0,0.0,0.0,0.0,0.0,0.0,0.0,0.0,0.0,0.0,0.0,0.0,0.0,0.0,0.0,0.0,0.0,0.0,0.0,0.0,0.0,0.0,0.0,0.0,0.0,0.0,0.0,0.0,0.0,0.0,0.0,0.0,0.0,0.0,0.0,0.0,0.0,0.0,0.0,0.0,0.0,0.0,0.0,0.0,0.0,0.0,0.0,0.0,0.0,0.0,0.0,0.0,0.0,0.0,0.0,0.0,0.0,0.0,0.0,0.0,0.0,0.0,0.0,0.0,0.0,0.0,0.0,0.0,0.0,0.0,0.0,0.0,0.0,0.0,0.0,3.6093,0.0,0.0,0.0,0.0,0.0,0.0,0.0,0.0,0.0,0.0,0.0,0.0,0.0,0.0,0.0,0.0,0.0,0.0,0.0,0.0,0.0,0.0,0.0,0.0,0.0,0.0,0.0,0.0,0.0,0.0,0.0,0.0,0.0,0.0,0.0,0.0,0.0,0.0,2.3091,2.3091,2.3091,2.3091,2.3091,2.3091,2.3091,0.0,0.0,0.0,0.0,0.0,0.0,0.0,0.0,0.0,0.0,0.0,0.0,0.0,0.0,0.0,0.0,0.0,0.0,0.0,0.0,0.0,0.0,0.0,0.0,0.0,0.0,0.0,0.0,0.0,0.0,0.0,0.0,0.0,0.0,0.0,0.0,0.0,0.0,0.0,0.0,0.0,0.0,0.0,0.0,0.0,0.0,0.0,0.0,0.0,0.0,0.0,0.0,0.0,0.0,0.0,0.0,0.0,0.0,0.0,0.0,0.0,0.0,0.0,0.0,0.0,0.0,0.0,0.0,0.0,0.0,0.0,3.6675,0.0,0.0,0.0,0.0,0.0,0.0,0.0,0.0,0.0,0.0,0.0,0.0,0.0,0.0,0.0,0.0,0.0,0.0,0.0,0.0,0.0,0.0,0.0,2.0605,2.0605,2.0605,2.1397,2.1895,0.0,0.0,0.0,0.0,0.0,0.0,2.3091,2.3091,2.3091,2.3091,2.3091,2.3091,2.3091,2.3091,2.3091,2.3091,2.3091,0.0,0.0,0.0,0.0,0.0,0.0,0.0,0.0,0.0,0.0,0.0,0.0,0.0,0.0,0.0,0.0,0.0,0.0,0.0,0.0,0.0,0.0,0.0,0.0,0.0,0.0,0.0,0.0,0.0,0.0,0.0,0.0,0.0,0.0,0.0,0.0,0.0,0.0,0.0,0.0,0.0,0.0,0.0,0.0,0.0,0.0,0.0,0.0,0.0,0.0,0.0,0.0,0.0,0.0,0.0,0.0,0.0,0.0,0.0,0.0,0.0,0.0,0.0,3.9784,3.9455,4.0379,3.9493,3.9564,4.0369,3.9473,3.9355,3.9665,0.0,0.0,0.0,0.0,0.0,0.0,0.0,0.0,0.0,0.0,0.0,0.0,0.0,0.0,0.0,0.0,0.0,0.0,0.0,0.0,0.0,0.0,2.0605,2.0605,2.0605,2.1397,2.1895,2.1895,0.0,0.0,0.0,0.0,0.0,2.3091,2.3091,2.3091,2.3091,2.3091,2.3091,2.3091,2.3091,2.3091,2.3091,2.3091,2.3091,2.3091,0.0,0.0,0.0,0.0,0.0,0.0,0.0,0.0,0.0,0.0,0.0,0.0,0.0,0.0,0.0,0.0,0.0,0.0,0.0,0.0,0.0,0.0,0.0,0.0,0.0,0.0,0.0,0.0,0.0,0.0,0.0,0.0,0.0,0.0,0.0,0.0,0.0,0.0,0.0,0.0,0.0,3.7233,3.632,0.0,0.0,0.0,0.0,0.0,0.0,0.0,0.0,0.0,0.0,0.0,0.0,0.0,0.0,4.1268,4.122,4.1549,4.2266,4.1984,4.2188,4.2833,4.2698,4.2698,4.2833,4.2688,0.0,3.9784,3.9492,0.0,0.0,0.0,0.0,0.0,0.0,0.0,0.0,0.0,0.0,0.0,0.0,0.0,0.0,0.0,0.0,0.0,0.0,0.0,0.0,0.0,2.0605,2.0684,2.0918,2.1534,2.2003,2.2217,2.2781,0.0,0.0,0.0,2.3091,2.3091,2.3091,2.3091,2.3091,2.3091,2.3091,2.3091,2.3091,2.3091,2.3091,2.3091,2.3091,2.3091,2.3091,0.0,0.0,0.0,0.0,0.0,0.0,0.0,0.0,0.0,0.0,0.0,0.0,0.0,0.0,0.0,0.0,0.0,0.0,0.0,0.0,0.0,0.0,0.0,0.0,0.0,0.0,0.0,0.0,0.0,0.0,0.0,0.0,0.0,0.0,0.0,0.0,0.0,0.0,0.0,3.762,3.7625,3.7156,3.7932,3.8318,0.0,0.0,0.0,0.0,0.0,0.0,0.0,0.0,0.0,4.1388,4.1772,4.1967,4.1967,4.2297,4.2626,4.291,4.291,4.3035,4.33,4.33,4.33,4.33,4.33,4.235,4.0807,4.0807,4.0249,3.9301,0.0,0.0,0.0,0.0,3.8601,3.8772,0.0,0.0,0.0,0.0,0.0,0.0,0.0,0.0,0.0,0.0,0.0,0.0,2.0605,2.0684,2.0869,2.1161,2.1718,2.2178,2.248,2.2888,2.3091,2.3091,2.3091,2.3091,2.3091,2.3091,2.3091,2.3091,2.3091,2.3091,2.3091,2.3091,2.3091,2.3091,2.3091,2.3091,2.3091,2.3091,2.3091,2.3091,0.0,0.0,0.0,0.0,0.0,0.0,0.0,0.0,0.0,0.0,0.0,0.0,0.0,0.0,0.0,0.0,0.0,0.0,0.0,0.0,0.0,0.0,0.0,0.0,0.0,0.0,0.0,0.0,0.0,0.0,0.0,0.0,0.0,0.0,0.0,0.0,0.0,3.8708,3.8215,3.8215,3.8355,3.8471,0.0,0.0,0.0,0.0,0.0,0.0,4.1613,4.1667,4.1733,4.1888,4.2376,4.2631,4.2631,4.307,4.33,4.33,4.33,4.33,4.33,4.33,4.33,4.33,4.33,4.2654,4.1618,4.1902,4.1695,4.1106,4.0554,4.0159,3.9887,3.9724,3.9673,3.9841,0.0,0.0,0.0,0.0,0.0,0.0,0.0,0.0,0.0,0.0,0.0,2.0605,2.0605,2.0947,2.1181,2.12,2.1981,2.248,2.2499,2.2888,2.3091,2.3091,2.3091,2.3091,2.3091,2.3091,2.3091,2.3091,2.3091,2.3091,2.3091,2.3091,2.3091,2.3091,2.3091,2.3091,2.3091,2.3091,2.3091,2.3091,2.3091,0.0,0.0,0.0,0.0,0.0,0.0,0.0,0.0,0.0,0.0,0.0,0.0,0.0,0.0,0.0,0.0,0.0,0.0,0.0,0.0,0.0,0.0,0.0,0.0,0.0,0.0,0.0,0.0,0.0,0.0,0.0,0.0,0.0,0.0,0.0,0.0,0.0,0.0,3.9319,3.988,0.0,0.0,0.0,0.0,4.1343,4.1343,4.1637,4.2306,4.2351,4.2616,4.3195,4.324,4.3255,4.3255,4.3285,4.33,4.33,4.33,4.33,4.33,4.33,4.33,4.33,4.33,4.2654,4.167,4.2765,4.1941,4.0094,4.1116,4.0852,4.0029,4.1073,4.1471,4.1627,0.0,0.0,0.0,0.0,0.0,0.0,0.0,0.0,2.0605,2.0605,2.0605,2.0605,2.0605,2.0957,2.1317,2.1621,2.2167,2.2606,2.2868,2.3024,2.3091,2.3091,2.3091,2.3091,2.3091,2.3091,2.3091,2.3091,2.3091,2.3091,2.3091,2.3091,2.3091,2.3091,2.3091,2.3091,2.3091,2.3091,2.3091,2.3091,2.3091,2.284,0.0,0.0,0.0,0.0,0.0,0.0,0.0,0.0,0.0,0.0,0.0,0.0,0.0,0.0,0.0,0.0,0.0,0.0,0.0,0.0,0.0,0.0,0.0,0.0,0.0,0.0,0.0,0.0,0.0,0.0,0.0,0.0,0.0,0.0,0.0,0.0,0.0,4.0043,4.0645,0.0,0.0,4.1268,4.1577,4.2012,4.2041,4.2316,4.2945,4.2975,4.307,4.33,4.33,4.33,4.33,4.33,4.33,4.33,4.33,4.33,4.33,4.33,4.33,4.326,4.2518,4.156,4.0532,4.094,4.0632,4.0084,4.1957,4.1998,4.1127,4.2269,4.2694,4.2745,0.0,0.0,0.0,0.0,0.0,0.0,0.0,0.0,2.0712,2.103,2.1068,2.1263,2.179,2.1877,2.212,2.2632,2.2693,2.282,2.3081,2.3091,2.3091,2.3091,2.3091,2.3091,2.3091,2.3091,2.3091,2.3091,2.3091,2.3091,2.3091,2.3091,2.3091,2.3091,2.3091,2.3091,2.3091,2.3091,2.3091,2.3091,2.3091,2.2862,2.2448,0.0,0.0,0.0,0.0,0.0,0.0,0.0,0.0,0.0,0.0,0.0,0.0,0.0,0.0,0.0,0.0,0.0,0.0,0.0,0.0,0.0,0.0,0.0,0.0,0.0,0.0,0.0,0.0,0.0,0.0,0.0,0.0,0.0,0.0,0.0,4.0487,4.072,4.1328,4.1742,4.1742,4.1918,4.2232,4.2666,4.2696,4.288,4.3285,4.33,4.33,4.33,4.33,4.33,4.33,4.33,4.33,4.33,4.33,4.33,4.33,4.33,4.3419,4.3598,4.2841,4.1995,4.1175,4.1553,4.0998,4.0052,4.1565,4.1926,4.1695,4.2457,4.2971,4.33,0.0,0.0,0.0,0.0,0.0,0.0,0.0,2.0605,2.0943,2.1877,2.1991,2.2557,2.4084,2.3672,2.3511,2.4094,2.3506,2.3091,2.3091,2.3091,2.3091,2.3091,2.3091,2.3091,2.3091,2.3091,2.3091,2.3091,2.3091,2.3091,2.3091,2.3091,2.3091,2.3091,2.3091,2.3091,2.3091,2.3091,2.3091,2.3091,2.3091,2.2403,2.148,0.0,0.0,0.0,0.0,0.0,0.0,0.0,0.0,0.0,0.0,0.0,0.0,0.0,0.0,0.0,0.0,0.0,0.0,0.0,0.0,0.0,0.0,0.0,0.0,0.0,0.0,0.0,0.0,0.0,0.0,0.0,0.0,0.0,4.0236,4.0423,4.0705,4.1343,4.2027,4.2425,4.2425,4.296,4.33,4.33,4.33,4.33,4.33,4.33,4.33,4.33,4.33,4.33,4.33,4.33,4.3314,4.3329,4.3329,4.3344,4.3359,4.3359,4.3728,4.4326,4.4281,4.399,4.3614,4.4695,4.303,3.9847,3.9964,4.0663,4.1603,4.1634,4.2379,4.3359,0.0,0.0,0.0,0.0,0.0,0.0,2.0605,2.0605,2.0943,2.1877,2.1669,2.1865,2.301,2.2889,2.2785,2.2947,2.3053,2.3091,2.3091,2.3091,2.3091,2.3091,2.3091,2.3091,2.3091,2.3091,2.3091,2.3091,2.3091,2.3091,2.3091,2.3091,2.3091,2.3091,2.3091,2.3091,2.3091,2.3091,2.3091,2.3091,2.3091,2.2895,2.2556,0.0,0.0,0.0,0.0,0.0,0.0,0.0,0.0,0.0,0.0,0.0,0.0,0.0,0.0,0.0,0.0,0.0,0.0,0.0,0.0,0.0,0.0,0.0,0.0,0.0,0.0,0.0,0.0,0.0,0.0,0.0,0.0,4.0515,4.0032,4.1044,4.1922,4.2101,4.2671,4.305,4.305,4.3195,4.33,4.33,4.33,4.33,4.33,4.33,4.33,4.33,4.33,4.33,4.33,4.33,4.3539,4.4027,4.4027,4.4277,4.4751,4.4751,4.4855,4.4979,4.4141,4.3192,4.2183,4.1621,4.0246,3.8782,4.1406,4.2116,4.1763,4.2596,4.37,4.4751,0.0,0.0,0.0,0.0,0.0,0.0,2.0605,2.0605,2.1013,2.2137,2.202,2.2356,2.376,2.3443,2.3226,2.344,2.3248,2.3091,2.3091,2.3091,2.3091,2.3091,2.3091,2.3091,2.3091,2.3091,2.3091,2.3091,2.3091,2.3091,2.3091,2.3091,2.3091,2.3091,2.3091,2.3091,2.3091,2.3091,2.3091,2.3091,2.3091,2.3091,2.3025,2.2317,2.2492,2.3014,2.2306,2.2503,2.3091,2.3091,0.0,0.0,0.0,0.0,0.0,0.0,0.0,0.0,0.0,0.0,0.0,0.0,0.0,0.0,0.0,0.0,0.0,0.0,0.0,0.0,0.0,0.0,0.0,0.0,4.0466,4.169,4.1317,4.1912,4.2491,4.2756,4.3085,4.33,4.33,4.33,4.33,4.33,4.33,4.33,4.33,4.33,4.33,4.33,4.3569,4.3718,4.3718,4.3997,4.4062,4.3927,4.3927,4.4129,4.4507,4.4507,4.4949,0.0,4.5028,4.4163,4.3202,4.2484,4.1136,0.0,0.0,0.0,0.0,0.0,4.467,4.53,0.0,0.0,0.0,0.0,0.0,0.0,2.0605,2.0693,2.1239,2.2532,2.2733,2.3435,2.523,2.4508,2.4085,2.4575,2.3681,2.3091,2.3091,2.3091,2.3091,2.3091,2.3091,2.3091,2.3091,2.3091,2.3091,2.3091,2.3091,2.3091,2.3091,2.3091,2.3091,2.3091,2.3091,2.3091,2.3091,2.3091,2.3091,2.3091,2.3091,2.3091,2.3091,2.3091,2.3091,2.3091,2.3091,2.3091,2.3091,2.3091,0.0,0.0,0.0,0.0,0.0,0.0,0.0,0.0,0.0,0.0,0.0,0.0,0.0,0.0,0.0,0.0,0.0,0.0,0.0,0.0,0.0,0.0,0.0,0.0,4.1765,4.269,4.321,4.2836,4.2696,4.324,4.33,4.33,4.33,4.33,4.33,4.33,4.33,4.33,4.33,0.0,0.0,0.0,0.0,4.4411,4.4411,4.5005,4.4777,4.373,4.373,4.3773,4.3831,4.3689,4.4559,4.6188,4.6059,4.5606,4.4978,4.4978,4.3646,4.1499,4.0491,4.0835,4.2186,4.4472,4.5399,4.5539,0.0,0.0,0.0,0.0,0.0,0.0,2.0605,2.1241,2.1958,2.2609,2.2976,2.3476,2.4238,2.3692,2.3319,2.342,2.3233,2.3091,2.3091,2.3091,2.3091,2.3091,2.3091,2.3091,2.3091,2.3091,2.3091,2.3091,2.3091,2.3091,2.3091,2.3091,2.3091,2.3091,2.3091,2.3091,2.3091,2.3091,2.3091,2.3091,2.3091,2.3091,2.3091,2.3091,2.3091,2.3091,2.3091,2.3091,2.3091,2.3091,2.3091,2.3091,2.3091,2.3091,0.0,0.0,0.0,0.0,0.0,0.0,0.0,0.0,0.0,0.0,0.0,0.0,0.0,0.0,0.0,0.0,0.0,0.0,0.0,4.0738,4.2113,4.3175,4.3285,4.3195,4.3175,4.33,4.33,4.33,4.33,4.33,4.33,4.33,4.33,4.33,4.33,4.3818,0.0,4.4102,4.4755,4.511,4.511,4.524,4.5444,4.5747,0.0,0.0,4.6509,4.5479,4.5213,4.5512,4.4492,4.3393,4.2327,4.2327,4.2047,4.1578,4.1353,4.2038,4.3321,4.4822,4.6032,4.692,0.0,0.0,0.0,0.0,0.0,0.0,2.0605,2.1403,2.226,2.3002,2.3216,2.3583,2.4315,2.3626,2.3091,2.3091,2.3091,2.3091,2.3091,2.3091,2.3091,2.3091,2.3091,2.3091,2.3091,2.3091,2.3091,2.3091,2.3091,2.3091,2.3091,2.3091,2.3091,2.3091,2.3091,2.3091,2.3091,2.3091,2.3091,2.3091,2.3091,2.3091,2.3091,2.3091,2.3091,2.3091,2.3091,2.3091,2.3091,2.3091,2.3091,2.3091,2.3091,2.3269,2.3456,0.0,0.0,0.0,0.0,0.0,0.0,0.0,0.0,0.0,0.0,0.0,0.0,0.0,0.0,3.689,0.0,0.0,4.1397,4.1962,4.2753,4.33,4.33,4.33,4.33,4.33,4.33,4.33,4.33,4.33,4.33,4.33,4.3614,4.3803,4.3803,4.3828,4.3849,4.3849,4.4506,4.4537,4.3897,4.4858,4.4878,4.3956,4.3956,4.4123,4.4419,4.3787,4.3858,4.4407,4.3787,4.2774,4.1555,4.0907,4.0642,4.0642,4.0642,4.1813,4.3657,4.4929,4.5403,4.5573,0.0,0.0,0.0,0.0,0.0,0.0,0.0,2.1597,2.2507,2.3213,2.3377,2.37,2.4385,2.3649,2.3091,2.3091,2.3091,2.3091,2.3091,2.3091,2.3091,2.3091,2.3091,2.3091,2.3091,2.3091,2.3091,2.3091,2.3091,2.3091,2.3091,2.3091,2.3091,2.3091,2.3091,2.3091,2.3091,2.3091,2.3091,2.3091,2.3091,2.3091,2.3091,2.3091,2.3091,2.3091,2.3091,2.3091,2.3091,2.3091,2.3091,2.3121,2.3209,2.3495,2.382,2.3887,2.6067,0.0,0.0,0.0,0.0,0.0,0.0,0.0,0.0,0.0,3.4026,3.4469,3.6189,3.7945,3.8984,4.0677,4.2152,4.286,4.3155,4.33,4.33,4.33,4.33,4.33,4.33,4.33,4.33,4.3419,4.3389,4.3144,4.3752,4.4129,4.4129,4.3556,4.3339,4.3595,4.3991,4.3731,4.2702,4.4248,4.3999,4.1973,4.1973,4.1973,4.1961,4.1702,4.2156,4.3122,4.287,4.218,4.1144,4.0121,3.9697,3.9697,3.9697,4.0944,4.2954,4.448,4.4549,4.4163,0.0,0.0,0.0,0.0,0.0,0.0,0.0,0.0,2.3021,2.2659,2.3379,2.3762,2.3337,2.3178,2.3091,2.3091,2.3091,2.3091,2.3091,2.3091,2.3091,2.3091,2.3091,2.3091,2.3091,2.3091,2.3091,2.3091,2.3091,2.3091,2.3091,2.3091,2.3091,2.3091,2.3091,2.3091,2.3091,2.3091,2.3091,2.3091,2.3091,2.3091,2.3091,2.3091,2.3091,2.3091,2.3091,2.3091,2.3091,2.3091,2.3091,2.317,2.3594,2.3761,2.3878,2.4238,2.5653,2.7368,2.8488,3.0898,3.3102,3.3102,3.3102,3.3217,0.0,0.0,3.4469,3.649,3.793,3.9019,3.9681,4.1614,4.2815,4.1922,4.2644,4.33,4.33,4.33,4.33,4.33,4.33,4.33,4.33,4.3848,4.3719,4.2595,4.312,4.3502,4.3502,4.2939,4.3117,4.4252,4.3846,4.3537,4.3381,4.3592,4.3575,4.3289,4.3289,4.3289,4.3254,4.2119,4.1677,4.1752,4.063,4.0045,3.9903,3.9762,3.9697,3.9697,3.9697,3.9878,4.0427,4.2834,4.4338,4.5229,0.0,0.0,0.0,0.0,0.0,0.0,0.0,0.0,0.0,2.3473,2.3784,2.4012,2.4084,2.3496,2.3091,2.3091,2.3091,2.3091,2.3091,2.3091,2.3091,2.3091,2.3091,2.3091,2.3091,2.3091,2.3091,2.3091,2.3091,2.3091,2.3091,2.3091,2.3091,2.3091,2.3091,2.3091,2.3091,2.3091,2.3091,2.3091,2.3091,2.3091,2.3091,2.3091,2.3091,2.3091,2.3091,2.3091,0.0,2.3091,2.3277,2.3534,2.3742,2.4142,2.4723,2.5599,2.6545,2.7727,2.9668,3.162,3.3102,3.3102,3.333,3.3621,3.3847,3.4388,3.5101,3.6055,3.7449,3.8551,3.8821,4.021,4.1382,0.0,4.1445,4.1782,4.3105,4.2161,4.1683,4.2652,4.2187,4.205,4.2707,4.31,4.2919,4.1944,4.3177,4.3659,4.2913,4.2293,4.2216,4.2751,4.2531,4.2047,4.1307,4.2022,4.2022,4.1294,4.1294,4.1294,4.1269,4.0743,4.0491,4.0453,3.9929,3.9697,3.9697,3.9697,3.9697,3.9697,3.9697,3.9697,3.9916,4.1727,4.2254,4.24,0.0,0.0,0.0,0.0,0.0,0.0,0.0,0.0,0.0,0.0,2.3813,2.3904,2.4287,2.3594,2.3091,2.3091,2.3091,2.3091,2.3091,2.3091,2.3091,2.3091,2.3091,2.3091,2.3091,2.3091,2.3091,2.3091,2.3091,2.3091,2.3091,2.3091,2.3091,2.3091,2.3091,2.3091,2.3091,2.3091,2.3091,2.3091,2.3091,2.3091,2.3091,2.3091,2.3091,2.3091,2.3091,2.3091,2.3091,2.3091,2.3406,2.382,2.3926,2.4484,2.5289,2.6284,2.7293,2.8622,3.1067,3.2404,3.3151,3.328,3.3619,3.3985,3.4275,3.493,3.5545,3.5707,3.6992,3.8007,3.7689,3.8872,4.0059,4.0547,4.0218,4.0482,4.2126,4.1071,4.057,4.1787,4.1063,4.0826,4.1811,4.2314,4.2207,4.1324,4.2727,4.3238,4.2302,4.1502,4.1244,4.1592,4.1257,4.063,3.971,4.063,4.0617,3.9697,3.9697,3.9697,3.9697,3.9697,3.9697,3.9697,3.9697,3.9697,3.9697,3.9697,3.9697,3.9697,3.9697,3.9697,3.9813,4.0743,4.0932,4.1095,0.0,0.0,0.0,0.0,0.0,0.0,0.0,0.0,0.0,0.0,0.0,0.0,0.0,2.3113,2.3091,2.3091,2.3091,2.3091,2.3091,2.3091,2.3091,2.3091,2.3091,2.3091,2.3091,2.3091,2.3091,2.3091,2.3091,2.3091,2.3091,2.3091,2.3091,2.3091,2.3091,2.3091,2.3091,2.3091,2.3091,2.3091,2.3091,2.3091,2.3091,2.3091,2.3091,2.3091,2.3091,2.3091,2.3091,2.3091,2.3406,2.3869,2.4256,2.4707,2.518,2.561,2.745,2.9886,3.2371,3.3068,3.3217,3.3757,3.3884,3.4162,3.5218,3.547,3.567,3.6243,3.7286,3.7756,3.6663,3.8336,3.9525,3.839,3.9161,3.9921,3.9997,4.038,4.0683,4.0755,4.0201,4.005,0.0,4.1778,4.1978,4.0719,4.1285,4.1677,4.1627,4.044,4.0313,4.1567,4.0402,3.9736,3.9697,3.9736,3.9736,3.9697,3.9697,3.9697,3.9697,3.9697,3.9697,3.9697,3.9697,3.9697,3.9697,3.9697,3.9697,3.9697,3.9697,3.9697,3.9697,3.9736,4.1307,4.3218,0.0,0.0,0.0,0.0,0.0,0.0,0.0,0.0,0.0,0.0,0.0,0.0,0.0,0.0,0.0,0.0,2.3091,2.3091,2.3091,2.3091,2.3091,2.3091,2.3091,2.3091,2.3091,2.3091,2.3091,2.3091,2.3091,2.3091,2.3091,2.3091,2.3091,2.3091,2.3091,2.3091,2.3091,2.3091,2.3091,2.3091,2.3091,2.3091,2.3091,2.3091,2.3091,2.3091,0.0,2.3091,2.3151,2.3456,2.3857,2.4287,2.4728,2.5156,2.5694,2.6665,2.8681,3.0776,3.1611,3.273,3.3671,3.3847,3.4438,3.5055,3.542,3.5819,3.6143,3.6355,3.6709,3.6849,3.6476,3.7047,3.7689,3.8039,3.7815,3.8254,4.0167,3.9261,3.8942,4.0449,3.9783,0.0,0.0,0.0,0.0,4.0082,4.099,4.1232,4.0376,3.9929,3.9903,4.0326,3.9916,3.9697,3.9697,3.9697,3.9697,3.9697,3.9697,3.9697,3.9697,3.9697,3.9697,3.9697,3.9697,3.9697,3.9697,3.9697,3.9697,3.9697,3.9697,3.9697,3.9697,3.9697,4.0781,4.218,0.0,0.0,0.0,0.0,0.0,0.0,0.0,0.0,0.0,0.0,0.0,0.0,0.0,0.0,0.0,0.0,0.0,2.3091,2.3091,2.3091,2.3091,2.3091,2.3091,2.3091,2.3091,2.3091,2.3091,2.3091,2.3091,2.3091,2.3091,2.3091,2.3091,2.3091,2.3091,2.3091,2.3091,2.3091,2.3091,2.3091,2.3091,2.3091,2.3091,2.3091,2.3091,0.0,2.3298,2.3347,2.3396,2.3691,2.418,2.4697,2.5004,2.5371,2.6026,2.7744,2.9338,3.0743,3.1633,3.2864,3.3947,3.4137,3.4853,3.557,3.5769,3.6118,3.6393,3.6393,3.6393,3.6393,3.6393,3.6393,3.6639,3.7368,3.705,3.7328,3.9189,3.8499,3.836,3.9826,3.9524,3.9321,0.0,0.0,0.0,3.9749,4.0453,4.0567,3.9736,3.9697,3.9697,3.9697,3.9697,3.9697,3.9697,3.9697,3.9697,3.9697,3.9697,3.9697,3.9697,3.9697,3.9697,3.9697,3.9697,3.9697,3.9697,3.9697,3.9697,3.9697,3.9697,3.9697,3.9697,3.9697,4.0224,4.0919,0.0,0.0,0.0,0.0,0.0,0.0,0.0,0.0,0.0,0.0,0.0,0.0,0.0,0.0,0.0,0.0,0.0,0.0,2.3091,2.3091,2.3091,2.3091,2.3091,2.3091,2.3091,2.3091,2.3091,2.3091,2.3091,2.3091,2.3091,2.3091,2.3091,2.3091,2.3091,2.3091,2.3091,2.3091,2.3091,2.3091,2.3091,2.3091,2.3091,2.3091,2.311,2.319,2.3643,2.383,2.3869,2.3869,2.4462,2.5216,2.5145,2.5486,2.6344,2.8715,2.9441,3.0034,3.2474,3.3531,3.4073,3.4614,3.5143,3.5707,3.6268,3.6393,3.6393,3.6393,3.6393,3.6393,0.0,0.0,3.6393,3.6393,3.6846,3.7211,3.7236,3.8203,3.8906,0.0,0.0,0.0,0.0,0.0,0.0,3.9697,0.0,3.9697,3.9697,3.9697,3.9697,3.9697,3.9697,3.9697,3.9697,3.9697,3.9697,3.9697,3.9697,3.9697,3.9697,3.9697,3.9697,3.9697,3.9697,3.9697,3.9697,3.9697,3.9697,3.9697,3.9697,3.9697,3.9697,3.9697,3.9697,3.9697,0.0,0.0,0.0,0.0,0.0,0.0,0.0,0.0,0.0,0.0,0.0,0.0,0.0,0.0,0.0,0.0,0.0,0.0,2.3091,2.3091,2.3091,2.3091,2.3091,2.3091,2.3091,2.3091,2.3091,2.3091,2.3091,2.3091,2.3091,2.3091,2.3091,2.3091,2.3091,2.3091,2.3091,2.3091,2.3091,2.3091,2.3091,2.3091,2.3091,2.3091,2.3318,2.3633,2.3761,2.4222,2.4769,2.4769,2.5748,2.6796,2.5858,2.6892,2.8588,2.9212,3.0045,3.1172,3.3151,3.4085,3.4628,3.5168,3.5731,3.6218,3.6355,3.6393,3.6393,3.6393,3.6393,3.6393,0.0,0.0,0.0,3.6393,3.6846,0.0,3.7739,3.8429,0.0,3.9446,0.0,3.9697,3.9697,3.9697,0.0,0.0,3.9697,3.9697,3.9697,3.9697,3.9697,3.9697,3.9697,3.9697,3.9697,3.9697,3.9697,3.9697,3.9697,3.9697,3.9697,3.9697,3.9697,3.9697,3.9697,3.9697,3.9697,3.9697,3.9697,3.9697,3.9697,3.9697,3.9697,3.9697,3.9697,3.9697,0.0,0.0,0.0,0.0,0.0,0.0,0.0,0.0,0.0,0.0,0.0,0.0,0.0,0.0,0.0,0.0,0.0,0.0,0.0,2.3091,2.3091,2.3091,2.3091,2.3091,2.3091,2.3091,2.3091,2.3091,2.3091,2.3091,2.309,2.2558,2.2306,2.2284,2.1754,2.1521,2.1521,2.1521,2.1832,0.0,0.0,2.2633,2.312,2.3327,2.3563,2.3849,2.422,2.4797,2.5361,2.5361,2.5988,2.6644,2.5927,2.7042,2.8611,2.8611,2.9841,3.1475,3.2767,3.3895,3.4828,3.5369,3.5956,3.6393,3.6393,3.6393,3.6393,3.6393,3.6393,3.6393,3.6393,3.6393,0.0,0.0,0.0,0.0,3.7965,3.873,3.9358,0.0,3.9697,0.0,3.9697,3.9697,3.9697,0.0,3.9697,3.9697,3.9697,3.9697,3.9697,3.9697,3.9697,3.9697,3.9697,3.9697,3.9697,3.9697,3.9697,3.9697,3.9697,3.9697,3.9697,3.9697,0.0,3.9697,3.9697,3.9697,3.9697,3.9697,3.9697,3.9697,3.9697,3.9697,3.9697,3.9697,0.0,0.0,0.0,0.0,0.0,0.0,0.0,0.0,0.0,0.0,0.0,0.0,0.0,0.0,0.0,0.0,0.0,0.0,0.0,0.0,2.3091,2.3091,2.3091,2.3091,2.3091,2.3091,2.3091,2.3091,2.3091,2.3091,2.3069,2.1856,2.1304,2.1248,2.0045,1.9508,1.9508,1.9508,2.0203,2.1304,2.1304,2.202,2.3151,0.0,2.3839,2.3984,2.4877,2.5398,2.5706,2.5706,2.5817,2.5927,2.5745,2.6682,2.7802,2.7648,2.936,3.1449,3.2029,3.3484,3.4941,3.5482,3.6006,3.6393,3.6393,3.6393,3.6393,3.6393,3.6393,3.6393,3.6393,3.6393,3.6418,3.6494,0.0,3.804,3.8115,3.9032,3.9697,3.9697,3.9697,3.9697,3.9697,3.9697,3.9697,3.9697,3.9697,3.9697,3.9697,3.9697,3.9697,3.9697,3.9697,3.9697,3.9697,3.9697,3.9697,3.9697,3.9697,3.9697,3.9697,3.9697,3.9697,3.9697,0.0,0.0,3.9697,3.9697,3.9697,3.9697,3.9697,3.9697,3.9697,3.9697,3.9697,3.9697,0.0,0.0,0.0,0.0,0.0,0.0,0.0,0.0,0.0,0.0,2.3091,0.0,0.0,0.0,0.0,0.0,0.0,0.0,0.0,0.0,0.0,2.3091,2.3091,2.3091,2.3091,2.3091,2.3091,2.3091,2.3091,2.3091,2.3069,2.1856,2.1304,2.1248,2.0045,1.9508,1.9508,1.9508,2.0203,2.1304,2.1304,2.202,2.3151,2.3623,0.0,0.0,2.5279,2.5637,2.5706,2.5706,2.6392,2.709,2.6026,2.7258,2.8889,2.7885,2.9663,3.2064,3.2611,3.4034,3.5494,3.6093,3.6318,3.6393,3.6393,3.6393,0.0,3.6393,3.6393,3.6393,3.6393,3.6393,3.6544,3.6997,3.7588,3.8165,3.8668,3.9296,3.9697,0.0,3.9697,3.9697,0.0,0.0,0.0,0.0,0.0,3.9697,3.9697,3.9697,3.9697,3.9697,3.9697,3.9697,3.9697,3.9697,3.9697,3.9697,3.9697,3.9697,3.9697,3.9697,3.9697,3.9697,3.9697,0.0,3.9697,3.9697,3.9697,3.9697,3.9697,3.9697,3.9697,3.9697,3.9697,3.9697,0.0,0.0,0.0,0.0,0.0,0.0,0.0,0.0,0.0,2.3091,2.3091,2.3091,0.0,0.0,0.0,0.0,0.0,0.0,0.0,0.0,0.0,2.3091,2.3091,2.3091,2.3091,2.3091,2.3091,2.3091,0.0,2.2786,2.214,2.0924,2.0034,1.9371,1.813,1.7569,1.7569,1.7569,1.8652,2.0361,2.0361,2.1456,2.318,2.3845,0.0,0.0,2.555,2.5706,2.5706,2.5706,2.611,2.65,2.589,2.697,2.8226,2.697,2.9229,3.1921,3.1098,3.3149,3.5481,3.5388,3.5882,3.6393,3.6393,3.6393,3.6393,3.6393,3.6393,3.6393,3.6393,3.6393,3.6582,3.711,3.7651,3.8203,3.8818,3.9358,3.9697,3.9697,3.9697,3.9697,0.0,0.0,0.0,0.0,0.0,3.9697,3.9697,3.9697,3.9697,3.9697,3.9697,3.9697,3.9697,3.9697,3.9697,3.9697,3.9697,3.9697,3.9697,3.9697,3.9697,3.9697,3.9697,0.0,3.9697,3.9697,3.9697,3.9697,3.9697,3.9697,3.9697,3.9697,3.9697,3.9697,0.0,0.0,0.0,0.0,0.0,0.0,0.0,2.3091,2.3091,2.3091,2.3091,2.3091,2.3091,2.3091,2.3091,0.0,0.0,0.0,0.0,0.0,0.0,0.0,0.0,0.0,2.3091,0.0,0.0,2.3091,2.284,0.0,0.0,0.0,0.0,0.0,1.6374,1.5808,1.5808,1.5808,1.7081,0.0,0.0,2.0562,0.0,0.0,0.0,0.0,0.0,2.5706,2.5706,2.5706,2.5706,2.5706,2.5706,2.639,2.6994,2.5989,2.842,3.1075,2.944,3.2063,3.5138,3.4534,3.5403,3.6393,3.6393,3.6393,3.6393,3.6393,3.6393,3.6393,3.6393,3.6393,3.6607,3.7261,3.7726,3.8253,3.8969,3.9434,3.9697,0.0,3.9697,0.0,3.9697,0.0,0.0,0.0,0.0,0.0,3.9697,3.9697,3.9697,3.9697,3.9697,3.9697,3.9697,3.9697,3.9697,3.9697,3.9697,3.9697,3.9697,3.9697,3.9697,3.9697,3.9697,0.0,0.0,3.9697,3.9697,3.9697,3.9697,3.9697,3.9697,3.9697,3.9697,3.9697,0.0,0.0,0.0,0.0,0.0,0.0,0.0,2.3091,2.3091,2.3091,2.3091,2.3091,2.3091,2.3091,2.3091,0.0,0.0,0.0,0.0,0.0,0.0,0.0,0.0,0.0,0.0,0.0,0.0,2.3091,2.1998,0.0,0.0,0.0,0.0,0.0,0.0,1.5808,1.5808,1.5808,0.0,0.0,0.0,0.0,0.0,0.0,0.0,0.0,0.0,2.5706,2.5706,2.5706,2.5706,2.5706,2.5706,2.5781,2.5854,2.572,2.7403,2.9237,2.9044,3.1692,3.4484,3.4422,3.5403,3.6393,3.6393,3.6393,3.6393,3.6393,3.6393,3.6393,3.6393,3.6393,3.6745,3.7764,3.7977,3.8379,3.9471,3.9672,3.9697,3.9697,0.0,0.0,3.9697,0.0,0.0,0.0,0.0,0.0,3.9697,3.9697,3.9697,3.9697,3.9697,3.9697,3.9697,3.9697,3.9697,3.9697,3.9697,3.9697,3.9697,3.9697,3.9697,3.9697,3.9697,0.0,0.0,3.9697,3.9697,3.9697,3.9697,3.9697,3.9697,3.9697,3.9697,3.9697,0.0,0.0,0.0,0.0,0.0,0.0,0.0,2.3091,2.3091,2.3091,2.3091,2.3091,2.3091,2.3091,2.3091,0.0,0.0,0.0,0.0,0.0,0.0,0.0,0.0,0.0,0.0,0.0,0.0,2.3091,0.0,0.0,0.0,0.0,0.0,0.0,0.0,1.5808,1.5849,1.6622,0.0,0.0,0.0,0.0,0.0,0.0,0.0,0.0,0.0,0.0,2.5706,2.5706,2.5706,2.5706,2.5706,2.5893,2.6062,2.5774,2.7466,2.9184,2.8094,3.041,3.3142,3.3142,3.4178,3.5403,3.6227,3.6393,3.6393,3.6393,3.6393,3.6393,3.6393,3.6393,3.6746,3.7826,3.799,3.8404,3.9534,3.9697,3.9697,3.9697,3.9697,0.0,0.0,0.0,0.0,0.0,0.0,0.0,3.9697,3.9697,3.9697,3.9697,3.9697,3.9697,3.9697,3.9697,3.9697,3.9697,3.9697,3.9697,3.9697,3.9697,3.9697,3.9697,3.9697,0.0,0.0,3.9697,3.9697,3.9697,3.9697,3.9697,3.9697,3.9697,3.9697,3.9697,0.0,0.0,0.0,0.0,0.0,0.0,2.3091,2.3091,2.3091,2.3091,2.3091,2.3091,2.3091,2.3091,2.3091,2.3091,0.0,0.0,0.0,0.0,0.0,0.0,0.0,0.0,0.0,0.0,0.0,0.0,0.0,0.0,0.0,0.0,0.0,0.0,0.0,0.0,0.0,0.0,0.0,0.0,0.0,0.0,0.0,0.0,0.0,0.0,0.0,0.0,0.0,0.0,0.0,2.5706,2.5706,2.6023,2.634,2.5991,2.7422,2.8829,2.7545,2.9411,3.1711,3.1711,3.3068,3.4654,3.5595,3.612,3.6393,3.6393,3.6393,3.6393,3.6393,3.6393,3.6746,3.7826,3.799,3.8404,3.9534,3.9697,3.9697,3.9697,0.0,0.0,0.0,0.0,0.0,0.0,0.0,0.0,0.0,3.9697,3.9697,3.9697,3.9697,3.9697,3.9697,3.9697,3.9697,3.9697,3.9697,3.9697,3.9697,3.9697,3.9697,3.9697,0.0,0.0,0.0,3.9697,3.9697,3.9697,3.9697,3.9697,3.9697,3.9697,3.9697,3.9697,0.0,0.0,0.0,0.0,0.0,0.0,0.0,2.3091,2.3091,2.3091,2.3091,2.3091,2.3091,2.3091,2.3091,2.3091,0.0,0.0,0.0,0.0,0.0,0.0,0.0,0.0,0.0,0.0,0.0,0.0,0.0,0.0,0.0,0.0,0.0,0.0,0.0,0.0,0.0,0.0,0.0,0.0,0.0,0.0,2.1549,0.0,0.0,0.0,0.0,0.0,0.0,0.0,0.0,0.0,0.0,2.6023,2.6399,2.6399,2.7018,2.7718,2.7705,2.8981,3.0317,3.0317,3.2378,3.4398,3.4422,3.5439,3.6393,3.6393,3.6393,3.6393,3.6393,3.6393,3.6746,3.7826,3.799,3.8404,3.9534,3.9697,3.9697,0.0,0.0,0.0,0.0,0.0,0.0,0.0,0.0,0.0,0.0,3.9697,3.9697,3.9697,3.9697,3.9697,3.9697,3.9697,3.9697,3.9697,3.9697,3.9697,3.9697,3.9697,3.9697,0.0,0.0,0.0,0.0,3.9697,3.9697,3.9697,3.9697,3.9697,3.9697,3.9697,3.9697,3.9697,0.0,0.0,0.0,0.0,0.0,0.0,0.0,2.3091,2.3091,2.3091,2.3091,2.3091,2.3091,2.3091,2.3091,2.3091,0.0,0.0,0.0,0.0,0.0,0.0,0.0,0.0,0.0,0.0,0.0,0.0,0.0,0.0,0.0,0.0,0.0,0.0,0.0,0.0,0.0,0.0,0.0,0.0,0.0,2.0719,2.2664,0.0,0.0,0.0,0.0,0.0,0.0,0.0,0.0,0.0,0.0,0.0,0.0,2.6728,2.723,2.7705,2.7705,2.8302,2.9154,3.0068,3.0953,3.2088,3.397,3.4727,3.5295,3.6203,3.6393,3.6393,3.6393,3.6393,3.6746,3.7826,3.799,3.8404,3.9534,3.9697,0.0,3.9697,3.9697,0.0,0.0,0.0,0.0,0.0,0.0,0.0,0.0,3.9697,3.9697,3.9697,3.9697,3.9697,3.9697,3.9697,3.9697,3.9697,3.9697,3.9697,3.9697,3.9697,0.0,0.0,0.0,0.0,0.0,3.9697,3.9697,3.9697,3.9697,3.9697,3.9697,3.9697,3.9697,3.9697,0.0,0.0,0.0,0.0,0.0,0.0,0.0,2.3091,2.3091,2.3091,2.3091,2.3091,2.3091,2.3091,2.2917,2.2459,0.0,0.0,0.0,0.0,0.0,0.0,0.0,0.0,0.0,0.0,0.0,0.0,0.0,0.0,0.0,0.0,0.0,0.0,0.0,0.0,0.0,0.0,0.0,0.0,2.0305,2.1355,2.318,0.0,0.0,0.0,0.0,0.0,0.0,0.0,0.0,0.0,0.0,0.0,0.0,0.0,2.7207,2.7503,2.7839,2.8109,2.8495,2.9342,2.9924,3.0876,3.3092,3.4019,3.4775,3.612,3.6393,3.6393,3.6393,3.6393,3.6746,3.7826,3.799,3.8404,3.9534,3.9697,0.0,3.9697,0.0,0.0,0.0,0.0,0.0,0.0,0.0,0.0,0.0,3.9697,3.9697,3.9697,3.9697,3.9697,3.9697,3.9697,3.9697,3.9697,3.9697,3.9697,3.9697,3.9697,0.0,0.0,0.0,0.0,0.0,3.9697,3.9697,3.9697,3.9697,3.9697,3.9697,3.9697,3.9697,3.9697,0.0,0.0,0.0,0.0,0.0,0.0,0.0,0.0,0.0,0.0,2.3091,2.3091,2.3091,2.3025,2.2514,0.0,0.0,0.0,0.0,0.0,0.0,0.0,0.0,0.0,0.0,1.6955,0.0,1.5808,1.5808,1.5808,1.5808,0.0,0.0,0.0,0.0,0.0,0.0,0.0,0.0,0.0,2.0845,2.202,0.0,0.0,0.0,0.0,0.0,0.0,0.0,0.0,0.0,0.0,0.0,0.0,0.0,0.0,0.0,0.0,0.0,2.8285,2.8304,2.8304,2.9247,3.0527,3.1965,3.3304,0.0,3.6096,3.6393,3.6393,3.6393,3.6431,3.6808,3.7839,3.804,3.8454,3.9559,3.9697,0.0,0.0,0.0,0.0,0.0,0.0,0.0,0.0,0.0,0.0,0.0,3.9697,3.9697,3.9697,3.9697,3.9697,3.9697,3.9697,3.9697,3.9697,3.9697,3.9697,3.9697,3.9697,0.0,0.0,0.0,0.0,0.0,3.9697,3.9697,3.9697,3.9697,3.9697,3.9697,3.9697,3.9697,3.9697,0.0,0.0,0.0,0.0,0.0,0.0,0.0,0.0,0.0,0.0,2.3091,2.3091,2.3091,2.2273,2.1614,0.0,0.0,0.0,0.0,0.0,0.0,0.0,0.0,0.0,0.0,1.6086,1.6097,1.5808,1.5808,1.5808,1.5808,1.5808,0.0,1.5808,1.5808,0.0,0.0,0.0,0.0,0.0,2.1192,2.202,0.0,0.0,0.0,0.0,2.4924,2.5361,0.0,0.0,0.0,0.0,0.0,0.0,0.0,0.0,2.6768,2.7116,2.7692,0.0,2.8304,2.8304,2.8548,2.9395,0.0,3.2568,3.3478,3.5894,3.6393,3.6393,3.6393,3.6745,3.7223,3.7889,3.8391,3.8931,3.9609,3.9697,0.0,0.0,0.0,0.0,0.0,0.0,0.0,0.0,0.0,0.0,0.0,3.9697,3.9697,3.9697,3.9697,3.9697,3.9697,3.9697,3.9697,3.9697,3.9697,3.9697,3.9697,3.9697,0.0,0.0,0.0,0.0,3.9697,3.9697,3.9697,3.9697,3.9697,3.9697,3.9697,3.9697,3.9697,3.9697,0.0,0.0,0.0,0.0,0.0,0.0,0.0,0.0,0.0,0.0,0.0,0.0,0.0,0.0,0.0,0.0,0.0,0.0,0.0,0.0,0.0,0.0,0.0,0.0,0.0,1.5808,1.5808,1.5808,1.5808,1.5808,1.5808,1.5808,1.5808,1.5808,1.5808,0.0,0.0,0.0,0.0,2.0576,2.1678,0.0,0.0,0.0,0.0,0.0,2.4699,2.5174,0.0,2.5706,2.5706,2.5706,0.0,0.0,0.0,0.0,2.668,2.7097,2.7575,2.7982,2.8304,2.8304,2.8304,2.9006,3.1697,3.2293,3.307,3.5822,3.6393,3.648,3.672,3.6997,3.7462,3.8278,3.8693,3.9082,3.9622,0.0,0.0,0.0,0.0,0.0,0.0,0.0,0.0,0.0,0.0,0.0,0.0,3.9697,3.9697,3.9697,3.9697,3.9697,3.9697,3.9697,3.9697,3.9697,3.9697,3.9697,3.9697,3.9697,3.9697,0.0,0.0,0.0,3.9697,3.9697,3.9697,3.9697,3.9697,3.9697,3.9697,3.9697,3.9697,3.9697,0.0,0.0,0.0,0.0,0.0,0.0,0.0,0.0,0.0,0.0,0.0,0.0,0.0,0.0,0.0,0.0,0.0,0.0,0.0,0.0,0.0,0.0,0.0,0.0,1.5808,1.5808,1.5808,1.5808,1.5808,1.5808,1.5808,1.5808,1.5808,1.5808,1.5808,0.0,0.0,0.0,0.0,1.9943,2.2007,0.0,0.0,0.0,0.0,0.0,0.0,0.0,0.0,2.5706,2.5706,2.5706,2.5706,0.0,0.0,0.0,0.0,0.0,2.7497,2.7933,2.8304,2.8304,2.8304,2.9006,3.1697,3.2293,3.307,3.5822,3.6393,3.6556,3.7098,3.7261,3.7663,3.873,3.8969,0.0,3.9647,0.0,0.0,0.0,0.0,0.0,0.0,0.0,0.0,0.0,0.0,0.0,0.0,3.9697,3.9697,3.9697,3.9697,3.9697,3.9697,3.9697,3.9697,3.9697,3.9697,3.9697,3.9697,3.9697,3.9697,0.0,0.0,0.0,3.9697,3.9697,3.9697,3.9697,3.9697,3.9697,3.9697,3.9697,3.9697,3.9697,0.0,0.0,0.0,0.0,0.0,0.0,0.0,0.0,0.0,0.0,0.0,0.0,0.0,0.0,0.0,0.0,0.0,0.0,0.0,0.0,0.0,0.0,1.5808,1.5808,1.5808,1.5808,1.5808,1.5808,1.5808,1.5808,1.5808,1.5808,1.5808,1.5808,1.5808,0.0,0.0,0.0,0.0,2.1058,2.1436,0.0,0.0,0.0,0.0,0.0,0.0,0.0,0.0,2.5706,2.5706,2.5706,2.5706,0.0,0.0,0.0,0.0,0.0,2.7087,2.7685,2.8304,2.8304,2.8304,2.9006,3.1697,3.2293,3.307,3.5822,3.6393,3.6556,3.7098,3.7575,3.8103,0.0,0.0,0.0,0.0,0.0,0.0,0.0,0.0,0.0,0.0,0.0,0.0,0.0,0.0,0.0,0.0,3.9697,3.9697,3.9697,3.9697,3.9697,3.9697,3.9697,3.9697,3.9697,3.9697,3.9697,3.9697,3.9697,3.9697,0.0,0.0,3.9697,3.9697,3.9697,3.9697,3.9697,3.9697,3.9697,3.9697,3.9697,3.9697,3.9697,0.0,0.0,0.0,0.0,0.0,0.0,0.0,0.0,0.0,0.0,0.0,0.0,0.0,0.0,0.0,0.0,0.0,0.0,0.0,0.0,0.0,0.0,1.5808,1.5808,1.5808,1.5808,1.5808,1.5808,1.5808,1.5808,1.5808,1.5808,1.5808,1.5808,1.5808,1.6516,1.7703,0.0,0.0,2.0384,0.0,0.0,0.0,0.0,0.0,0.0,0.0,0.0,0.0,0.0,2.5706,2.5706,2.5706,0.0,0.0,0.0,0.0,0.0,2.6999,2.7646,2.8304,2.8304,2.8834,2.9885,3.1851,3.2881,3.3995,3.5989,3.6632,3.6997,3.7525,0.0,3.8668,3.9233,0.0,0.0,0.0,0.0,0.0,0.0,0.0,0.0,0.0,0.0,0.0,0.0,0.0,0.0,0.0,0.0,3.9697,3.9697,3.9697,3.9697,3.9697,3.9697,3.9697,3.9697,3.9697,3.9697,3.9697,3.9697,3.9697,3.9697,0.0,3.9697,3.9697,3.9697,3.9697,3.9697,3.9697,3.9697,3.9697,3.9697,3.9697,3.9735,0.0,0.0,0.0,0.0,0.0,0.0,0.0,0.0,0.0,0.0,0.0,0.0,0.0,0.0,0.0,0.0,0.0,0.0,0.0,0.0,1.5808,1.5808,1.5808,1.5808,1.5808,1.5808,1.5808,1.5808,1.5808,1.5808,1.5808,1.5808,1.5808,1.5808,1.5808,1.6339,1.726,1.726,1.8122,1.9579,0.0,0.0,0.0,0.0,0.0,0.0,0.0,0.0,0.0,0.0,0.0,0.0,0.0,0.0,0.0,2.5823,2.6401,2.7028,2.7126,2.7715,2.8304,2.8304,2.9062,3.0266,3.1914,3.313,3.441,3.6223,3.6909,3.7412,3.809,3.8693,0.0,0.0,0.0,0.0,0.0,0.0,0.0,0.0,0.0,0.0,0.0,0.0,0.0,0.0,0.0,0.0,0.0,0.0,3.9697,3.9697,3.9697,3.9697,3.9697,3.9697,3.9697,3.9697,3.9697,3.9697,3.9697,3.9697,3.9697,3.9697,3.9697,3.9697,3.9697,3.9697,3.9697,3.9697,3.9697,3.9697,3.9697,3.9697,3.9772,3.9948,0.0,0.0,0.0,0.0,0.0,0.0,0.0,0.0,0.0,0.0,0.0,0.0,0.0,0.0,0.0,0.0,0.0,0.0,0.0,0.0,1.5808,1.5808,1.5808,1.5808,1.5808,1.5808,1.5808,1.5808,1.5808,1.5808,1.5808,1.5808,1.5808,1.5808,1.5808,1.5849,1.5944,0.0,1.732,1.9508,1.9591,0.0,0.0,0.0,0.0,0.0,0.0,0.0,0.0,0.0,0.0,0.0,0.0,0.0,2.5796,2.6221,2.666,2.7109,2.7536,2.7962,2.8304,2.8304,2.8371,2.9115,3.1711,3.2369,3.3344,3.649,0.0,0.0,0.0,3.9283,0.0,0.0,0.0,0.0,0.0,0.0,0.0,0.0,0.0,0.0,0.0,0.0,0.0,0.0,0.0,0.0,0.0,0.0,0.0,3.9697,3.9697,3.9697,3.9697,3.9697,3.9697,3.9697,3.9697,3.9697,3.9697,3.9697,3.9697,3.9697,3.9697,3.9697,3.9697,3.9697,3.9697,3.9697,3.9697,3.9697,3.9697,3.9697,4.0023,4.045,0.0,0.0,0.0,0.0,0.0,0.0,0.0,0.0,0.0,0.0,0.0,0.0,0.0,0.0,0.0,0.0,0.0,0.0,0.0,0.0,1.5808,1.5808,1.5808,1.5808,1.5808,1.5808,1.5808,1.5808,1.5808,1.5808,1.5808,1.5808,1.5808,1.5808,1.5808,1.5808,1.5849,0.0,1.796,1.9576,2.0316,2.1789,0.0,0.0,0.0,0.0,0.0,0.0,0.0,0.0,2.5706,2.5706,2.5706,2.5706,2.5796,2.626,2.668,2.7097,2.7575,2.7982,2.8304,2.8304,2.8304,2.9006,3.1697,3.3235,3.4687,3.676,3.7763,0.0,0.0,0.0,0.0,0.0,0.0,0.0,0.0,0.0,0.0,0.0,0.0,0.0,0.0,0.0,0.0,0.0,0.0,0.0,0.0,0.0,0.0,3.9697,3.9697,3.9697,3.9697,3.9697,3.9697,3.9697,3.9697,3.9697,3.9697,3.9697,3.9697,3.9697,3.9697,3.9697,3.9697,3.9697,3.9697,3.9697,3.9697,3.9697,3.9735,4.0061,4.0324,4.06,0.0,0.0,0.0,0.0,0.0,0.0,0.0,0.0,0.0,0.0,0.0,0.0,0.0,0.0,0.0,0.0,0.0,0.0,0.0,1.5808,1.5808,1.5808,1.5808,1.5808,1.5808,1.5808,1.5808,1.5808,1.5808,1.6015,1.6386,1.5991,1.5808,1.5808,1.5808,1.5808,1.5867,0.0,0.0,1.9719,2.0123,2.178,0.0,0.0,0.0,0.0,0.0,0.0,0.0,0.0,2.5706,2.5706,2.5706,2.5706,2.5825,2.6403,2.6774,2.7126,2.7731,2.8089,2.8304,2.8304,2.8304,2.9049,3.1933,3.361,3.512,3.7058,3.8354,3.9258,0.0,0.0,0.0,0.0,0.0,0.0,0.0,0.0,0.0,0.0,0.0,0.0,0.0,0.0,0.0,0.0,0.0,0.0,0.0,0.0,0.0,0.0,3.8319,3.8319,3.8319,3.8319,3.8319,3.8319,3.8319,3.8803,3.9697,3.9697,3.9697,3.9697,3.9697,3.9697,3.9697,3.9697,3.9697,3.9697,3.9697,3.9798,3.9998,4.0362,4.0739,4.1154,0.0,0.0,0.0,0.0,0.0,0.0,0.0,0.0,0.0,0.0,0.0,0.0,0.0,0.0,0.0,0.0,0.0,0.0,0.0,1.5808,1.5808,1.5808,1.5808,1.5808,1.5796,1.5815,1.5815,1.5796,1.5815,1.6452,1.7664,1.6393,1.5815,1.5815,1.5815,1.5815,1.5815,0.0,0.0,0.0,1.8652,2.0643,0.0,0.0,0.0,0.0,0.0,0.0,0.0,0.0,2.5706,2.5706,2.5706,2.5706,2.5871,2.6742,2.6999,2.7184,2.8057,2.8304,2.8304,2.8304,2.8304,0.0,3.2426,3.3181,3.41,3.7332,3.8893,3.9697,3.9697,0.0,0.0,0.0,0.0,0.0,0.0,0.0,0.0,0.0,0.0,0.0,0.0,0.0,0.0,0.0,0.0,0.0,0.0,0.0,0.0,0.0,3.5288,3.5288,3.5288,3.5288,3.5288,3.5288,3.5288,3.6834,3.9671,3.9671,3.9672,3.9672,3.9685,3.9697,3.9697,3.9697,3.9697,3.9697,3.971,4.0023,4.05,4.0512,4.123,4.2199,0.0,0.0,0.0,0.0,0.0,0.0,0.0,0.0,0.0,0.0,0.0,0.0,0.0,0.0,0.0,0.0,0.0,0.0,0.0,1.5808,1.5808,1.5808,1.5808,1.5913,1.6151,1.6339,1.6346,1.6151,1.6346,1.6631,1.6986,1.6612,1.6434,1.6434,1.6434,0.0,1.6496,0.0,0.0,1.9014,1.9521,2.1201,0.0,0.0,0.0,0.0,0.0,0.0,0.0,0.0,0.0,0.0,2.5706,2.5706,2.5871,2.6742,2.6999,2.7184,2.8057,2.8304,2.8304,2.8304,0.0,0.0,0.0,3.1931,0.0,0.0,3.8738,3.9697,3.9697,0.0,0.0,0.0,0.0,0.0,0.0,0.0,0.0,0.0,0.0,0.0,0.0,0.0,0.0,0.0,0.0,0.0,0.0,0.0,0.0,0.0,3.5288,3.5288,3.5288,3.5288,3.5288,3.5288,3.5288,3.5765,3.6634,3.7688,3.815,3.8203,3.9245,3.9697,3.9697,3.9697,3.9697,3.9735,4.0124,4.0362,4.06,4.1405,4.1909,4.2249,0.0,0.0,0.0,0.0,0.0,0.0,0.0,0.0,0.0,0.0,0.0,0.0,0.0,0.0,0.0,0.0,0.0,0.0,0.0,0.0,1.5808,1.5808,1.5933,1.6139,1.6452,1.6746,1.6819,1.6657,1.6693,1.695,1.7397,1.6925,1.6707,1.6707,1.6707,1.6707,1.6757,1.7472,1.8169,1.88,1.9021,2.0798,2.3163,0.0,0.0,0.0,0.0,0.0,0.0,0.0,0.0,0.0,2.5706,2.5835,2.6108,2.6804,2.7126,2.7435,2.8105,2.8304,2.8304,2.8304,2.8304,2.8679,3.013,0.0,0.0,0.0,0.0,3.9012,0.0,0.0,0.0,0.0,0.0,0.0,0.0,0.0,0.0,0.0,0.0,0.0,0.0,0.0,0.0,0.0,0.0,0.0,0.0,0.0,0.0,0.0,3.3554,3.3554,3.3554,3.3554,3.3554,3.3554,3.3554,3.3554,3.3614,3.5686,3.6945,3.7585,3.9064,3.9697,3.9697,3.9697,3.9823,4.0061,4.0374,4.0789,4.1267,4.196,4.2337,4.2562,0.0,0.0,0.0,0.0,0.0,0.0,0.0,0.0,0.0,0.0,0.0,0.0,0.0,0.0,0.0,0.0,0.0,0.0,0.0,0.0,1.5808,1.5808,1.6139,1.6459,1.674,1.7079,1.7239,1.7239,1.6933,1.7338,1.8387,1.73,1.6787,1.6787,1.6787,1.6787,1.6787,1.6787,1.7654,1.8954,1.7727,1.9682,2.3051,2.0551,0.0,0.0,0.0,0.0,0.0,0.0,0.0,0.0,2.5706,2.6023,2.6477,2.6882,2.7337,2.778,2.8187,2.8304,2.8304,2.8304,2.8363,0.0,2.9422,3.1916,3.4688,3.6851,0.0,0.0,0.0,0.0,0.0,0.0,0.0,0.0,0.0,0.0,0.0,0.0,0.0,0.0,0.0,0.0,0.0,0.0,0.0,0.0,0.0,0.0,0.0,3.0903,3.0903,3.0903,3.0903,3.0903,3.0903,0.0,3.0903,3.0903,3.1005,3.3824,3.5986,3.7571,3.8921,3.9581,3.9697,3.9747,4.0061,4.0512,4.0613,4.1292,4.2199,4.2249,4.2575,4.3002,0.0,0.0,0.0,0.0,0.0,0.0,0.0,0.0,0.0,0.0,0.0,0.0,0.0,0.0,0.0,0.0,0.0,0.0,0.0,0.0,1.5808,1.5808,1.6321,1.6766,1.7086,1.7367,1.7515,1.7515,1.7441,1.7544,1.7785,1.7531,1.7408,1.7408,1.7408,1.7408,1.7408,1.7408,1.7611,1.7926,1.7632,1.8716,2.0418,1.9834,2.1494,0.0,0.0,0.0,0.0,0.0,0.0,0.0,2.5706,2.6023,2.6477,2.6882,2.7337,2.778,2.8187,2.8304,2.8304,2.8304,2.8812,2.9373,2.9559,3.0653,3.2441,3.5197,0.0,0.0,0.0,0.0,0.0,0.0,0.0,0.0,0.0,0.0,0.0,0.0,0.0,0.0,0.0,0.0,0.0,0.0,0.0,0.0,0.0,0.0,0.0,3.0903,3.0903,3.0903,3.0903,3.0903,3.0903,0.0,3.0903,3.0903,3.0962,3.2758,3.5016,3.7518,3.7835,3.8635,3.9722,4.0149,4.04,4.0588,4.1481,4.1985,4.2249,4.2663,4.2901,4.3002,0.0,0.0,0.0,0.0,0.0,0.0,0.0,0.0,0.0,0.0,0.0,0.0,0.0,0.0,0.0,0.0,0.0,0.0,0.0,0.0,0.0,1.6227,1.6693,1.708,1.7374,1.7535,1.7595,1.7595,1.7595,0.0,0.0,0.0,0.0,1.7595,1.7595,1.7595,1.7595,1.7595,1.7595,1.7595,1.7595,1.8401,1.9524,1.889,2.0346,2.2655,2.1988,0.0,0.0,0.0,0.0,0.0,0.0,0.0,2.6728,2.694,2.7471,2.8031,2.8232,2.8304,2.8353,2.8545,0.0,2.9647,2.9838,3.0415,3.1542,3.3772,0.0,0.0,0.0,0.0,0.0,0.0,0.0,0.0,0.0,0.0,0.0,0.0,0.0,0.0,0.0,0.0,0.0,0.0,0.0,0.0,0.0,3.0903,3.0903,3.0903,3.0903,3.0903,3.0903,3.0903,3.0903,3.0903,3.0903,3.0903,3.0947,3.244,3.3943,3.5472,3.6892,3.794,3.8737,3.9987,4.065,4.0964,4.1858,4.2362,4.2626,4.2901,4.3002,4.3002,0.0,0.0,0.0,0.0,0.0,0.0,0.0,0.0,0.0,0.0,0.0,0.0,0.0,0.0,0.0,0.0,0.0,0.0,0.0,0.0,0.0,0.0,1.7052,1.7327,1.7588,1.7595,1.7595,1.7595,0.0,0.0,0.0,0.0,0.0,1.7957,0.0,1.7825,1.7595,1.7595,1.7595,1.7595,1.7595,1.8257,1.913,1.8015,1.9161,2.1181,2.002,2.05,2.1904,2.3251,0.0,0.0,0.0,0.0,2.6718,2.7023,2.7676,2.8304,2.8304,2.8304,2.8379,2.8707,2.9189,0.0,3.0024,3.0508,3.1247,3.2458,0.0,0.0,0.0,0.0,0.0,0.0,0.0,0.0,0.0,0.0,0.0,0.0,0.0,0.0,0.0,0.0,0.0,0.0,0.0,0.0,3.0903,3.0903,3.0903,3.0903,3.0903,3.0903,3.0903,3.0903,3.0903,3.0903,3.0903,3.0903,3.0947,3.2164,3.2861,3.3251,3.5947,3.7312,3.779,3.9807,4.0951,4.1503,4.211,4.2614,4.3002,4.3002,4.3002,4.3002,0.0,0.0,0.0,0.0,0.0,0.0,0.0,0.0,0.0,0.0,0.0,0.0,0.0,0.0,0.0,0.0,0.0,0.0,0.0,0.0,0.0,0.0,1.7179,1.7327,1.7588,1.7595,1.7595,1.7595,0.0,0.0,0.0,0.0,0.0,1.9337,0.0,0.0,1.7595,1.7595,1.7595,1.7595,1.7595,1.7714,1.7851,1.7674,1.8558,1.986,1.9666,2.05,2.1904,2.3251,2.2926,0.0,0.0,0.0,2.558,2.7152,2.7933,2.8304,2.8304,2.8304,2.8301,2.8373,2.9002,2.9618,0.0,0.0,3.0962,0.0,0.0,0.0,0.0,0.0,0.0,0.0,0.0,0.0,0.0,0.0,0.0,0.0,0.0,0.0,0.0,0.0,0.0,0.0,0.0,0.0,3.0903,3.0903,3.0903,3.0903,3.0903,3.0903,3.0903,3.0903,3.0903,3.0903,3.0903,3.0903,3.0913,3.1097,3.1887,3.3191,3.4875,3.6579,3.8353,4.0364,4.1542,4.2122,4.2675,4.2939,4.3002,4.3002,4.3002,4.3002,0.0,0.0,0.0,0.0,0.0,0.0,0.0,0.0,0.0,0.0,0.0,0.0,0.0,0.0,0.0,1.5808,1.5808,1.5875,1.6066,1.6531,0.0,0.0,1.734,1.7481,1.7608,1.7595,1.7595,1.7595,0.0,0.0,0.0,1.9317,1.9195,0.0,0.0,0.0,0.0,1.7595,1.7595,1.7595,1.7595,1.7595,1.7595,1.7595,1.797,1.848,0.0,0.0,0.0,2.0947,2.1139,2.1318,2.4296,0.0,0.0,0.0,2.7972,2.8304,2.8304,2.8304,2.835,2.8584,2.9125,2.9657,2.9877,3.0444,3.0903,0.0,0.0,0.0,0.0,0.0,0.0,0.0,0.0,0.0,0.0,0.0,0.0,0.0,0.0,0.0,0.0,0.0,0.0,0.0,0.0,3.0903,3.0903,3.0903,3.0903,3.0903,3.0903,3.0903,3.0903,3.0903,3.0903,3.0903,3.0903,3.0903,3.0903,3.0903,3.1247,3.2012,3.4628,3.6257,3.731,4.0485,4.1959,4.2249,4.2788,4.3002,4.3002,4.3002,4.3002,4.3002,0.0,0.0,0.0,0.0,0.0,0.0,0.0,0.0,0.0,0.0,0.0,0.0,0.0,0.0,0.0,0.0,1.5927,1.6099,1.6498,1.6958,0.0,0.0,0.0,1.7595,1.7595,1.7595,1.7595,0.0,0.0,0.0,1.9091,1.9433,1.8877,0.0,1.7957,0.0,0.0,0.0,0.0,0.0,0.0,1.7595,1.7595,1.7595,0.0,1.7608,1.7682,0.0,0.0,0.0,0.0,0.0,2.3553,2.4714,0.0,0.0,0.0,2.8304,2.8304,2.8304,2.8369,2.8668,2.9184,2.9676,0.0,0.0,3.0903,0.0,0.0,0.0,0.0,0.0,0.0,0.0,0.0,0.0,0.0,0.0,0.0,0.0,0.0,0.0,0.0,0.0,0.0,0.0,0.0,3.0903,3.0903,3.0903,3.0903,3.0903,3.0903,3.0903,3.0903,3.0903,3.0903,3.0903,3.0903,3.0903,3.0903,3.0903,3.0903,3.1069,3.4147,3.5562,3.6005,3.9953,4.1672,4.1873,4.2685,4.3002,4.3002,4.3002,4.3002,4.3002,0.0,0.0,0.0,0.0,0.0,0.0,0.0,0.0,0.0,0.0,0.0,0.0,0.0,1.5808,1.5933,1.625,1.6277,1.6518,1.7119,1.7186,1.7313,1.7575,0.0,0.0,1.7595,1.7595,0.0,0.0,0.0,0.0,1.7733,1.9007,1.8877,1.7661,1.8929,1.8786,1.7595,0.0,0.0,0.0,0.0,0.0,0.0,0.0,0.0,0.0,0.0,0.0,0.0,0.0,0.0,0.0,0.0,0.0,2.4135,0.0,0.0,0.0,2.8304,2.8304,2.8314,2.8334,2.8969,2.9608,0.0,0.0,0.0,0.0,0.0,0.0,0.0,0.0,0.0,0.0,0.0,0.0,0.0,0.0,0.0,0.0,0.0,0.0,0.0,0.0,0.0,0.0,3.0903,3.0903,3.0903,3.0903,3.0903,3.0903,3.0903,3.0903,3.0903,3.0903,3.0903,3.0903,3.0903,3.0903,3.0903,3.0903,3.0903,3.101,3.2975,3.4107,3.4858,3.8452,4.023,4.0842,4.2377,4.3002,4.3002,4.3002,4.3002,4.3002,0.0,0.0,0.0,0.0,0.0,0.0,0.0,0.0,0.0,0.0,0.0,0.0,0.0,1.5987,1.6171,1.6284,1.6651,1.6965,1.7186,1.736,1.7501,1.7608,0.0,0.0,0.0,0.0,0.0,0.0,0.0,1.8506,1.8877,1.8493,1.8055,1.7621,1.8107,1.8042,1.7595,1.7595,0.0,0.0,0.0,0.0,0.0,0.0,0.0,0.0,0.0,0.0,0.0,0.0,0.0,0.0,0.0,0.0,0.0,0.0,2.8304,2.8304,2.8304,2.8304,2.8304,2.8304,2.8963,2.9598,2.9598,3.0268,3.0903,0.0,0.0,0.0,0.0,0.0,0.0,0.0,0.0,0.0,0.0,0.0,0.0,0.0,0.0,0.0,0.0,0.0,0.0,0.0,0.0,3.0903,3.0903,3.0903,3.0903,3.0903,3.0903,3.0903,3.0903,3.0903,3.0903,3.0903,3.0903,3.0903,3.0903,3.0903,3.1035,3.1348,3.2306,3.341,3.4719,3.7593,3.9491,4.065,4.1234,4.2095,4.3002,4.3002,4.3002,4.3002,0.0,0.0,0.0,0.0,0.0,0.0,0.0,0.0,0.0,0.0,0.0,0.0,0.0,0.0,1.6484,1.6597,1.7052,1.7334,1.7334,1.7501,1.7595,1.7595,1.8035,0.0,0.0,0.0,0.0,0.0,0.0,0.0,0.0,1.848,1.8035,1.7595,1.7595,1.7595,0.0,0.0,0.0,1.7595,0.0,0.0,1.7722,0.0,0.0,0.0,0.0,0.0,0.0,0.0,0.0,0.0,0.0,0.0,0.0,0.0,0.0,0.0,2.8171,2.8304,2.8304,2.8304,2.8842,2.9408,2.9559,0.0,3.0718,0.0,0.0,0.0,0.0,0.0,0.0,0.0,0.0,0.0,0.0,0.0,0.0,0.0,0.0,0.0,0.0,0.0,0.0,0.0,0.0,0.0,3.0903,3.0903,3.0903,3.0903,3.0903,3.0903,3.0903,3.0903,3.0903,3.0903,3.0903,3.0903,3.0903,3.0903,3.1123,3.1528,3.1997,3.2859,3.4104,3.6432,3.8022,3.91,4.0175,4.1248,4.2263,4.2793,4.3002,4.3002,0.0,0.0,0.0,0.0,0.0,0.0,0.0,0.0,0.0,0.0,0.0,0.0,0.0,0.0,0.0,1.7173,1.7448,1.7595,1.7595,1.7648,1.7661,1.7661,1.8916,1.9615,0.0,0.0,0.0,0.0,0.0,0.0,0.0,0.0,1.8851,1.7595,1.7595,1.7595,1.7595,0.0,1.7595,1.7595,0.0,1.7762,1.8009,0.0,0.0,0.0,1.881,1.8917,0.0,0.0,0.0,0.0,0.0,0.0,0.0,0.0,0.0,0.0,0.0,0.0,0.0,2.8304,2.8603,2.9019,2.9487,0.0,3.0332,0.0,0.0,0.0,0.0,0.0,0.0,0.0,0.0,0.0,0.0,0.0,0.0,0.0,0.0,0.0,0.0,0.0,0.0,0.0,3.0903,3.0903,3.0903,3.0903,3.0903,3.0903,3.0903,3.0903,3.0903,3.0903,3.0903,3.0903,3.0903,3.0903,3.0903,3.0903,3.1123,3.1548,3.1997,3.2427,3.2981,3.4928,3.576,3.6101,3.9232,4.0491,4.0722,4.2333,4.2932,4.2932,0.0,0.0,0.0,0.0,0.0,0.0,0.0,0.0,0.0,0.0,0.0,0.0,0.0,0.0,1.718,1.7461,1.7561,1.7595,1.7595,1.8506,1.9052,1.9052,1.9402,2.0084,2.1092,1.9542,1.9517,2.1118,1.9517,1.8844,1.9026,1.8427,1.7957,0.0,1.7595,1.7595,1.7595,1.7595,0.0,0.0,1.7816,1.7929,0.0,0.0,0.0,0.0,0.0,1.9058,0.0,0.0,1.9395,1.9663,0.0,0.0,0.0,0.0,0.0,0.0,2.7897,0.0,0.0,0.0,0.0,0.0,2.9487,2.9907,3.0332,0.0,0.0,0.0,0.0,0.0,0.0,0.0,0.0,0.0,0.0,0.0,0.0,0.0,0.0,0.0,0.0,0.0,0.0,0.0,3.0903,3.0903,3.0903,3.0903,3.0903,3.0903,3.0903,3.0903,3.0903,3.0903,3.0903,3.0903,3.0903,3.0903,3.0903,3.0903,3.1304,3.2007,3.2149,3.2593,3.3277,3.3837,3.4742,3.5898,3.6775,3.7843,3.9067,4.0664,4.1262,4.1431,0.0,0.0,0.0,0.0,0.0,0.0,0.0,0.0,0.0,0.0,0.0,0.0,0.0,0.0,0.0,1.7595,1.7595,1.7838,1.8401,1.8642,1.9013,1.9576,1.9602,1.9981,2.0807,2.0385,2.0658,2.1702,2.0102,1.9408,1.9576,1.8225,1.7595,1.7595,1.7595,1.7655,0.0,0.0,0.0,0.0,1.7936,0.0,0.0,1.859,1.8851,0.0,0.0,0.0,1.9395,1.9395,1.9395,0.0,0.0,0.0,0.0,0.0,0.0,0.0,0.0,0.0,0.0,0.0,0.0,0.0,2.9461,2.9784,3.0131,0.0,0.0,0.0,0.0,0.0,0.0,0.0,0.0,0.0,0.0,0.0,0.0,0.0,0.0,0.0,0.0,3.0903,3.0903,3.0903,3.0903,3.0903,3.0903,3.0903,3.0903,3.0903,3.0903,3.0903,3.0903,3.0903,3.0903,3.0903,3.0903,3.0903,3.0903,3.0903,3.1274,3.1919,3.2105,3.2564,3.3158,3.3334,3.3955,3.4866,3.554,3.6376,3.748,3.9756,4.0592,4.0834,0.0,0.0,0.0,0.0,0.0,0.0,0.0,0.0,0.0,0.0,0.0,0.0,0.0,0.0,0.0,0.0,1.7595,1.8107,1.9298,1.8401,1.8349,1.955,1.9757,1.9834,1.9834,2.2227,2.2818,2.1473,2.1473,2.0748,1.935,1.816,1.7595,1.7595,1.7629,1.7789,1.7995,0.0,0.0,1.8102,1.8102,1.8416,0.0,0.0,1.9138,0.0,1.9395,1.9395,1.9395,1.9395,1.9395,0.0,0.0,0.0,0.0,0.0,2.3668,0.0,0.0,0.0,0.0,0.0,0.0,0.0,2.9344,2.953,2.9774,3.0649,0.0,0.0,0.0,0.0,0.0,0.0,0.0,0.0,0.0,0.0,0.0,0.0,0.0,0.0,3.0903,3.0903,3.0903,3.0903,3.0903,3.0903,3.0903,3.0903,3.0903,3.0903,3.0903,3.0903,3.0903,3.0903,3.0903,3.0903,3.0903,3.0903,3.0903,3.0903,3.1123,3.1528,3.1997,3.2427,3.2832,3.3236,3.3402,3.3544,3.4964,3.553,3.5928,3.9159,4.0332,4.0592,0.0,0.0,0.0,0.0,0.0,0.0,0.0,0.0,0.0,0.0,0.0,0.0,0.0,0.0,0.0,0.0,1.7595,1.7714,1.7963,1.876,1.9337,1.9589,2.0692,2.1283,2.1283,2.1815,2.141,2.0007,2.0007,1.9317,1.7983,1.772,1.7595,1.7608,1.7829,1.7949,1.8022,0.0,0.0,1.8723,1.8723,0.0,1.8937,1.9206,1.9348,1.9395,1.9395,1.9395,1.9395,0.0,1.9395,1.9453,0.0,0.0,0.0,0.0,0.0,0.0,0.0,0.0,0.0,0.0,0.0,0.0,2.8912,2.9043,2.9273,0.0,0.0,0.0,0.0,0.0,0.0,0.0,0.0,0.0,0.0,0.0,0.0,0.0,0.0,0.0,3.0903,3.0903,3.0903,3.0903,3.0903,3.0903,3.0903,3.0903,3.0903,3.0903,3.0903,3.0903,3.0903,3.0903,3.0903,3.0903,3.0903,3.0903,3.0903,3.0903,3.1123,3.1528,3.1997,3.2427,3.2832,3.3236,3.3402,3.3434,3.3755,3.387,3.4258,3.748,3.8669,3.9082,0.0,0.0,0.0,0.0,0.0,0.0,0.0,0.0,0.0,0.0,0.0,0.0,0.0,0.0,0.0,0.0,0.0,0.0,0.0,1.8597,1.9208,2.059,2.0654,2.0978,2.1689,2.1702,2.1359,2.0654,1.9942,1.9259,1.8584,1.8047,1.7802,1.7809,1.8116,1.8323,1.8463,0.0,1.8878,1.9132,1.8971,0.0,1.9173,1.9341,1.9395,1.9395,1.9395,1.9395,1.9395,1.9395,1.9395,0.0,0.0,1.991,2.0508,0.0,2.1551,2.287,0.0,0.0,0.0,2.701,0.0,0.0,0.0,2.8902,2.9088,2.976,3.0063,0.0,0.0,0.0,0.0,0.0,0.0,0.0,0.0,0.0,0.0,0.0,0.0,0.0,3.0903,3.0903,3.0903,3.0903,3.0903,3.0903,3.0903,3.0903,3.0903,3.0903,3.0903,3.0903,3.0903,3.0903,3.0903,3.0903,3.0903,3.0903,3.0903,3.0903,3.1006,3.124,3.19,3.23,3.2545,3.3148,3.3402,3.3402,3.3402,3.3402,3.3692,3.6112,3.6998,3.7454,1.59,0.0,0.0,0.0,0.0,0.0,0.0,0.0,0.0,0.0,0.0,0.0,0.0,0.0,0.0,0.0,0.0,0.0,0.0,0.0,0.0,2.1422,2.0669,2.0599,2.1447,2.1717,2.1729,2.1473,2.0327,1.9639,1.9366,1.8501,1.8103,1.8102,1.843,0.0,0.0,0.0,0.0,1.9374,0.0,1.9152,1.9395,1.9395,1.9395,1.9395,1.9395,1.9395,1.9395,1.9395,0.0,1.9395,1.9395,1.9591,0.0,0.0,0.0,0.0,0.0,0.0,0.0,0.0,0.0,2.8389,0.0,0.0,0.0,2.9369,0.0,0.0,0.0,0.0,0.0,0.0,0.0,0.0,0.0,0.0,0.0,0.0,0.0,0.0,0.0,3.0903,3.0903,3.0903,3.0903,3.0903,3.0903,3.0903,3.0903,3.0903,3.0903,3.0903,3.0903,3.0903,3.0903,3.0903,3.0903,3.0903,3.0903,3.0903,3.0903,3.0952,3.1827,3.2198,3.2257,3.3076,3.3402,3.3402,3.3402,3.3402,3.3597,3.5211,3.5806,3.6223,1.6244,1.6277,0.0,0.0,0.0,0.0,0.0,0.0,0.0,0.0,0.0,0.0,0.0,0.0,0.0,0.0,0.0,0.0,2.1978,0.0,0.0,2.0864,2.1801,2.1807,2.067,2.1801,2.1828,2.0643,2.0481,1.9785,1.8617,1.8506,1.8437,1.8457,1.873,0.0,0.0,0.0,1.9368,0.0,1.9361,1.9368,0.0,1.9395,1.9395,1.9395,1.9395,1.9395,1.9395,0.0,1.9395,1.9395,0.0,2.0299,0.0,0.0,0.0,0.0,0.0,0.0,0.0,0.0,2.7209,0.0,0.0,0.0,2.8476,2.8906,0.0,0.0,0.0,0.0,0.0,0.0,0.0,0.0,0.0,0.0,0.0,0.0,0.0,0.0,0.0,3.0903,3.0903,3.0903,3.0903,3.0903,3.0903,3.0903,3.0903,3.0903,3.0903,3.0903,3.0903,3.0903,3.0903,3.0903,3.0903,3.0903,3.0903,3.0903,3.0903,3.0952,3.1827,3.2198,3.2257,3.3076,3.3402,3.3402,3.3402,3.3402,3.3597,3.5211,3.5806,3.6066,1.6297,1.6584,0.0,0.0,1.7327,1.7468,1.7575,1.7595,0.0,0.0,0.0,0.0,0.0,0.0,0.0,0.0,0.0,0.0,0.0,0.0,0.0,2.1846,2.1585,2.1913,2.298,2.1913,2.1067,2.0498,1.9723,1.9044,1.8497,1.8664,1.873,1.8758,1.9052,0.0,1.9206,0.0,0.0,0.0,0.0,0.0,0.0,1.9395,1.9395,1.9395,1.9395,1.9395,1.9395,0.0,1.9395,0.0,0.0,0.0,0.0,0.0,0.0,0.0,0.0,0.0,0.0,0.0,0.0,0.0,0.0,0.0,2.731,0.0,0.0,0.0,0.0,0.0,0.0,0.0,3.0376,0.0,0.0,0.0,0.0,0.0,0.0,0.0,0.0,0.0,0.0,0.0,3.0903,3.0903,3.0903,3.0903,3.0903,3.0903,3.0903,3.0903,3.0903,3.0903,3.0903,3.0903,3.0903,3.0903,3.0903,3.0903,3.0903,3.0952,3.1827,3.2198,3.2257,3.3076,3.3402,3.3402,3.3402,3.3402,3.3481,3.4164,3.4404,3.4643,1.655,0.0,0.0,0.0,0.0,1.7595,1.7595,1.7655,1.7709,0.0,0.0,0.0,1.8686,1.9608,0.0,0.0,0.0,2.2621,0.0,0.0,2.3043,0.0,2.2606,0.0,0.0,2.2484,2.1219,2.0793,1.9834,1.9131,1.8752,1.8951,1.9045,1.9052,0.0,1.9395,1.9395,0.0,0.0,1.9395,1.9395,1.9395,1.9395,1.9395,1.9395,1.9395,1.9395,1.9395,1.9395,1.9395,1.9395,0.0,1.9395,0.0,0.0,0.0,0.0,0.0,1.9395,0.0,0.0,0.0,0.0,0.0,0.0,0.0,0.0,0.0,0.0,0.0,0.0,0.0,0.0,2.9795,0.0,3.0151,0.0,0.0,0.0,0.0,0.0,0.0,0.0,0.0,0.0,3.0903,3.0903,3.0903,3.0903,3.0903,3.0903,3.0903,3.0903,3.0903,3.0903,3.0903,3.0903,3.0903,3.0903,3.0903,3.0903,3.0903,3.0903,3.0942,3.1685,3.2091,3.2257,3.2949,3.3304,3.3402,3.3402,3.3402,3.3402,3.3402,3.3402,3.3566,1.7172,1.7186,0.0,0.0,0.0,1.7595,1.7595,1.7829,1.7989,0.0,0.0,0.0,0.0,0.0,0.0,0.0,0.0,2.748,2.748,0.0,2.7436,0.0,0.0,0.0,0.0,0.0,2.2993,2.157,2.1527,2.0766,1.9368,1.9381,1.9381,1.9381,1.9395,1.9395,1.9395,1.9395,1.9395,1.9395,1.9395,1.9395,1.9395,0.0,1.9395,1.9395,1.9395,0.0,0.0,1.9395,1.9395,0.0,0.0,0.0,0.0,0.0,0.0,0.0,0.0,0.0,0.0,0.0,0.0,0.0,0.0,0.0,2.6114,0.0,0.0,0.0,0.0,0.0,2.8932,2.8941,2.9316,0.0,0.0,0.0,0.0,0.0,0.0,0.0,0.0,0.0,0.0,3.0903,3.0903,3.0903,3.0903,3.0903,3.0903,3.0903,3.0903,3.0903,3.0903,3.0903,3.0903,3.0903,3.0903,3.0903,3.0903,3.0903,3.0903,3.0918,3.1333,3.1777,3.2237,3.2652,3.3057,3.3402,3.3402,3.3402,3.3402,3.3402,3.3402,3.3402,0.0,0.0,0.0,0.0,0.0,0.0,1.7842,1.7936,0.0,0.0,0.0,0.0,0.0,0.0,2.455,0.0,0.0,2.6644,2.6644,2.581,0.0,0.0,0.0,2.2808,0.0,0.0,0.0,0.0,0.0,1.9881,1.9395,1.9395,1.9395,1.9395,0.0,1.9395,0.0,0.0,0.0,0.0,0.0,1.9395,1.9395,0.0,0.0,1.9395,1.9395,1.9395,0.0,1.9395,1.9395,1.9395,1.9395,1.9395,1.9395,1.9395,1.9395,0.0,0.0,0.0,2.1365,2.0386,0.0,0.0,0.0,0.0,0.0,0.0,0.0,0.0,0.0,0.0,2.8594,2.8863,2.9029,2.9336,0.0,0.0,0.0,0.0,0.0,0.0,0.0,0.0,0.0,3.0903,3.0903,3.0903,3.0903,3.0903,3.0903,3.0903,3.0903,3.0903,3.0903,3.0903,3.0903,3.0903,3.0903,3.0903,3.0903,3.0903,3.0903,3.0918,3.1338,3.1768,3.2237,3.2627,3.3037,3.3402,3.3402,3.3402,3.3402,3.3402,3.3402,3.3402,1.7575,0.0,0.0,0.0,0.0,0.0,0.0,0.0,0.0,0.0,2.1898,0.0,2.3434,0.0,2.5013,0.0,2.6572,2.6662,2.6127,2.5654,0.0,2.6086,2.383,0.0,0.0,0.0,0.0,0.0,0.0,1.991,1.9395,1.9395,1.9395,1.9395,0.0,1.9395,1.9395,0.0,1.9395,0.0,0.0,1.9395,0.0,0.0,1.9395,1.9395,0.0,1.9395,1.9395,1.9395,1.9395,1.9395,1.9395,1.9395,1.9395,1.9395,1.9395,1.9395,1.9395,2.009,0.0,0.0,2.0188,0.0,2.0838,0.0,0.0,0.0,0.0,0.0,0.0,0.0,2.782,2.8752,2.8902,2.9205,0.0,3.0596,0.0,0.0,0.0,0.0,0.0,0.0,3.0903,3.0903,3.0903,3.0903,0.0,0.0,3.0903,3.0903,3.0903,3.0903,3.0903,3.0903,3.0903,3.0903,3.0903,3.0903,3.0903,3.0903,3.0903,3.0908,3.1172,3.1631,3.2218,3.2476,3.291,3.3402,3.3402,3.3402,3.3402,3.3402,3.3402,3.3402,0.0,0.0,0.0,0.0,1.8003,0.0,0.0,0.0,2.1743,0.0,2.3712,2.3947,2.4003,2.5338,2.6209,2.6209,2.7488,0.0,2.6291,2.7447,0.0,0.0,2.7407,2.8147,2.8304,0.0,0.0,0.0,0.0,0.0,1.9395,1.9395,1.9395,1.9395,1.9395,0.0,1.9395,1.9395,1.9395,1.9395,1.9395,1.9395,1.9395,1.9395,0.0,1.9415,1.9401,1.9395,1.9401,1.9415,1.9421,1.9421,1.9435,1.9441,1.9441,1.9441,1.9441,1.9441,1.9441,1.9441,1.9441,1.9441,0.0,0.0,0.0,0.0,2.4157,0.0,0.0,0.0,0.0,0.0,0.0,2.8526,2.8896,2.9254,3.0078,0.0,0.0,0.0,0.0,0.0,0.0,3.0903,3.0903,3.0903,3.0903,3.0903,0.0,0.0,3.0903,3.0903,3.0903,3.0903,3.0903,3.0903,3.0903,3.0903,3.0903,3.0903,3.0903,3.0903,3.0903,3.0903,3.0903,3.1392,3.2198,3.2198,3.2666,3.3402,3.3402,3.3402,3.3402,3.3402,3.3402,3.3402,1.9091,2.0174,2.1191,0.0,2.0518,1.9985,0.0,0.0,0.0,0.0,2.476,2.5936,2.7033,2.7501,2.7749,2.7749,2.8081,0.0,0.0,0.0,0.0,2.7699,2.595,2.6,2.8251,2.4668,0.0,2.3794,0.0,0.0,1.9395,1.9395,1.9395,1.9395,0.0,0.0,1.9395,1.9395,1.9395,1.9395,1.9395,1.9395,0.0,0.0,1.9514,1.9674,1.9475,1.9395,1.9428,1.9634,1.9701,1.9726,1.9932,1.9992,1.9992,1.9992,1.9992,1.9992,1.9992,1.9992,1.9992,1.9992,2.0052,2.007,0.0,0.0,0.0,0.0,0.0,0.0,0.0,0.0,0.0,2.7479,2.8865,2.9941,0.0,0.0,0.0,0.0,0.0,0.0,3.0903,3.0903,3.0903,3.0903,3.0903,3.0903,3.0903,0.0,0.0,3.0903,3.0903,3.0903,3.0903,3.0903,3.0903,3.0903,3.0903,3.0903,3.0903,3.0903,3.0903,3.0903,3.0903,3.1392,3.2198,3.2198,3.2666,3.3402,3.3402,3.3402,3.3402,3.3402,3.3402,3.3402,2.0755,0.0,0.0,2.3901,0.0,0.0,2.3075,0.0,0.0,2.4794,2.6114,0.0,2.7326,2.791,2.8304,2.8304,2.8304,0.0,0.0,0.0,0.0,2.733,2.6336,2.6554,2.8264,2.453,0.0,2.3794,0.0,0.0,1.9395,1.9395,1.9395,1.9395,1.9395,1.9395,0.0,1.9395,1.9395,1.9395,1.9395,0.0,0.0,1.9535,1.9674,1.98,1.976,1.9746,1.9773,1.9918,1.9972,1.9998,2.015,2.0204,2.0204,2.0204,2.0204,2.0204,2.0204,2.0204,2.0204,2.0204,2.0312,2.0379,2.023,2.0807,2.1642,0.0,0.0,0.0,0.0,0.0,0.0,0.0,0.0,0.0,0.0,0.0,0.0,0.0,3.0903,0.0,3.0903,3.0903,3.0903,3.0903,3.0903,3.0903,0.0,0.0,0.0,3.0903,3.0903,3.0903,3.0903,3.0903,3.0903,3.0903,3.0903,3.0903,3.0903,3.0903,3.0903,3.0903,3.0903,3.1392,3.2198,3.2198,3.2666,3.3402,3.3402,3.3402,3.3402,3.3402,3.3402,3.3402,0.0,0.0,0.0,0.0,0.0,0.0,0.0,2.6207,0.0,2.6127,0.0,2.7816,2.6531,2.7528,2.8304,0.0,0.0,2.7762,2.6477,2.7582,2.7726,2.6449,2.7434,2.8014,2.8014,2.5063,0.0,0.0,0.0,0.0,1.9395,1.9395,1.9395,1.9395,1.9395,0.0,0.0,1.9395,1.9395,0.0,1.9435,1.9455,1.9488,1.9746,1.988,1.9947,2.0185,2.0237,2.021,2.0244,2.0279,2.027,2.0304,2.0317,2.0317,2.0317,2.0317,2.0317,2.0317,2.0317,2.0317,2.0317,2.0541,2.0677,2.0377,2.1533,2.2705,2.2805,2.2561,0.0,0.0,0.0,0.0,0.0,0.0,0.0,0.0,0.0,0.0,0.0,0.0,0.0,3.0903,3.0903,3.0903,3.0903,3.0903,3.0903,0.0,0.0,0.0,3.0903,3.0903,3.0903,3.0903,0.0,3.0903,3.0903,3.0903,3.0903,3.0903,3.0903,3.0903,3.0903,3.0903,3.1392,3.2198,3.2198,3.2666,3.3402,3.3402,3.3402,3.3402,3.3402,3.3402,3.3402,0.0,0.0,0.0,0.0,0.0,2.7821,2.7821,2.7875,2.7474,2.625,2.738,0.0,2.7937,2.8147,2.8304,2.8304,2.8304,0.0,0.0,0.0,0.0,2.7924,2.6997,2.649,2.649,2.3535,2.199,0.0,0.0,0.0,1.9395,1.9395,1.9395,1.9395,1.9395,0.0,1.9395,1.9395,0.0,1.9421,1.9641,1.9726,1.976,2.0032,2.0292,2.0543,2.0597,2.0426,2.0237,2.0514,2.0617,2.0657,2.0866,2.094,2.094,2.094,2.094,2.094,2.094,2.094,2.094,2.094,2.0995,2.1,2.0969,2.1193,2.1415,2.1447,2.139,2.1478,2.1881,0.0,0.0,0.0,0.0,0.0,0.0,0.0,0.0,0.0,0.0,0.0,0.0,0.0,0.0,0.0,3.0903,3.0903,0.0,0.0,0.0,0.0,3.0903,0.0,0.0,0.0,3.0903,3.0903,3.0903,3.0903,3.0903,3.0903,3.0903,3.0903,3.0903,3.1392,3.2198,3.2198,3.2666,3.3402,3.3402,3.3402,3.3402,3.3402,3.3402,3.3402,0.0,0.0,0.0,0.0,0.0,0.0,0.0,2.8304,0.0,2.6291,2.738,2.8014,2.7236,2.7843,2.8304,2.8304,2.8304,2.7987,2.7209,2.7168,2.6807,2.6,2.5283,0.0,2.4903,0.0,2.16,2.16,0.0,0.0,1.9395,1.9395,1.9395,1.9395,0.0,1.9395,0.0,0.0,0.0,1.9621,1.974,1.9872,2.0039,2.0339,2.0563,2.0726,2.0864,2.0808,2.0693,2.0848,2.0918,2.0922,2.1069,2.1093,2.1093,2.1093,2.1093,2.1093,2.1093,2.1093,2.1093,2.1093,2.1093,2.1093,2.1093,2.1093,2.1093,2.1093,2.1093,2.1093,2.1093,2.31,0.0,0.0,0.0,0.0,0.0,0.0,0.0,0.0,0.0,0.0,0.0,0.0,0.0,0.0,0.0,0.0,0.0,0.0,0.0,0.0,0.0,0.0,0.0,0.0,0.0,3.0903,3.0903,3.0903,3.0903,3.0903,3.0903,3.0903,3.0903,3.1392,3.2237,3.2652,3.3057,3.3402,3.3402,3.3402,3.3402,3.3402,3.3402,3.3402,0.0,2.7871,0.0,0.0,2.8304,0.0,0.0,2.8304,2.7883,2.6717,2.7578,2.7856,2.6689,2.7605,2.8171,2.7856,2.783,2.7195,2.5709,2.5613,2.5068,2.385,2.3501,2.3333,2.3333,2.1898,2.1123,0.0,0.0,0.0,0.0,1.9368,1.9395,0.0,0.0,0.0,0.0,0.0,1.9607,1.9813,1.9933,2.012,2.0346,2.0655,2.0784,2.0817,2.1029,2.1093,2.1093,2.1093,2.1093,2.1093,2.1093,2.1093,2.1093,2.1093,2.1093,2.1093,2.1093,2.1093,2.1093,2.1093,2.1093,2.1093,2.1093,2.1093,2.1093,2.1093,2.1093,2.1093,2.1093,2.2466,0.0,0.0,0.0,0.0,0.0,0.0,0.0,0.0,0.0,0.0,0.0,0.0,0.0,0.0,0.0,0.0,0.0,0.0,0.0,0.0,0.0,3.0903,3.0903,0.0,3.0903,0.0,3.0903,3.0903,3.0903,3.0903,3.0903,3.0898,3.0986,3.131,3.1829,3.2553,3.2629,3.2285,3.2285,3.2285,3.2285,3.2285,3.2285,3.2285,0.0,0.0,0.0,0.0,0.0,0.0,0.0,2.8304,2.8251,2.8107,2.8211,2.8251,2.8107,2.8224,2.7753,2.6422,2.6313,2.5654,2.4114,2.4017,2.3947,2.3808,2.2519,2.1813,2.1813,2.0357,1.9605,0.0,0.0,0.0,0.0,0.0,0.0,0.0,0.0,0.0,0.0,1.9661,1.9773,1.9846,2.0396,2.0623,2.0684,2.0955,2.1053,2.1076,2.108,2.1093,2.1093,2.1093,2.1093,2.1093,2.1093,2.1093,2.1093,2.1093,2.1093,2.1093,2.1093,2.1093,2.1093,2.1093,2.1093,2.1093,2.1093,2.1093,2.1093,2.1093,2.1093,2.1093,2.1093,2.2466,2.3651,0.0,0.0,0.0,0.0,0.0,0.0,0.0,0.0,0.0,0.0,3.0903,0.0,0.0,0.0,0.0,0.0,0.0,0.0,3.0903,0.0,3.0903,3.0903,3.0903,3.0903,3.0903,3.0903,3.0903,3.0903,3.0903,3.0903,3.0918,3.1299,3.1041,3.0413,3.0865,3.0108,2.8698,2.8698,2.8698,2.8698,2.8698,2.8698,2.8698,0.0,0.0,0.0,0.0,0.0,0.0,0.0,2.8304,2.8304,2.8304,2.8304,2.8304,2.8304,2.7501,2.6744,2.6155,2.5247,2.4086,2.2575,2.2476,2.2082,2.1195,2.0594,2.0285,2.0285,1.97,1.9395,0.0,0.0,0.0,0.0,0.0,0.0,0.0,0.0,1.9641,1.9661,1.994,2.016,2.0363,2.0597,2.0797,2.0949,2.1069,2.1093,2.1093,2.1093,2.1093,2.1093,2.1093,2.1093,2.1093,2.1093,2.1093,2.1093,2.1093,2.1093,2.1093,2.1093,2.1093,2.1093,2.1093,2.1093,2.1093,2.1093,2.1093,2.1093,2.1093,2.1093,2.1093,2.1093,2.1648,2.2435,0.0,0.0,0.0,0.0,0.0,0.0,0.0,0.0,0.0,0.0,0.0,0.0,0.0,0.0,0.0,0.0,0.0,0.0,3.0903,0.0,3.0903,3.0903,3.0903,3.0903,3.0903,3.0903,3.0903,3.0903,3.0903,3.0453,2.972,3.0119,2.9658,2.8618,2.9059,2.8821,2.8205,2.8205,2.8205,2.8205,2.8205,2.8205,2.8205,2.8211,0.0,2.8304,0.0,2.8304,2.8304,2.8304,2.8304,2.8304,2.8304,2.8304,2.8304,2.8304,2.6983,2.5923,2.5453,2.4031,2.2526,2.1045,2.0945,2.0493,1.9453,1.9395,0.0,1.9395,1.9395,1.9395,1.9395,1.9395,0.0,0.0,0.0,0.0,0.0,1.9728,1.9846,1.9932,2.0225,2.0481,2.0712,2.0784,2.0922,2.1093,2.1093,2.1093,2.1093,2.1093,2.1093,2.1093,2.1093,2.1093,2.1093,2.1093,2.1093,2.1093,2.1093,2.1093,2.1093,2.1093,2.1093,2.1093,2.1093,2.1093,2.1093,2.1093,2.1093,2.1093,2.1093,2.1093,2.1093,2.1093,2.1093,2.1497,2.2669,0.0,0.0,0.0,0.0,0.0,0.0,0.0,2.8209,2.7743,0.0,0.0,0.0,0.0,0.0,0.0,0.0,0.0,0.0,0.0,0.0,0.0,3.0903,3.0903,3.0903,3.0903,3.0903,3.0874,3.0392,2.9776,2.9064,2.8884,2.808,2.6936,2.7274,2.7089,2.6631,2.6631,2.6631,2.6631,2.6631,2.6631,2.6631,2.8014,2.8304,2.8304,2.8304,2.8304,2.8304,2.8304,2.8304,2.8304,2.8304,2.8304,2.8304,2.8304,2.6983,2.5489,2.3961,2.2476,2.1002,1.9525,1.9424,1.9424,0.0,0.0,1.9395,1.9395,1.9395,1.9395,1.9395,0.0,0.0,1.891,0.0,1.9224,1.98,1.98,1.9945,2.0217,2.0541,2.0706,2.0717,2.0989,2.1109,2.1093,2.1093,2.1093,2.1093,2.1093,2.1093,2.1093,2.1093,2.1093,2.1093,2.1093,2.1093,2.1093,2.1093,2.1093,2.1093,2.1093,2.1093,2.1093,2.1093,2.1093,2.1093,2.1093,2.1093,2.1093,2.1093,2.1093,2.1093,2.1093,2.1093,2.1109,2.1125,0.0,0.0,0.0,0.0,0.0,0.0,2.6448,2.7781,2.6173,0.0,0.0,0.0,0.0,0.0,0.0,0.0,0.0,3.0903,3.0903,0.0,3.0903,3.0903,3.0903,3.0903,3.0903,3.0903,3.0845,2.9187,2.882,2.9404,2.7817,2.6526,2.5519,2.5526,2.452,2.2962,2.2962,2.2962,2.2962,2.2962,2.2962,2.2962,2.8211,2.8304,2.8304,2.8304,2.8304,2.8304,2.8304,2.8304,2.8304,2.8304,2.8304,2.8304,2.8304,2.6983,2.5476,0.0,2.2448,2.0973,0.0,1.9395,1.9395,1.9395,1.9395,1.9395,1.9395,1.9395,1.9395,1.9395,0.0,0.0,0.0,1.9505,1.9711,2.007,2.0307,2.0463,2.0555,2.0848,2.0969,2.0982,2.1076,2.1093,2.1093,2.1093,2.1093,2.1093,2.1093,2.1093,2.1093,2.1093,2.1093,2.1093,2.1093,2.1093,2.1093,2.1093,2.1093,2.1093,2.1093,2.1093,2.1093,2.1093,2.1093,2.1093,2.1093,2.1093,2.1093,2.1093,2.1093,2.1093,2.1093,2.1093,2.1093,2.1093,0.0,0.0,0.0,0.0,0.0,0.0,2.3807,2.494,0.0,2.5817,0.0,0.0,0.0,0.0,0.0,0.0,0.0,0.0,3.0903,0.0,3.0903,3.0903,3.0903,3.0903,3.0903,3.0304,2.9142,2.7503,2.6489,2.5993,2.548,2.4689,2.3727,2.3727,2.3393,2.2893,2.2893,2.2893,2.2893,2.2893,2.2893,2.2893,2.8197,2.8304,2.8304,2.8304,2.8304,2.8304,2.8304,2.8304,2.8304,2.8304,2.7826,2.747,2.7474,2.6136,0.0,2.3877,2.194,2.0379,1.9467,1.9395,1.9395,1.9395,1.9395,1.9395,1.9395,0.0,0.0,1.9395,1.9502,1.9694,1.9945,1.9945,2.0105,2.0408,2.061,2.075,2.0864,2.1036,2.1093,2.1093,2.1093,2.1093,2.1093,2.1093,2.1093,2.1093,2.1093,2.1093,2.1093,2.1093,2.1093,2.1093,2.1093,2.1093,2.1093,2.1093,2.1093,2.1093,2.1093,2.1093,2.1093,2.1093,2.1093,2.1093,2.1093,2.1093,2.1093,2.1093,2.1093,2.1093,2.1093,2.1093,2.1093,2.1093,2.1093,2.1093,0.0,0.0,0.0,0.0,0.0,0.0,0.0,2.4139,0.0,0.0,0.0,0.0,0.0,0.0,0.0,3.0903,3.0903,0.0,3.0903,3.0903,3.0577,2.9947,2.9344,2.8501,2.7443,2.5832,2.4844,2.436,2.3759,2.3274,2.2893,2.2893,2.2893,2.2893,2.2893,2.2893,2.2893,2.2893,2.2893,2.2893,2.804,2.8304,0.0,0.0,2.8304,0.0,2.8304,2.8304,2.8264,2.8161,2.6948,2.6059,2.595,2.4571,2.3654,2.3654,0.0,0.0,0.0,1.9395,1.9395,1.9395,1.9395,1.9395,1.9395,1.9415,1.9435,1.9461,1.9714,1.9965,2.023,2.023,2.0406,2.0739,2.0739,2.0871,2.1093,2.1093,2.1093,2.1093,2.1093,2.1093,2.1093,2.1093,2.1093,2.1093,2.1093,2.1093,2.1093,2.1093,2.1093,2.1093,2.1093,2.1093,2.1093,2.1093,2.1093,2.1093,2.1093,2.1093,2.1093,2.1093,2.1093,2.1093,2.1093,2.1093,2.1093,2.1093,2.1093,2.1093,2.1093,2.1093,2.1093,2.1093,2.1093,2.1093,2.1093,0.0,0.0,0.0,0.0,0.0,0.0,2.2513,2.4101,0.0,0.0,0.0,0.0,0.0,3.0903,3.0903,3.0903,3.0903,3.0903,3.0777,2.9888,2.8209,2.6606,2.5824,2.5787,2.4155,2.372,2.4157,2.2654,2.2335,2.2893,2.2893,2.2893,2.2893,2.2893,2.2893,2.2893,2.2893,2.2893,2.2893,0.0,0.0,2.8304,2.8304,2.8304,2.8304,2.8304,2.8304,2.7897,2.6771,2.6313,2.5649,2.4475,2.3011,2.2117,2.2117,2.1479,2.0601,1.9467,1.9395,1.9395,1.9395,1.9395,1.9395,1.9395,1.9601,1.9806,2.0012,2.0064,2.0265,2.0575,2.0575,2.0728,2.1009,2.1009,2.1042,2.1093,2.1093,2.1093,2.1093,2.1093,2.1093,2.1093,2.1093,2.1093,2.1093,2.1093,2.1093,2.1093,2.1093,2.1093,2.1093,2.1093,2.1093,2.1093,2.1093,2.1093,2.1093,2.1093,2.1093,2.1093,2.1093,2.1093,2.1093,2.1093,2.1093,2.1093,2.1093,2.1093,2.1093,2.1093,2.1093,2.1093,2.1093,2.1093,2.1093,2.1093,2.1093,0.0,0.0,2.145,2.1544,2.1141,2.1466,2.2388,0.0,0.0,0.0,0.0,3.0192,3.0903,3.0903,3.0903,3.0903,3.0903,2.9634,2.8179,2.6545,2.4947,2.4162,2.4116,2.245,2.2009,2.2546,2.2175,2.2335,2.2893,2.2893,2.2893,2.2893,2.2893,2.2893,2.2893,2.2893,2.2893,2.2893,2.8304,2.8304,2.8304,2.8304,2.8304,2.8304,2.8304,2.7726,2.701,2.6195,2.4903,2.3716,2.2884,2.1479,2.0587,2.0587,2.0587,2.0256,1.9453,1.9395,1.9395,1.9395,1.9395,1.9461,1.9574,1.9734,2.0007,2.0434,2.0434,2.0588,2.0875,2.0875,2.0955,2.1093,2.1093,2.1093,2.1093,2.1093,2.1093,2.1093,2.1093,2.1093,2.1093,2.1093,2.1093,2.1093,2.1093,2.1093,2.1093,2.1093,2.1093,2.1093,2.1093,2.1093,2.1093,2.1093,2.1093,2.1093,2.1093,2.1093,2.1093,2.1093,2.1093,2.1093,2.1093,2.1093,2.1093,2.1093,2.1093,2.1093,2.1093,2.1093,2.1093,2.1093,2.1093,2.1093,2.1093,2.1093,0.0,2.1093,2.1093,2.1093,2.1093,2.1093,2.1805,2.3465,0.0,0.0,2.8268,2.927,3.0118,3.0874,3.0162,2.9761,2.9761,2.74,2.5764,2.4886,2.324,2.2466,2.2435,2.1513,2.143,2.2001,2.2001,2.2335,2.2893,2.2893,2.2893,2.2893,2.2893,2.2893,2.2893,2.2893,2.2893,2.2893,2.7964,2.7964,2.804,2.8264,2.8304,2.8214,2.8,2.6893,2.595,2.548,2.3185,2.1515,2.1294,2.0141,1.9395,1.9395,1.9395,1.9395,1.9395,1.9395,1.9415,1.9461,1.9461,1.9587,1.986,1.9907,2.0216,2.0757,2.0757,2.0884,2.1093,2.1093,2.1093,2.1093,2.1093,2.1093,2.1093,2.1093,2.1093,2.1093,2.1093,2.1093,2.1093,2.1093,2.1093,2.1093,2.1093,2.1093,2.1093,2.1093,2.1093,2.1093,2.1093,2.1093,2.1093,2.1093,2.1093,2.1093,2.1093,2.1093,2.1093,2.1093,2.1093,2.1093,2.1093,2.1093,2.1093,2.1093,2.1093,2.1093,2.1093,2.1093,2.1093,2.1093,2.1093,2.1093,2.1093,0.0,2.1093,2.1093,2.1093,2.1093,2.1093,2.1093,2.1695,2.313,2.3465,2.4786,0.0,2.7916,2.8807,3.0475,2.9142,2.8179,2.7677,2.497,2.3465,2.3201,2.179,2.1093,2.1093,2.1093,2.143,2.2001,2.2001,2.2335,2.2893,2.2893,2.2893,2.2893,2.2893,2.2893,2.2893,2.2893,2.2893,2.2893,2.6449,2.6449,2.6825,2.8081,2.8304,2.7883,2.6635,2.625,2.5192,2.2631,2.189,2.113,1.9881,1.9533,1.9395,1.9395,1.9395,1.9395,1.9395,1.9395,1.9502,1.9734,1.9748,1.9852,2.013,2.0414,2.0717,2.1042,2.1042,2.1069,2.1093,2.1093,2.1093,2.1093,2.1093,2.1093,2.1093,2.1093,2.1093,2.1093,2.1093,2.1093,2.1093,2.1093,2.1093,2.1093,2.1093,2.1093,2.1093,2.1093,2.1093,2.1093,2.1093,2.1093,2.1093,2.1093,2.1093,2.1093,2.1093,2.1093,2.1093,2.1093,2.1093,2.1093,2.1093,2.1093,2.1093,2.1093,2.1093,2.1093,2.1093,2.1093,2.1093,2.1093,2.1093,2.1093,2.1093,0.0,2.1093,2.1093,2.1093,2.1093,2.1093,2.1093,2.122,2.1466,2.2803,2.3822,2.4317,2.5627,2.7104,2.8739,2.8545,2.7091,2.4378,2.3845,2.2897,2.1481,2.122,2.1093,2.1093,2.1093,2.143,2.2001,2.2001,2.2335,2.2893,2.2893,2.2893,2.2893,2.2893,2.2893,2.2893,2.2893,2.2893,2.2893,2.595,2.61,2.6581,2.804,2.7645,2.6888,2.6195,2.4715,2.3185,2.1777,2.0909,2.0162,1.9467,1.9395,1.9461,1.9601,1.9614,1.9681,1.982,1.9701,1.9748,2.0005,2.0019,2.0152,2.0468,2.0755,2.0975,2.1093,2.1093,2.1093,2.1093,2.1093,2.1093,2.1093,2.1093,2.1093,2.1093,2.1093,2.1093,2.1093,2.1093,2.1093,2.1093,2.1093,2.1093,2.1093,2.1093,2.1093,2.1093,2.1093,2.1093,2.1093,2.1093,2.1093,2.1093,2.1093,2.1093,2.1093,2.1093,2.1093,2.1093,2.1093,2.1093,2.1093,2.1093,2.1093,2.1093,2.1093,2.1093,2.1093,2.1093,2.1093,2.1093,2.1093,2.1093,0.0,0.0,2.1093,2.1093,2.1093,2.1093,2.1093,2.1093,2.1093,2.1093,2.1093,2.1814,2.2654,2.3558,2.4294,2.5444,2.7058,2.7104,2.5543,2.2301,2.2247,2.1861,2.1093,2.1093,2.1093,2.1093,2.1093,2.143,2.2001,2.2001,2.2335,2.2893,2.2893,2.2893,2.2893,2.2893,2.2893,2.2893,2.2893,2.2893,2.2893,2.5338,2.5854,2.6459,2.7592,2.6852,2.5859,2.5165,2.3087,2.1472,2.1123,2.0105,1.9421,1.9488,1.9495,1.9601,1.9873,1.9885,2.0012,2.0306,2.0127,2.01,2.0312,2.0386,2.0526,2.0791,2.0995,2.1093,2.1093,2.1093,2.1093,2.1093,2.1093,2.1093,2.1093,2.1093,2.1093,2.1093,2.1093,2.1093,2.1093,2.1093,2.1093,2.1093,2.1093,2.1093,2.1093,2.1093,2.1093,2.1093,2.1093,2.1093,2.1093,2.1093,2.1093,2.1093,2.1093,2.1093,2.1093,2.1093,2.1093,2.1093,2.1093,2.1093,2.1093,2.1093,2.1093,2.1093,2.1093,2.1093,2.1093,2.1093,2.1093,2.1093,2.1093,0.0,0.0,0.0,2.1093,2.1093,2.1093,2.1093,2.1093,2.1093,2.1093,2.1093,2.1093,2.1093,2.1664,2.2943,2.3021,2.3574,2.4824,2.5237,2.4039,2.1125,2.1093,2.1093,2.1093,2.1093,2.1093,2.1093,2.1093,2.143,2.2001,2.2001,2.2335,2.2893,2.2893,2.2893,2.2893,2.2893,2.2893,2.2893,2.2893,2.2893,2.2893,2.3947,2.5122,2.6127,2.6245,2.6168,2.5165,2.2363,2.1734,2.1116,1.9743,1.9467,1.9495,1.974,1.9766,1.9887,2.0144,2.017,2.0312,2.0637,2.0637,2.0637,2.0657,2.0902,2.1056,2.1076,2.108,2.1093,2.1093,2.1093,2.1093,2.1093,2.1093,2.1093,2.1093,2.1093,2.1093,2.1093,2.1093,2.1093,2.1093,2.1093,2.1093,2.1093,2.1093,2.1093,2.1093,2.1093,2.1093,2.1093,2.1093,2.1093,2.1093,2.1093,2.1093,2.1093,2.1093,2.1093,2.1093,2.1093,2.1093,2.1093,2.1093,2.1093,2.1093,2.1093,2.1093,2.1093,2.1093,2.1093,2.1093,2.1093,2.1093,2.1093,2.1093,0.0,0.0,2.1093,2.1093,2.1093,2.1093,2.1093,2.1093,2.1093,2.1093,2.1093,2.1093,2.1093,2.1156,2.1276,2.1276,2.1339,2.1459,2.2975,2.2928,2.1125,2.1093,2.1093,2.1093,2.1093,2.1093,2.1093,2.1093,2.143,2.2001,2.2001,2.2335,2.2893,2.2893,2.2893,2.2893,2.2893,2.2893,2.2893,2.2893,2.2893,2.2893,2.2258,2.2906,2.3607,2.4516,2.3919,2.2919,2.1777,2.0823,2.0087,1.9694,1.9647,1.9746,2.0025,2.0052,2.0172,2.0481,2.0508,2.0635,2.0922,2.0942,2.0942,2.0942,2.1049,2.1093,2.1093,2.1093,2.1093,2.1093,2.1093,2.1093,2.1093,2.1093,2.1093,2.1093,2.1093,2.1093,2.1093,2.1093,2.1093,2.1093,2.1093,2.1093,2.1093,2.1093,2.1093,2.1093,2.1093,2.1093,2.1093,2.1093,2.1093,2.1093,2.1093,2.1093,2.1093,2.1093,2.1093,2.1093,2.1093,2.1093,2.1093,2.1093,2.1093,2.1093,2.1093,2.1093,2.1093,2.1093,2.1093,2.1093,2.1093,2.1093,2.1093,2.1093,0.0,2.1093,2.1093,2.1093,2.1093,2.1093,2.1093,2.1093,2.1093,2.1093,2.1093,2.1093,2.1093,2.1093,2.1093,2.1093,2.1093,2.1093,2.1727,2.1742,2.1109,2.1093,2.1093,2.1093,2.1093,2.1093,2.1093,2.1093,2.143,2.2001,2.2001,2.2335,2.2893,2.2893,2.2893,2.2893,2.2893,2.2893,2.2893,2.2893,2.2893,2.2893,2.1408,2.1975,2.247,2.3011,2.2265,2.1443,2.0973,2.0116,1.9587,1.9773,1.9865,2.0047,2.0326,2.0359,2.0472,2.0804,2.0831,2.0895,2.1096,2.1093,2.1093,2.1093,2.1093,2.1093,2.1093,2.1093,2.1093,2.1093,2.1093,2.1093,2.1093,2.1093,2.1093,2.1093,2.1093,2.1093,2.1093,2.1093,2.1093,2.1093,2.1093,2.1093,2.1093,2.1093,2.1093,2.1093,2.1093,2.1093,2.1093,2.1093,2.1093,2.1093,2.1093,2.1093,2.1093,2.1093,2.1093,2.1093,2.1093,2.1093,2.1093,2.1093,2.1093,2.1093,2.1093,2.1093,2.1093,2.1093,2.1093,2.1093,2.1093,2.1093,2.1093,2.1093,2.1093,2.1093,2.1093,2.1093,2.1093,2.1093,2.1093,2.1093,2.1093,2.1093,2.1093,2.1093,2.1093,2.1093,2.1093,2.1093,2.1093,2.1093,2.1093,2.1093,2.1093,2.1093,2.1093,2.1093,2.1093,2.1093,2.1093,2.1093,2.143,2.2001,2.2001,2.2335,2.2893,2.2893,2.2893,2.2893,2.2893,2.2893,2.2893,2.2893,2.2893,2.2893,2.1586,2.2758,2.3305,2.1834,2.1586,2.1088,1.9626,1.9634,1.98,1.9806,2.0039,2.0332,2.0664,2.0697,2.0811,2.1082,2.1093,2.1093,2.1093,2.1093,2.1093,2.1093,2.1093,2.1093,2.1093,2.1093,2.1093,2.1093,2.1093,2.1093,2.1093,2.1093,2.1093,2.1093,2.1093,2.1093,2.1093,2.1093,2.1093,2.1093,2.1093,2.1093,2.1093,2.1093,2.1093,2.1093,2.1093,2.1093,2.1093,2.1093,2.1093,2.1093,2.1093,2.1093,2.1093,2.1093,2.1093,2.1093,2.1093,2.1093,2.1093,2.1093,2.1093,2.1093,2.1093,2.1093,2.1093,2.1093,2.1093,2.1093,2.1093,2.1093,2.1093,2.1093,2.1093,2.1093,2.1093,2.1093,2.1093,2.1093,2.1093,2.1093,2.1093,2.1093,2.1093,2.1093,2.1093,2.1093,2.1093,2.1093,2.1093,2.1093,2.1093,2.1093,2.1093,2.1093,2.1093,2.1093,2.1093,2.1093,2.1093,2.1093,2.143,2.2001,2.2001,2.2335,2.2893,2.2893,2.2893,2.2893,2.2893,2.2893,2.2893,2.2893,2.2893,2.2893,2.0061,2.0414,2.0572,2.0134,2.0061,1.9971,1.9728,1.9746,1.9947,2.0376,2.0503,2.0655,2.0949,2.0982,2.1015,2.1087,2.1093,2.1093,2.1093,2.1093,2.1093,2.1093,2.1093,2.1093,2.1093,2.1093,2.1093,2.1093,2.1093,2.1093,2.1093,2.1093,2.1093,2.1093,2.1093,2.1093,2.1093,2.1093,2.1093,2.1093,2.1093,2.1093,2.1093,2.1093,2.1093,2.1093,2.1093,2.1093,2.1093,2.1093,2.1093,2.1093,2.1093,2.1093,2.1093,2.1093,2.1093,2.1093,2.1093,2.1093,2.1093,2.1093,2.1093,2.1093,2.1093,2.1093,2.1093,2.1093,2.1093,2.1093,2.1093,2.1093,2.1093,2.1093,2.1093,2.1093,2.1093,2.1093,2.1093,2.1093,2.1093,2.1093,2.1093,2.1093,2.1093,2.1093,2.1093,2.1093,2.1093,2.1093,2.1093,2.1093,2.1093,2.1093,2.1093,2.1093,2.1093,2.1093,2.1093,2.1093,2.1093,2.1093,2.143,2.2001,2.2001,2.2335,2.2893,2.2893,2.2893,2.2893,2.2893,2.2893,2.2893,2.2893,2.2893,2.2893,1.9395,1.9395,1.9435,1.9534,1.9568,1.9654,1.9927,2.0067,2.0289,2.0643,2.0791,2.0915,2.1073,2.1093,2.1093,2.1093,2.1093,2.1093,2.1093,2.1093,2.1093,2.1093,2.1093,2.1093,2.1093,2.1093,2.1093,2.1093,2.1093,2.1093,2.1093,2.1093,2.1093,2.1093,2.1093,2.1093,2.1093,2.1093,2.1093,2.1093,2.1093,2.1093,2.1093,2.1093,2.1093,2.1093,2.1093,2.1093,2.1093,2.1093,2.1093,2.1093,2.1093,2.1093,2.1093,2.1093,2.1093,2.1093,2.1093,2.1093,2.1093,2.1093,2.1093,2.1093,2.1093,2.1093,2.1093,2.1093,2.1093,2.1093,2.1093,2.1093,2.1093,2.1093,2.1093,2.1093,2.1093,2.1093,2.1093,2.1093,2.1093,2.1093,2.1093,2.1093,2.1093,2.1093,2.1093,2.1093,2.1093,2.1093,2.1093,2.1093,2.1093,2.1093,2.1093,2.1093,2.1093,2.1093,2.1093,2.1093,2.1093,2.1093,2.1363,2.185,2.1954,2.2268,2.2709,2.2847,2.2893,2.2893,2.2893,2.2893,2.2893,2.2893,2.2893,2.2893,1.9395,1.9421,1.9507,1.9753,1.982,1.994,2.0197,2.0501,2.0704,2.073,2.0949,2.1093,2.1093,2.1093,2.1093,2.1093,2.1093,2.1093,2.1093,2.1093,2.1093,2.1093,2.1093,2.1093,2.1093,2.1093,2.1093,2.1093,2.1093,2.1093,2.1093,2.1093,2.1093,2.1093,2.1093,2.1093,2.1093,2.1093,2.1093,2.1093,2.1093,2.1093,2.1093,2.1093,2.1093,2.1093,2.1093,2.1093,2.1093,2.1093,2.1093,2.1093,2.1093,2.1093,2.1093,2.1093,2.1093,2.1093,2.1093,2.1093,2.1093,2.1093,2.1093,2.1093,2.1093,2.1093,2.1093,2.1093,2.1093,2.1093,2.1093,2.1093,2.1093,2.1093,2.1093,2.1093,2.1093,2.1093,2.1093,2.1093,2.1093,2.1093,2.1093,2.1093,2.1093,2.1093,2.1093,2.1093,2.1093,2.1093,2.1093,2.1093,2.1093,2.1093,2.1093,2.1093,2.1093,2.1093,2.1093,2.1093,2.1093,2.1093,2.1285,2.1618,2.1874,2.2151,2.2422,2.2756,2.2893,2.2893,2.2893,2.2893,2.2893,2.2893,2.2893,2.2893,1.9395,1.9567,1.9726,1.9786,1.9972,2.0225,2.0535,2.065,2.0777,2.0989,2.1053,2.1093,2.1093,2.1093,2.1093,2.1093,2.1093,2.1093,2.1093,2.1093,2.1093,2.1093,2.1093,2.1093,2.1093,2.1093,2.1093,2.1093,2.1093,2.1093,2.1093,2.1093,2.1093,2.1093,2.1093,2.1093,2.1093,2.1093,2.1093,2.1093,2.1093,2.1093,2.1093,2.1093,2.1093,2.1093,2.1093,2.1093,2.1093,2.1093,2.1093,2.1093,2.1093,2.1093,2.1093,2.1093,2.1093,2.1093,2.1093,2.1093,2.1093,2.1093,2.1093,2.1093,2.1093,2.1093,2.1093,2.1093,2.1093,2.1093,2.1093,2.1093,2.1093,2.1093,2.1093,2.1093,2.1093,2.1093,2.1093,2.1093,2.1093,2.1093,2.1093,2.1093,2.1093,2.1093,2.1093,2.1093,2.1093,2.1093,2.1093,2.1093,2.1093,2.1093,2.1093,2.1093,2.1093,2.1093,2.1093,2.1093,2.1093,2.1093,2.1285,2.1618,2.1874,2.2151,2.2422,2.2756,2.2893,2.2893,2.2893,2.2893,2.2893,2.2893,2.2893,2.2893,1.9587,1.9806,2.0032,2.0194,2.0341,2.0541,2.0835,2.0898,2.0935,2.1089,2.1093,2.1093,2.1093,2.1093,2.1093,2.1093,2.1093,2.1093,2.1093,2.1093,2.1093,2.1093,2.1093,2.1093,2.1093,2.1093,2.1093,2.1093,2.1093,2.1093,2.1093,2.1093,2.1093,2.1093,2.1093,2.1093,2.1093,2.1093,2.1093,2.1093,2.1093,2.1093,2.1093,2.1093,2.1093,2.1093,2.1093,2.1093,2.1093,2.1093,2.1093,2.1093,2.1093,2.1093,2.1093,2.1093,2.1093,2.1093,2.1093,2.1093,2.1093,2.1093,2.1093,2.1093,2.1093,2.1093,2.1093,2.1093,2.1093,2.1093,2.1093,2.1093,2.1093,2.1093,2.1093,2.1093,2.1093,2.1093,2.1093,2.1093,2.1093,2.1093,2.1093,2.1093,2.1093,2.1093,2.1093,2.1093,2.1093,2.1093,2.1093,2.1093,2.1093,2.1093,2.1093,2.1093,2.1093,2.1093,2.1093,2.1093,2.1093,2.1093,2.1196,2.1395,2.1813,2.2071,2.2245,2.2719,2.2893,2.2893,2.2893,2.2893,2.2893,2.2893,2.2893,2.2893,1.9873,2.0092,2.0372,2.065,2.0746,2.0844,2.1076,2.1093,2.1093,2.1093,2.1093,2.1093,2.1093,2.1093,2.1093,2.1093,2.1093,2.1093,2.1093,2.1093,2.1093,2.1093,2.1093,2.1093,2.1093,2.1093,2.1093,2.1093,2.1093,2.1093,2.1093,2.1093,2.1093,2.1093,2.1093,2.1093,2.1093,2.1093,2.1093,2.1093,2.1093,2.1093,2.1093,2.1093,2.1093,2.1093,2.1093,2.1093,2.1093,2.1093,2.1093,2.1093,2.1093,2.1093,2.1093,2.1093,2.1093,2.1093,2.1093,2.1093,2.1093,2.1093,2.1093,2.1093,2.1093,2.1093,2.1093,2.1093,2.1093,2.1093,2.1093,2.1093,2.1093,2.1093,2.1093,2.1093,2.1093,2.1093,2.1093,2.1093,2.1093,2.1093,2.1093,2.1093,2.1093,2.1093,2.1093,2.1093,2.1093,2.1093,2.1093,2.1093,2.1093,2.1093,2.1093,2.1093,2.1093,2.1093,2.1093,2.1093,2.1093,2.1093,2.1093,2.112,2.1693,2.1954,2.2041,2.2582,2.2853,2.2893,2.2893,2.2893,2.2893,2.2893,2.2893,2.2893,2.0144,2.0414,2.0643,2.0684,2.0882,2.1062,2.1087,2.1093,2.1093,2.1093,2.1093,2.1093,2.1093,2.1093,2.1093,2.1093,2.1093,2.1093,2.1093,2.1093,2.1093,2.1093,2.1093,2.1093,2.1093,2.1093,2.1093,2.1093,2.1093,2.1093,2.1093,2.1093,2.1093,2.1093,2.1093,2.1093,2.1093,2.1093,2.1093,2.1093,2.1093,2.1093,2.1093,2.1093,2.1093,2.1093,2.1093,2.1093,2.1093,2.1093,2.1093,2.1093,2.1093,2.1093,2.1093,2.1093,2.1093,2.1093,2.1093,2.1093,2.1093,2.1093,2.1093,2.1093,2.1093,2.1093,2.1093,2.1093,2.1093,2.1093,2.1093,2.1093,2.1093,2.1093,2.1093,2.1093,2.1093,2.1093,2.1093,2.1093,2.1093,2.1093,2.1093,2.1093,2.1093,2.1093,2.1093,2.1093,2.1093,2.1093,2.1093,2.1093,2.1093,2.1093,2.1093,2.1093,2.1093,2.1093,2.1093,2.1093,2.1093,2.1093,2.1093,2.1129,2.1486,2.179,2.2027,2.2345,2.2649,2.2893,2.2893,2.2893,2.2893,2.2893,2.2893,2.2893,2.0481,2.0715,2.0915,2.0915,2.1022,2.1093,2.1093,2.1093,2.1093,2.1093,2.1093,2.1093,2.1093,2.1093,2.1093,2.1093,2.1093,2.1093,2.1093,2.1093,2.1093,2.1093,2.1093,2.1093,2.1093,2.1093,2.1093,2.1093,2.1093,2.1093,2.1093,2.1093,2.1093,2.1093,2.1093,2.1093,2.1093,2.1093,2.1093,2.1093,2.1093,2.1093,2.1093,2.1093,2.1093,2.1093,2.1093,2.1093,2.1093,2.1093,2.1093,2.1093,2.1093,2.1093,2.1093,2.1093,2.1093,2.1093,2.1093,2.1093,2.1093,2.1093,2.1093,2.1093,2.1093,2.1093,2.1093,2.1093,2.1093,2.1093,2.1093,2.1093,2.1093,2.1093,2.1093,2.1093,2.1093,2.1093,2.1093,2.1093,2.1093,2.1093,2.1093,2.1093,2.1093,2.1093,2.1093,2.1093,2.1093,2.1093,2.1093,2.1093,2.1093,2.1093,2.1093,2.1093,2.1093,2.1093,2.1093,2.1093,2.1093,2.1093,2.1093,2.1122,2.1455,2.1672,2.1796,2.2074,2.2345,2.2612,2.2612,2.2729,2.2893,2.2893,2.2893,2.2893]}]]